<?xml version='1.0' encoding='UTF-8'?>
<gpx version="1.1" creator="https://www.komoot.de" xmlns="http://www.topografix.com/GPX/1/1" xmlns:xsi="http://www.w3.org/2001/XMLSchema-instance" xsi:schemaLocation="http://www.topografix.com/GPX/1/1 http://www.topografix.com/GPX/1/1/gpx.xsd">
  <metadata>
    <name>70_1060GersbachSchopfh</name>
    <author>
      <link href="https://www.komoot.de">
        <text>komoot</text>
        <type>text/html</type>
      </link>
    </author>
  </metadata>
  <trk>
    <name>70_1060GersbachSchopfh</name>
    <trkseg>
      <trkpt lat="47.543922" lon="7.872340">
        <ele>358.192888</ele>
        <time>2021-11-20T16:52:26.671Z</time>
      </trkpt>
      <trkpt lat="47.544390" lon="7.872423">
        <ele>358.192888</ele>
        <time>2021-11-20T16:52:42.542Z</time>
      </trkpt>
      <trkpt lat="47.544883" lon="7.872555">
        <ele>358.663310</ele>
        <time>2021-11-20T16:53:01.516Z</time>
      </trkpt>
      <trkpt lat="47.545131" lon="7.872664">
        <ele>360.330138</ele>
        <time>2021-11-20T16:53:11.947Z</time>
      </trkpt>
      <trkpt lat="47.545375" lon="7.872836">
        <ele>362.071257</ele>
        <time>2021-11-20T16:53:22.590Z</time>
      </trkpt>
      <trkpt lat="47.545478" lon="7.872968">
        <ele>362.948801</ele>
        <time>2021-11-20T16:53:29.441Z</time>
      </trkpt>
      <trkpt lat="47.545515" lon="7.873015">
        <ele>363.262850</ele>
        <time>2021-11-20T16:53:31.409Z</time>
      </trkpt>
      <trkpt lat="47.545746" lon="7.873302">
        <ele>365.205439</ele>
        <time>2021-11-20T16:53:44.661Z</time>
      </trkpt>
      <trkpt lat="47.545934" lon="7.873549">
        <ele>366.824553</ele>
        <time>2021-11-20T16:53:54.761Z</time>
      </trkpt>
      <trkpt lat="47.546077" lon="7.873763">
        <ele>368.134258</ele>
        <time>2021-11-20T16:54:03.958Z</time>
      </trkpt>
      <trkpt lat="47.546135" lon="7.873859">
        <ele>368.694619</ele>
        <time>2021-11-20T16:54:07.197Z</time>
      </trkpt>
      <trkpt lat="47.546309" lon="7.874154">
        <ele>370.194794</ele>
        <time>2021-11-20T16:54:18.311Z</time>
      </trkpt>
      <trkpt lat="47.547126" lon="7.875801">
        <ele>376.144999</ele>
        <time>2021-11-20T16:55:04.072Z</time>
      </trkpt>
      <trkpt lat="47.547574" lon="7.876801">
        <ele>377.479536</ele>
        <time>2021-11-20T16:55:23.068Z</time>
      </trkpt>
      <trkpt lat="47.547992" lon="7.877974">
        <ele>377.368705</ele>
        <time>2021-11-20T16:55:35.869Z</time>
      </trkpt>
      <trkpt lat="47.548234" lon="7.878638">
        <ele>376.952652</ele>
        <time>2021-11-20T16:55:41.181Z</time>
      </trkpt>
      <trkpt lat="47.548422" lon="7.878959">
        <ele>375.825237</ele>
        <time>2021-11-20T16:55:44.024Z</time>
      </trkpt>
      <trkpt lat="47.548718" lon="7.879258">
        <ele>374.417225</ele>
        <time>2021-11-20T16:55:47.562Z</time>
      </trkpt>
      <trkpt lat="47.549140" lon="7.879391">
        <ele>372.721562</ele>
        <time>2021-11-20T16:55:51.749Z</time>
      </trkpt>
      <trkpt lat="47.549318" lon="7.879398">
        <ele>372.021737</ele>
        <time>2021-11-20T16:55:53.376Z</time>
      </trkpt>
      <trkpt lat="47.549327" lon="7.879547">
        <ele>371.624902</ele>
        <time>2021-11-20T16:55:54.362Z</time>
      </trkpt>
      <trkpt lat="47.549726" lon="7.880786">
        <ele>368.085730</ele>
        <time>2021-11-20T16:56:03.297Z</time>
      </trkpt>
      <trkpt lat="47.549927" lon="7.881490">
        <ele>366.149765</ele>
        <time>2021-11-20T16:56:08.329Z</time>
      </trkpt>
      <trkpt lat="47.550234" lon="7.883221">
        <ele>361.460348</ele>
        <time>2021-11-20T16:56:20.729Z</time>
      </trkpt>
      <trkpt lat="47.550332" lon="7.884727">
        <ele>357.309730</ele>
        <time>2021-11-20T16:56:30.574Z</time>
      </trkpt>
      <trkpt lat="47.550391" lon="7.885109">
        <ele>356.234689</ele>
        <time>2021-11-20T16:56:33.106Z</time>
      </trkpt>
      <trkpt lat="47.550548" lon="7.885799">
        <ele>353.545758</ele>
        <time>2021-11-20T16:56:37.711Z</time>
      </trkpt>
      <trkpt lat="47.550677" lon="7.886476">
        <ele>350.932101</ele>
        <time>2021-11-20T16:56:42.141Z</time>
      </trkpt>
      <trkpt lat="47.550758" lon="7.887295">
        <ele>347.856682</ele>
        <time>2021-11-20T16:56:47.283Z</time>
      </trkpt>
      <trkpt lat="47.550789" lon="7.887816">
        <ele>345.862038</ele>
        <time>2021-11-20T16:56:50.515Z</time>
      </trkpt>
      <trkpt lat="47.550831" lon="7.888611">
        <ele>342.491491</ele>
        <time>2021-11-20T16:56:55.471Z</time>
      </trkpt>
      <trkpt lat="47.550833" lon="7.889069">
        <ele>340.555597</ele>
        <time>2021-11-20T16:56:58.281Z</time>
      </trkpt>
      <trkpt lat="47.550915" lon="7.890600">
        <ele>334.303723</ele>
        <time>2021-11-20T16:57:07.674Z</time>
      </trkpt>
      <trkpt lat="47.550904" lon="7.891725">
        <ele>330.736445</ele>
        <time>2021-11-20T16:57:14.678Z</time>
      </trkpt>
      <trkpt lat="47.550892" lon="7.893176">
        <ele>326.440750</ele>
        <time>2021-11-20T16:57:24.290Z</time>
      </trkpt>
      <trkpt lat="47.550908" lon="7.894308">
        <ele>325.351161</ele>
        <time>2021-11-20T16:57:33.495Z</time>
      </trkpt>
      <trkpt lat="47.550878" lon="7.895158">
        <ele>324.532068</ele>
        <time>2021-11-20T16:57:40.680Z</time>
      </trkpt>
      <trkpt lat="47.550838" lon="7.895509">
        <ele>324.189511</ele>
        <time>2021-11-20T16:57:43.844Z</time>
      </trkpt>
      <trkpt lat="47.550660" lon="7.896255">
        <ele>323.062903</ele>
        <time>2021-11-20T16:57:50.332Z</time>
      </trkpt>
      <trkpt lat="47.550639" lon="7.896345">
        <ele>322.913681</ele>
        <time>2021-11-20T16:57:51.520Z</time>
      </trkpt>
      <trkpt lat="47.550648" lon="7.896481">
        <ele>322.699545</ele>
        <time>2021-11-20T16:57:52.475Z</time>
      </trkpt>
      <trkpt lat="47.550819" lon="7.898109">
        <ele>320.117738</ele>
        <time>2021-11-20T16:58:04.223Z</time>
      </trkpt>
      <trkpt lat="47.550801" lon="7.900244">
        <ele>314.279144</ele>
        <time>2021-11-20T16:58:18.060Z</time>
      </trkpt>
      <trkpt lat="47.550769" lon="7.901362">
        <ele>311.236748</ele>
        <time>2021-11-20T16:58:25.332Z</time>
      </trkpt>
      <trkpt lat="47.550757" lon="7.901591">
        <ele>310.661996</ele>
        <time>2021-11-20T16:58:27.468Z</time>
      </trkpt>
      <trkpt lat="47.550688" lon="7.902451">
        <ele>308.494863</ele>
        <time>2021-11-20T16:58:35.902Z</time>
      </trkpt>
      <trkpt lat="47.550498" lon="7.903445">
        <ele>305.909742</ele>
        <time>2021-11-20T16:58:46.152Z</time>
      </trkpt>
      <trkpt lat="47.550302" lon="7.904164">
        <ele>303.933272</ele>
        <time>2021-11-20T16:58:53.412Z</time>
      </trkpt>
      <trkpt lat="47.550025" lon="7.904774">
        <ele>302.052523</ele>
        <time>2021-11-20T16:59:00.337Z</time>
      </trkpt>
      <trkpt lat="47.549868" lon="7.905010">
        <ele>301.204845</ele>
        <time>2021-11-20T16:59:03.468Z</time>
      </trkpt>
      <trkpt lat="47.549867" lon="7.905155">
        <ele>300.833897</ele>
        <time>2021-11-20T16:59:04.865Z</time>
      </trkpt>
      <trkpt lat="47.550067" lon="7.905245">
        <ele>300.041682</ele>
        <time>2021-11-20T16:59:07.790Z</time>
      </trkpt>
      <trkpt lat="47.550283" lon="7.905413">
        <ele>299.117070</ele>
        <time>2021-11-20T16:59:11.240Z</time>
      </trkpt>
      <trkpt lat="47.550497" lon="7.905558">
        <ele>298.404136</ele>
        <time>2021-11-20T16:59:14.599Z</time>
      </trkpt>
      <trkpt lat="47.549539" lon="7.908625">
        <ele>293.223192</ele>
        <time>2021-11-20T16:59:39.044Z</time>
      </trkpt>
      <trkpt lat="47.549520" lon="7.908678">
        <ele>293.160867</ele>
        <time>2021-11-20T16:59:39.547Z</time>
      </trkpt>
      <trkpt lat="47.549299" lon="7.909412">
        <ele>292.326170</ele>
        <time>2021-11-20T16:59:46.094Z</time>
      </trkpt>
      <trkpt lat="47.549195" lon="7.909756">
        <ele>291.934709</ele>
        <time>2021-11-20T16:59:49.188Z</time>
      </trkpt>
      <trkpt lat="47.549102" lon="7.910058">
        <ele>291.589966</ele>
        <time>2021-11-20T16:59:51.885Z</time>
      </trkpt>
      <trkpt lat="47.549012" lon="7.910340">
        <ele>291.306938</ele>
        <time>2021-11-20T16:59:54.403Z</time>
      </trkpt>
      <trkpt lat="47.548412" lon="7.912168">
        <ele>289.758346</ele>
        <time>2021-11-20T17:00:10.727Z</time>
      </trkpt>
      <trkpt lat="47.548027" lon="7.913334">
        <ele>289.123712</ele>
        <time>2021-11-20T17:00:21.488Z</time>
      </trkpt>
      <trkpt lat="47.547994" lon="7.913433">
        <ele>289.087658</ele>
        <time>2021-11-20T17:00:22.409Z</time>
      </trkpt>
      <trkpt lat="47.547423" lon="7.915080">
        <ele>288.545669</ele>
        <time>2021-11-20T17:00:39.885Z</time>
      </trkpt>
      <trkpt lat="47.547113" lon="7.915971">
        <ele>288.783526</ele>
        <time>2021-11-20T17:00:50.333Z</time>
      </trkpt>
      <trkpt lat="47.547091" lon="7.916039">
        <ele>288.801420</ele>
        <time>2021-11-20T17:00:51.357Z</time>
      </trkpt>
      <trkpt lat="47.547032" lon="7.916218">
        <ele>288.848688</ele>
        <time>2021-11-20T17:00:53.560Z</time>
      </trkpt>
      <trkpt lat="47.546821" lon="7.916867">
        <ele>289.019621</ele>
        <time>2021-11-20T17:01:01.669Z</time>
      </trkpt>
      <trkpt lat="47.546262" lon="7.919081">
        <ele>289.674899</ele>
        <time>2021-11-20T17:01:29.180Z</time>
      </trkpt>
      <trkpt lat="47.546128" lon="7.919617">
        <ele>289.840372</ele>
        <time>2021-11-20T17:01:34.649Z</time>
      </trkpt>
      <trkpt lat="47.545973" lon="7.920313">
        <ele>290.216214</ele>
        <time>2021-11-20T17:01:43.112Z</time>
      </trkpt>
      <trkpt lat="47.545913" lon="7.920765">
        <ele>290.518115</ele>
        <time>2021-11-20T17:01:47.286Z</time>
      </trkpt>
      <trkpt lat="47.545881" lon="7.921096">
        <ele>290.737256</ele>
        <time>2021-11-20T17:01:51.302Z</time>
      </trkpt>
      <trkpt lat="47.545810" lon="7.921755">
        <ele>291.174612</ele>
        <time>2021-11-20T17:02:00.211Z</time>
      </trkpt>
      <trkpt lat="47.545778" lon="7.921947">
        <ele>291.304222</ele>
        <time>2021-11-20T17:02:03.820Z</time>
      </trkpt>
      <trkpt lat="47.545714" lon="7.922249">
        <ele>291.511670</ele>
        <time>2021-11-20T17:02:07.018Z</time>
      </trkpt>
      <trkpt lat="47.545699" lon="7.922325">
        <ele>291.563564</ele>
        <time>2021-11-20T17:02:08.216Z</time>
      </trkpt>
      <trkpt lat="47.545690" lon="7.922369">
        <ele>291.593695</ele>
        <time>2021-11-20T17:02:10.314Z</time>
      </trkpt>
      <trkpt lat="47.545641" lon="7.922610">
        <ele>291.966787</ele>
        <time>2021-11-20T17:02:12.668Z</time>
      </trkpt>
      <trkpt lat="47.545587" lon="7.922895">
        <ele>292.613121</ele>
        <time>2021-11-20T17:02:18.464Z</time>
      </trkpt>
      <trkpt lat="47.545553" lon="7.923142">
        <ele>293.163534</ele>
        <time>2021-11-20T17:02:21.111Z</time>
      </trkpt>
      <trkpt lat="47.545536" lon="7.923407">
        <ele>293.744757</ele>
        <time>2021-11-20T17:02:27.000Z</time>
      </trkpt>
      <trkpt lat="47.545521" lon="7.923709">
        <ele>294.405943</ele>
        <time>2021-11-20T17:02:31.154Z</time>
      </trkpt>
      <trkpt lat="47.545481" lon="7.924396">
        <ele>295.911547</ele>
        <time>2021-11-20T17:02:45.757Z</time>
      </trkpt>
      <trkpt lat="47.545466" lon="7.924880">
        <ele>296.969454</ele>
        <time>2021-11-20T17:02:57.064Z</time>
      </trkpt>
      <trkpt lat="47.545446" lon="7.925350">
        <ele>297.939362</ele>
        <time>2021-11-20T17:03:07.439Z</time>
      </trkpt>
      <trkpt lat="47.545417" lon="7.925848">
        <ele>298.905937</ele>
        <time>2021-11-20T17:03:17.918Z</time>
      </trkpt>
      <trkpt lat="47.545409" lon="7.926773">
        <ele>300.694787</ele>
        <time>2021-11-20T17:03:35.119Z</time>
      </trkpt>
      <trkpt lat="47.545407" lon="7.927001">
        <ele>301.135715</ele>
        <time>2021-11-20T17:03:38.928Z</time>
      </trkpt>
      <trkpt lat="47.545406" lon="7.927306">
        <ele>301.725510</ele>
        <time>2021-11-20T17:03:43.532Z</time>
      </trkpt>
      <trkpt lat="47.545421" lon="7.927686">
        <ele>302.461584</ele>
        <time>2021-11-20T17:03:49.068Z</time>
      </trkpt>
      <trkpt lat="47.545475" lon="7.928419">
        <ele>302.245384</ele>
        <time>2021-11-20T17:03:58.385Z</time>
      </trkpt>
      <trkpt lat="47.545563" lon="7.929641">
        <ele>301.493128</ele>
        <time>2021-11-20T17:04:08.265Z</time>
      </trkpt>
      <trkpt lat="47.545661" lon="7.930955">
        <ele>300.443896</ele>
        <time>2021-11-20T17:04:17.661Z</time>
      </trkpt>
      <trkpt lat="47.545696" lon="7.931497">
        <ele>299.864639</ele>
        <time>2021-11-20T17:04:21.629Z</time>
      </trkpt>
      <trkpt lat="47.545721" lon="7.931992">
        <ele>299.336546</ele>
        <time>2021-11-20T17:04:25.422Z</time>
      </trkpt>
      <trkpt lat="47.545724" lon="7.932758">
        <ele>298.521599</ele>
        <time>2021-11-20T17:04:31.631Z</time>
      </trkpt>
      <trkpt lat="47.545702" lon="7.933290">
        <ele>298.262001</ele>
        <time>2021-11-20T17:04:36.274Z</time>
      </trkpt>
      <trkpt lat="47.545674" lon="7.933625">
        <ele>298.405460</ele>
        <time>2021-11-20T17:04:39.475Z</time>
      </trkpt>
      <trkpt lat="47.545457" lon="7.935110">
        <ele>299.051190</ele>
        <time>2021-11-20T17:04:57.609Z</time>
      </trkpt>
      <trkpt lat="47.545074" lon="7.936484">
        <ele>300.317275</ele>
        <time>2021-11-20T17:05:19.137Z</time>
      </trkpt>
      <trkpt lat="47.544903" lon="7.936917">
        <ele>300.889894</ele>
        <time>2021-11-20T17:05:26.453Z</time>
      </trkpt>
      <trkpt lat="47.544705" lon="7.937395">
        <ele>301.530047</ele>
        <time>2021-11-20T17:05:34.637Z</time>
      </trkpt>
      <trkpt lat="47.544472" lon="7.937932">
        <ele>302.258716</ele>
        <time>2021-11-20T17:05:44.044Z</time>
      </trkpt>
      <trkpt lat="47.543826" lon="7.939433">
        <ele>304.365233</ele>
        <time>2021-11-20T17:06:10.926Z</time>
      </trkpt>
      <trkpt lat="47.543435" lon="7.940670">
        <ele>305.737817</ele>
        <time>2021-11-20T17:06:30.886Z</time>
      </trkpt>
      <trkpt lat="47.543161" lon="7.942213">
        <ele>306.653613</ele>
        <time>2021-11-20T17:06:51.736Z</time>
      </trkpt>
      <trkpt lat="47.543007" lon="7.943867">
        <ele>306.117242</ele>
        <time>2021-11-20T17:07:07.280Z</time>
      </trkpt>
      <trkpt lat="47.542913" lon="7.945267">
        <ele>304.829597</ele>
        <time>2021-11-20T17:07:18.039Z</time>
      </trkpt>
      <trkpt lat="47.542872" lon="7.945781">
        <ele>304.143038</ele>
        <time>2021-11-20T17:07:21.636Z</time>
      </trkpt>
      <trkpt lat="47.542875" lon="7.946089">
        <ele>303.612456</ele>
        <time>2021-11-20T17:07:23.727Z</time>
      </trkpt>
      <trkpt lat="47.542902" lon="7.946514">
        <ele>302.877163</ele>
        <time>2021-11-20T17:07:26.606Z</time>
      </trkpt>
      <trkpt lat="47.542943" lon="7.946806">
        <ele>302.363431</ele>
        <time>2021-11-20T17:07:28.652Z</time>
      </trkpt>
      <trkpt lat="47.542974" lon="7.946965">
        <ele>302.078361</ele>
        <time>2021-11-20T17:07:29.863Z</time>
      </trkpt>
      <trkpt lat="47.542979" lon="7.946989">
        <ele>302.035098</ele>
        <time>2021-11-20T17:07:30.019Z</time>
      </trkpt>
      <trkpt lat="47.543007" lon="7.947104">
        <ele>301.824521</ele>
        <time>2021-11-20T17:07:30.879Z</time>
      </trkpt>
      <trkpt lat="47.543087" lon="7.947317">
        <ele>301.404665</ele>
        <time>2021-11-20T17:07:32.625Z</time>
      </trkpt>
      <trkpt lat="47.543191" lon="7.947615">
        <ele>300.826824</ele>
        <time>2021-11-20T17:07:35.076Z</time>
      </trkpt>
      <trkpt lat="47.543242" lon="7.947745">
        <ele>300.567832</ele>
        <time>2021-11-20T17:07:36.197Z</time>
      </trkpt>
      <trkpt lat="47.543273" lon="7.947816">
        <ele>300.422184</ele>
        <time>2021-11-20T17:07:36.820Z</time>
      </trkpt>
      <trkpt lat="47.543358" lon="7.947967">
        <ele>300.083522</ele>
        <time>2021-11-20T17:07:38.258Z</time>
      </trkpt>
      <trkpt lat="47.543455" lon="7.948127">
        <ele>299.946195</ele>
        <time>2021-11-20T17:07:39.940Z</time>
      </trkpt>
      <trkpt lat="47.543532" lon="7.948214">
        <ele>299.894645</ele>
        <time>2021-11-20T17:07:41.013Z</time>
      </trkpt>
      <trkpt lat="47.543579" lon="7.948287">
        <ele>299.858395</ele>
        <time>2021-11-20T17:07:41.771Z</time>
      </trkpt>
      <trkpt lat="47.543760" lon="7.948548">
        <ele>299.723936</ele>
        <time>2021-11-20T17:07:44.670Z</time>
      </trkpt>
      <trkpt lat="47.543864" lon="7.948694">
        <ele>299.647666</ele>
        <time>2021-11-20T17:07:46.327Z</time>
      </trkpt>
      <trkpt lat="47.543931" lon="7.948785">
        <ele>299.599279</ele>
        <time>2021-11-20T17:07:47.568Z</time>
      </trkpt>
      <trkpt lat="47.544239" lon="7.949202">
        <ele>299.377168</ele>
        <time>2021-11-20T17:07:53.768Z</time>
      </trkpt>
      <trkpt lat="47.544521" lon="7.949558">
        <ele>299.179942</ele>
        <time>2021-11-20T17:07:59.938Z</time>
      </trkpt>
      <trkpt lat="47.544901" lon="7.950044">
        <ele>298.698356</ele>
        <time>2021-11-20T17:08:08.694Z</time>
      </trkpt>
      <trkpt lat="47.545166" lon="7.950366">
        <ele>298.231445</ele>
        <time>2021-11-20T17:08:13.940Z</time>
      </trkpt>
      <trkpt lat="47.545434" lon="7.950668">
        <ele>297.772730</ele>
        <time>2021-11-20T17:08:18.147Z</time>
      </trkpt>
      <trkpt lat="47.545542" lon="7.950842">
        <ele>297.555363</ele>
        <time>2021-11-20T17:08:19.927Z</time>
      </trkpt>
      <trkpt lat="47.545667" lon="7.950979">
        <ele>297.343540</ele>
        <time>2021-11-20T17:08:21.696Z</time>
      </trkpt>
      <trkpt lat="47.545737" lon="7.951055">
        <ele>297.225311</ele>
        <time>2021-11-20T17:08:22.627Z</time>
      </trkpt>
      <trkpt lat="47.545759" lon="7.950982">
        <ele>297.151797</ele>
        <time>2021-11-20T17:08:23.192Z</time>
      </trkpt>
      <trkpt lat="47.545852" lon="7.950808">
        <ele>296.947707</ele>
        <time>2021-11-20T17:08:24.765Z</time>
      </trkpt>
      <trkpt lat="47.545858" lon="7.950769">
        <ele>296.910925</ele>
        <time>2021-11-20T17:08:25.045Z</time>
      </trkpt>
      <trkpt lat="47.545875" lon="7.950668">
        <ele>296.815206</ele>
        <time>2021-11-20T17:08:25.788Z</time>
      </trkpt>
      <trkpt lat="47.545948" lon="7.950297">
        <ele>296.220589</ele>
        <time>2021-11-20T17:08:28.387Z</time>
      </trkpt>
      <trkpt lat="47.545949" lon="7.950185">
        <ele>295.941598</ele>
        <time>2021-11-20T17:08:29.146Z</time>
      </trkpt>
      <trkpt lat="47.546159" lon="7.949303">
        <ele>293.612082</ele>
        <time>2021-11-20T17:08:35.169Z</time>
      </trkpt>
      <trkpt lat="47.546572" lon="7.947545">
        <ele>289.544430</ele>
        <time>2021-11-20T17:08:47.640Z</time>
      </trkpt>
      <trkpt lat="47.546664" lon="7.947227">
        <ele>289.179172</ele>
        <time>2021-11-20T17:08:50.165Z</time>
      </trkpt>
      <trkpt lat="47.546749" lon="7.946929">
        <ele>288.837631</ele>
        <time>2021-11-20T17:08:52.548Z</time>
      </trkpt>
      <trkpt lat="47.546772" lon="7.946847">
        <ele>288.743885</ele>
        <time>2021-11-20T17:08:53.223Z</time>
      </trkpt>
      <trkpt lat="47.546815" lon="7.946690">
        <ele>288.565013</ele>
        <time>2021-11-20T17:08:54.514Z</time>
      </trkpt>
      <trkpt lat="47.546959" lon="7.946071">
        <ele>287.873801</ele>
        <time>2021-11-20T17:08:59.821Z</time>
      </trkpt>
      <trkpt lat="47.547022" lon="7.945790">
        <ele>287.561209</ele>
        <time>2021-11-20T17:09:02.656Z</time>
      </trkpt>
      <trkpt lat="47.547075" lon="7.945550">
        <ele>287.294622</ele>
        <time>2021-11-20T17:09:04.978Z</time>
      </trkpt>
      <trkpt lat="47.547150" lon="7.945242">
        <ele>287.102389</ele>
        <time>2021-11-20T17:09:08.784Z</time>
      </trkpt>
      <trkpt lat="47.547161" lon="7.945196">
        <ele>287.090258</ele>
        <time>2021-11-20T17:09:09.262Z</time>
      </trkpt>
      <trkpt lat="47.547282" lon="7.944699">
        <ele>286.958924</ele>
        <time>2021-11-20T17:09:14.910Z</time>
      </trkpt>
      <trkpt lat="47.547318" lon="7.944515">
        <ele>286.911303</ele>
        <time>2021-11-20T17:09:16.594Z</time>
      </trkpt>
      <trkpt lat="47.547344" lon="7.944382">
        <ele>286.876884</ele>
        <time>2021-11-20T17:09:17.969Z</time>
      </trkpt>
      <trkpt lat="47.547354" lon="7.944331">
        <ele>286.863682</ele>
        <time>2021-11-20T17:09:18.499Z</time>
      </trkpt>
      <trkpt lat="47.547734" lon="7.942722">
        <ele>286.397256</ele>
        <time>2021-11-20T17:09:33.482Z</time>
      </trkpt>
      <trkpt lat="47.547790" lon="7.942490">
        <ele>286.280739</ele>
        <time>2021-11-20T17:09:35.518Z</time>
      </trkpt>
      <trkpt lat="47.548087" lon="7.941446">
        <ele>285.744975</ele>
        <time>2021-11-20T17:09:45.566Z</time>
      </trkpt>
      <trkpt lat="47.548484" lon="7.940313">
        <ele>285.197373</ele>
        <time>2021-11-20T17:09:56.191Z</time>
      </trkpt>
      <trkpt lat="47.548550" lon="7.940126">
        <ele>285.162807</ele>
        <time>2021-11-20T17:09:57.971Z</time>
      </trkpt>
      <trkpt lat="47.548587" lon="7.940118">
        <ele>285.153733</ele>
        <time>2021-11-20T17:09:58.474Z</time>
      </trkpt>
      <trkpt lat="47.548632" lon="7.940087">
        <ele>285.141690</ele>
        <time>2021-11-20T17:09:59.134Z</time>
      </trkpt>
      <trkpt lat="47.548653" lon="7.940052">
        <ele>285.134019</ele>
        <time>2021-11-20T17:09:59.551Z</time>
      </trkpt>
      <trkpt lat="47.548676" lon="7.939951">
        <ele>285.116559</ele>
        <time>2021-11-20T17:10:00.607Z</time>
      </trkpt>
      <trkpt lat="47.548673" lon="7.939890">
        <ele>285.106541</ele>
        <time>2021-11-20T17:10:01.245Z</time>
      </trkpt>
      <trkpt lat="47.548643" lon="7.939810">
        <ele>285.091550</ele>
        <time>2021-11-20T17:10:02.039Z</time>
      </trkpt>
      <trkpt lat="47.548614" lon="7.939778">
        <ele>285.082775</ele>
        <time>2021-11-20T17:10:02.489Z</time>
      </trkpt>
      <trkpt lat="47.548563" lon="7.939753">
        <ele>285.069738</ele>
        <time>2021-11-20T17:10:03.192Z</time>
      </trkpt>
      <trkpt lat="47.548509" lon="7.939765">
        <ele>285.056487</ele>
        <time>2021-11-20T17:10:03.952Z</time>
      </trkpt>
      <trkpt lat="47.548230" lon="7.939581">
        <ele>284.982373</ele>
        <time>2021-11-20T17:10:08.208Z</time>
      </trkpt>
      <trkpt lat="47.548150" lon="7.939478">
        <ele>284.956652</ele>
        <time>2021-11-20T17:10:09.704Z</time>
      </trkpt>
      <trkpt lat="47.548194" lon="7.939601">
        <ele>284.933850</ele>
        <time>2021-11-20T17:10:11.258Z</time>
      </trkpt>
      <trkpt lat="47.548257" lon="7.939732">
        <ele>284.907502</ele>
        <time>2021-11-20T17:10:12.713Z</time>
      </trkpt>
      <trkpt lat="47.548314" lon="7.939849">
        <ele>284.883866</ele>
        <time>2021-11-20T17:10:14.118Z</time>
      </trkpt>
      <trkpt lat="47.548349" lon="7.940187">
        <ele>284.827854</ele>
        <time>2021-11-20T17:10:17.679Z</time>
      </trkpt>
      <trkpt lat="47.548195" lon="7.940950">
        <ele>285.065905</ele>
        <time>2021-11-20T17:10:26.234Z</time>
      </trkpt>
      <trkpt lat="47.547852" lon="7.942144">
        <ele>285.693842</ele>
        <time>2021-11-20T17:10:42.233Z</time>
      </trkpt>
      <trkpt lat="47.547772" lon="7.942416">
        <ele>285.837418</ele>
        <time>2021-11-20T17:10:46.090Z</time>
      </trkpt>
      <trkpt lat="47.547436" lon="7.943731">
        <ele>286.426008</ele>
        <time>2021-11-20T17:11:03.616Z</time>
      </trkpt>
      <trkpt lat="47.547380" lon="7.943952">
        <ele>286.516278</ele>
        <time>2021-11-20T17:11:06.412Z</time>
      </trkpt>
      <trkpt lat="47.547280" lon="7.944357">
        <ele>286.681190</ele>
        <time>2021-11-20T17:11:11.400Z</time>
      </trkpt>
      <trkpt lat="47.547254" lon="7.944465">
        <ele>286.725038</ele>
        <time>2021-11-20T17:11:12.660Z</time>
      </trkpt>
      <trkpt lat="47.547245" lon="7.944501">
        <ele>286.739719</ele>
        <time>2021-11-20T17:11:13.071Z</time>
      </trkpt>
      <trkpt lat="47.547226" lon="7.944591">
        <ele>286.775779</ele>
        <time>2021-11-20T17:11:14.142Z</time>
      </trkpt>
      <trkpt lat="47.547133" lon="7.944987">
        <ele>286.936117</ele>
        <time>2021-11-20T17:11:18.399Z</time>
      </trkpt>
      <trkpt lat="47.547004" lon="7.945514">
        <ele>287.106165</ele>
        <time>2021-11-20T17:11:24.377Z</time>
      </trkpt>
      <trkpt lat="47.546971" lon="7.945673">
        <ele>287.114907</ele>
        <time>2021-11-20T17:11:26.171Z</time>
      </trkpt>
      <trkpt lat="47.546954" lon="7.945755">
        <ele>287.119414</ele>
        <time>2021-11-20T17:11:27.132Z</time>
      </trkpt>
      <trkpt lat="47.546780" lon="7.946530">
        <ele>287.162335</ele>
        <time>2021-11-20T17:11:35.740Z</time>
      </trkpt>
      <trkpt lat="47.546755" lon="7.946638">
        <ele>287.168335</ele>
        <time>2021-11-20T17:11:36.972Z</time>
      </trkpt>
      <trkpt lat="47.546682" lon="7.946947">
        <ele>287.185539</ele>
        <time>2021-11-20T17:11:40.303Z</time>
      </trkpt>
      <trkpt lat="47.546677" lon="7.946975">
        <ele>287.187061</ele>
        <time>2021-11-20T17:11:40.553Z</time>
      </trkpt>
      <trkpt lat="47.546709" lon="7.946954">
        <ele>287.189786</ele>
        <time>2021-11-20T17:11:41.086Z</time>
      </trkpt>
      <trkpt lat="47.546749" lon="7.946929">
        <ele>287.193166</ele>
        <time>2021-11-20T17:11:41.714Z</time>
      </trkpt>
      <trkpt lat="47.546772" lon="7.946847">
        <ele>287.197832</ele>
        <time>2021-11-20T17:11:42.570Z</time>
      </trkpt>
      <trkpt lat="47.546815" lon="7.946690">
        <ele>287.206736</ele>
        <time>2021-11-20T17:11:44.266Z</time>
      </trkpt>
      <trkpt lat="47.546959" lon="7.946071">
        <ele>287.232310</ele>
        <time>2021-11-20T17:11:50.517Z</time>
      </trkpt>
      <trkpt lat="47.547022" lon="7.945790">
        <ele>287.179387</ele>
        <time>2021-11-20T17:11:53.399Z</time>
      </trkpt>
      <trkpt lat="47.547075" lon="7.945550">
        <ele>287.134254</ele>
        <time>2021-11-20T17:11:55.860Z</time>
      </trkpt>
      <trkpt lat="47.547150" lon="7.945242">
        <ele>287.075731</ele>
        <time>2021-11-20T17:11:59.238Z</time>
      </trkpt>
      <trkpt lat="47.547161" lon="7.945196">
        <ele>287.067008</ele>
        <time>2021-11-20T17:11:59.686Z</time>
      </trkpt>
      <trkpt lat="47.547282" lon="7.944699">
        <ele>286.972575</ele>
        <time>2021-11-20T17:12:05.102Z</time>
      </trkpt>
      <trkpt lat="47.547318" lon="7.944515">
        <ele>286.938335</ele>
        <time>2021-11-20T17:12:06.786Z</time>
      </trkpt>
      <trkpt lat="47.547344" lon="7.944382">
        <ele>286.913586</ele>
        <time>2021-11-20T17:12:08.161Z</time>
      </trkpt>
      <trkpt lat="47.547354" lon="7.944331">
        <ele>286.904094</ele>
        <time>2021-11-20T17:12:08.692Z</time>
      </trkpt>
      <trkpt lat="47.547734" lon="7.942722">
        <ele>286.341513</ele>
        <time>2021-11-20T17:12:23.676Z</time>
      </trkpt>
      <trkpt lat="47.547790" lon="7.942490">
        <ele>286.227985</ele>
        <time>2021-11-20T17:12:25.711Z</time>
      </trkpt>
      <trkpt lat="47.548087" lon="7.941446">
        <ele>285.705968</ele>
        <time>2021-11-20T17:12:35.759Z</time>
      </trkpt>
      <trkpt lat="47.548484" lon="7.940313">
        <ele>285.002635</ele>
        <time>2021-11-20T17:12:46.088Z</time>
      </trkpt>
      <trkpt lat="47.548550" lon="7.940126">
        <ele>284.878574</ele>
        <time>2021-11-20T17:12:47.830Z</time>
      </trkpt>
      <trkpt lat="47.548587" lon="7.940118">
        <ele>284.846006</ele>
        <time>2021-11-20T17:12:48.317Z</time>
      </trkpt>
      <trkpt lat="47.548632" lon="7.940087">
        <ele>284.802780</ele>
        <time>2021-11-20T17:12:48.957Z</time>
      </trkpt>
      <trkpt lat="47.548653" lon="7.940052">
        <ele>284.775249</ele>
        <time>2021-11-20T17:12:49.363Z</time>
      </trkpt>
      <trkpt lat="47.548676" lon="7.939951">
        <ele>284.712583</ele>
        <time>2021-11-20T17:12:50.244Z</time>
      </trkpt>
      <trkpt lat="47.548673" lon="7.939890">
        <ele>284.676626</ele>
        <time>2021-11-20T17:12:50.776Z</time>
      </trkpt>
      <trkpt lat="47.548643" lon="7.939810">
        <ele>284.622823</ele>
        <time>2021-11-20T17:12:51.544Z</time>
      </trkpt>
      <trkpt lat="47.548614" lon="7.939778">
        <ele>284.591328</ele>
        <time>2021-11-20T17:12:51.978Z</time>
      </trkpt>
      <trkpt lat="47.548563" lon="7.939753">
        <ele>284.544538</ele>
        <time>2021-11-20T17:12:52.646Z</time>
      </trkpt>
      <trkpt lat="47.548509" lon="7.939765">
        <ele>284.496977</ele>
        <time>2021-11-20T17:12:53.362Z</time>
      </trkpt>
      <trkpt lat="47.548230" lon="7.939581">
        <ele>284.230977</ele>
        <time>2021-11-20T17:12:57.191Z</time>
      </trkpt>
      <trkpt lat="47.548150" lon="7.939478">
        <ele>284.138661</ele>
        <time>2021-11-20T17:12:58.593Z</time>
      </trkpt>
      <trkpt lat="47.548129" lon="7.939460">
        <ele>284.117529</ele>
        <time>2021-11-20T17:12:58.890Z</time>
      </trkpt>
      <trkpt lat="47.548085" lon="7.939422">
        <ele>284.073169</ele>
        <time>2021-11-20T17:12:59.533Z</time>
      </trkpt>
      <trkpt lat="47.547474" lon="7.938844">
        <ele>283.773474</ele>
        <time>2021-11-20T17:13:09.174Z</time>
      </trkpt>
      <trkpt lat="47.547174" lon="7.938475">
        <ele>283.647773</ele>
        <time>2021-11-20T17:13:14.236Z</time>
      </trkpt>
      <trkpt lat="47.547115" lon="7.938377">
        <ele>283.619198</ele>
        <time>2021-11-20T17:13:15.408Z</time>
      </trkpt>
      <trkpt lat="47.547044" lon="7.938237">
        <ele>283.581094</ele>
        <time>2021-11-20T17:13:17.091Z</time>
      </trkpt>
      <trkpt lat="47.546969" lon="7.938023">
        <ele>283.528624</ele>
        <time>2021-11-20T17:13:19.494Z</time>
      </trkpt>
      <trkpt lat="47.546915" lon="7.937800">
        <ele>283.477071</ele>
        <time>2021-11-20T17:13:21.875Z</time>
      </trkpt>
      <trkpt lat="47.546890" lon="7.937602">
        <ele>283.433239</ele>
        <time>2021-11-20T17:13:24.061Z</time>
      </trkpt>
      <trkpt lat="47.546895" lon="7.937196">
        <ele>283.424929</ele>
        <time>2021-11-20T17:13:28.147Z</time>
      </trkpt>
      <trkpt lat="47.547020" lon="7.936617">
        <ele>283.535091</ele>
        <time>2021-11-20T17:13:34.464Z</time>
      </trkpt>
      <trkpt lat="47.547523" lon="7.935115">
        <ele>283.838939</ele>
        <time>2021-11-20T17:13:52.556Z</time>
      </trkpt>
      <trkpt lat="47.547539" lon="7.935068">
        <ele>283.848478</ele>
        <time>2021-11-20T17:13:53.122Z</time>
      </trkpt>
      <trkpt lat="47.547663" lon="7.934665">
        <ele>284.012700</ele>
        <time>2021-11-20T17:13:58.075Z</time>
      </trkpt>
      <trkpt lat="47.547956" lon="7.933604">
        <ele>284.524903</ele>
        <time>2021-11-20T17:14:11.425Z</time>
      </trkpt>
      <trkpt lat="47.548144" lon="7.932614">
        <ele>284.984413</ele>
        <time>2021-11-20T17:14:24.350Z</time>
      </trkpt>
      <trkpt lat="47.548252" lon="7.930989">
        <ele>285.784391</ele>
        <time>2021-11-20T17:14:43.849Z</time>
      </trkpt>
      <trkpt lat="47.548241" lon="7.930335">
        <ele>286.108261</ele>
        <time>2021-11-20T17:14:51.048Z</time>
      </trkpt>
      <trkpt lat="47.548236" lon="7.930144">
        <ele>286.202889</ele>
        <time>2021-11-20T17:14:53.027Z</time>
      </trkpt>
      <trkpt lat="47.548226" lon="7.929841">
        <ele>286.353072</ele>
        <time>2021-11-20T17:14:57.009Z</time>
      </trkpt>
      <trkpt lat="47.548192" lon="7.928866">
        <ele>287.309404</ele>
        <time>2021-11-20T17:15:09.649Z</time>
      </trkpt>
      <trkpt lat="47.548186" lon="7.928343">
        <ele>287.837506</ele>
        <time>2021-11-20T17:15:17.126Z</time>
      </trkpt>
      <trkpt lat="47.548228" lon="7.928033">
        <ele>288.156727</ele>
        <time>2021-11-20T17:15:21.154Z</time>
      </trkpt>
      <trkpt lat="47.548275" lon="7.927880">
        <ele>288.326443</ele>
        <time>2021-11-20T17:15:23.495Z</time>
      </trkpt>
      <trkpt lat="47.548298" lon="7.927820">
        <ele>288.396107</ele>
        <time>2021-11-20T17:15:25.240Z</time>
      </trkpt>
      <trkpt lat="47.548534" lon="7.927518">
        <ele>288.862558</ele>
        <time>2021-11-20T17:15:31.624Z</time>
      </trkpt>
      <trkpt lat="47.548777" lon="7.927430">
        <ele>289.279640</ele>
        <time>2021-11-20T17:15:37.608Z</time>
      </trkpt>
      <trkpt lat="47.548912" lon="7.927437">
        <ele>289.534222</ele>
        <time>2021-11-20T17:15:41.257Z</time>
      </trkpt>
      <trkpt lat="47.549059" lon="7.927444">
        <ele>289.811408</ele>
        <time>2021-11-20T17:15:44.912Z</time>
      </trkpt>
      <trkpt lat="47.549507" lon="7.927541">
        <ele>290.664696</ele>
        <time>2021-11-20T17:15:55.345Z</time>
      </trkpt>
      <trkpt lat="47.549697" lon="7.927581">
        <ele>291.026374</ele>
        <time>2021-11-20T17:16:00.543Z</time>
      </trkpt>
      <trkpt lat="47.550041" lon="7.927651">
        <ele>291.680777</ele>
        <time>2021-11-20T17:16:08.104Z</time>
      </trkpt>
      <trkpt lat="47.550381" lon="7.927709">
        <ele>292.325789</ele>
        <time>2021-11-20T17:16:15.247Z</time>
      </trkpt>
      <trkpt lat="47.550481" lon="7.927724">
        <ele>292.476523</ele>
        <time>2021-11-20T17:16:17.182Z</time>
      </trkpt>
      <trkpt lat="47.550669" lon="7.927757">
        <ele>292.576356</ele>
        <time>2021-11-20T17:16:20.393Z</time>
      </trkpt>
      <trkpt lat="47.551076" lon="7.927850">
        <ele>292.793521</ele>
        <time>2021-11-20T17:16:27.410Z</time>
      </trkpt>
      <trkpt lat="47.551163" lon="7.927871">
        <ele>292.840004</ele>
        <time>2021-11-20T17:16:28.817Z</time>
      </trkpt>
      <trkpt lat="47.551192" lon="7.927575">
        <ele>292.946460</ele>
        <time>2021-11-20T17:16:32.178Z</time>
      </trkpt>
      <trkpt lat="47.551183" lon="7.927256">
        <ele>293.060097</ele>
        <time>2021-11-20T17:16:35.693Z</time>
      </trkpt>
      <trkpt lat="47.551209" lon="7.927048">
        <ele>293.135387</ele>
        <time>2021-11-20T17:16:37.961Z</time>
      </trkpt>
      <trkpt lat="47.551236" lon="7.926890">
        <ele>293.193397</ele>
        <time>2021-11-20T17:16:39.830Z</time>
      </trkpt>
      <trkpt lat="47.551262" lon="7.926787">
        <ele>293.232536</ele>
        <time>2021-11-20T17:16:40.930Z</time>
      </trkpt>
      <trkpt lat="47.551300" lon="7.926708">
        <ele>293.267064</ele>
        <time>2021-11-20T17:16:41.935Z</time>
      </trkpt>
      <trkpt lat="47.551345" lon="7.926636">
        <ele>293.301990</ele>
        <time>2021-11-20T17:16:42.946Z</time>
      </trkpt>
      <trkpt lat="47.551423" lon="7.926561">
        <ele>293.351025</ele>
        <time>2021-11-20T17:16:44.568Z</time>
      </trkpt>
      <trkpt lat="47.551676" lon="7.926477">
        <ele>293.459453</ele>
        <time>2021-11-20T17:16:48.502Z</time>
      </trkpt>
      <trkpt lat="47.551788" lon="7.926512">
        <ele>293.497849</ele>
        <time>2021-11-20T17:16:50.505Z</time>
      </trkpt>
      <trkpt lat="47.552250" lon="7.926787">
        <ele>293.664864</ele>
        <time>2021-11-20T17:16:58.260Z</time>
      </trkpt>
      <trkpt lat="47.552388" lon="7.926860">
        <ele>293.714018</ele>
        <time>2021-11-20T17:17:00.688Z</time>
      </trkpt>
      <trkpt lat="47.552729" lon="7.927061">
        <ele>293.837124</ele>
        <time>2021-11-20T17:17:06.722Z</time>
      </trkpt>
      <trkpt lat="47.552928" lon="7.927209">
        <ele>293.911815</ele>
        <time>2021-11-20T17:17:10.375Z</time>
      </trkpt>
      <trkpt lat="47.553166" lon="7.927389">
        <ele>294.001451</ele>
        <time>2021-11-20T17:17:14.957Z</time>
      </trkpt>
      <trkpt lat="47.553221" lon="7.927438">
        <ele>294.015296</ele>
        <time>2021-11-20T17:17:15.912Z</time>
      </trkpt>
      <trkpt lat="47.553257" lon="7.927322">
        <ele>294.021175</ele>
        <time>2021-11-20T17:17:17.360Z</time>
      </trkpt>
      <trkpt lat="47.553294" lon="7.927186">
        <ele>294.027926</ele>
        <time>2021-11-20T17:17:18.998Z</time>
      </trkpt>
      <trkpt lat="47.553381" lon="7.926895">
        <ele>294.042581</ele>
        <time>2021-11-20T17:17:22.331Z</time>
      </trkpt>
      <trkpt lat="47.553408" lon="7.926803">
        <ele>294.047200</ele>
        <time>2021-11-20T17:17:23.445Z</time>
      </trkpt>
      <trkpt lat="47.553539" lon="7.926451">
        <ele>294.065709</ele>
        <time>2021-11-20T17:17:27.573Z</time>
      </trkpt>
      <trkpt lat="47.553834" lon="7.925632">
        <ele>294.108454</ele>
        <time>2021-11-20T17:17:36.713Z</time>
      </trkpt>
      <trkpt lat="47.554226" lon="7.924713">
        <ele>294.083253</ele>
        <time>2021-11-20T17:17:47.231Z</time>
      </trkpt>
      <trkpt lat="47.554705" lon="7.923835">
        <ele>293.961100</ele>
        <time>2021-11-20T17:17:58.055Z</time>
      </trkpt>
      <trkpt lat="47.555272" lon="7.922934">
        <ele>293.831997</ele>
        <time>2021-11-20T17:18:09.662Z</time>
      </trkpt>
      <trkpt lat="47.556542" lon="7.921551">
        <ele>293.632523</ele>
        <time>2021-11-20T17:18:32.376Z</time>
      </trkpt>
      <trkpt lat="47.557147" lon="7.921064">
        <ele>293.567330</ele>
        <time>2021-11-20T17:18:42.522Z</time>
      </trkpt>
      <trkpt lat="47.558098" lon="7.920440">
        <ele>293.474386</ele>
        <time>2021-11-20T17:18:57.611Z</time>
      </trkpt>
      <trkpt lat="47.559194" lon="7.919904">
        <ele>293.058301</ele>
        <time>2021-11-20T17:19:14.022Z</time>
      </trkpt>
      <trkpt lat="47.559264" lon="7.919870">
        <ele>293.028327</ele>
        <time>2021-11-20T17:19:15.066Z</time>
      </trkpt>
      <trkpt lat="47.561244" lon="7.918902">
        <ele>291.390839</ele>
        <time>2021-11-20T17:19:41.398Z</time>
      </trkpt>
      <trkpt lat="47.561405" lon="7.918835">
        <ele>291.224719</ele>
        <time>2021-11-20T17:19:43.313Z</time>
      </trkpt>
      <trkpt lat="47.561792" lon="7.918633">
        <ele>290.782993</ele>
        <time>2021-11-20T17:19:48.007Z</time>
      </trkpt>
      <trkpt lat="47.562098" lon="7.918473">
        <ele>290.371599</ele>
        <time>2021-11-20T17:19:51.746Z</time>
      </trkpt>
      <trkpt lat="47.562192" lon="7.918413">
        <ele>290.241839</ele>
        <time>2021-11-20T17:19:52.904Z</time>
      </trkpt>
      <trkpt lat="47.562330" lon="7.918325">
        <ele>290.051369</ele>
        <time>2021-11-20T17:19:54.660Z</time>
      </trkpt>
      <trkpt lat="47.562491" lon="7.918206">
        <ele>289.823270</ele>
        <time>2021-11-20T17:19:56.700Z</time>
      </trkpt>
      <trkpt lat="47.562766" lon="7.918001">
        <ele>289.432994</ele>
        <time>2021-11-20T17:20:00.284Z</time>
      </trkpt>
      <trkpt lat="47.562783" lon="7.917983">
        <ele>289.406505</ele>
        <time>2021-11-20T17:20:00.503Z</time>
      </trkpt>
      <trkpt lat="47.563304" lon="7.917434">
        <ele>288.655578</ele>
        <time>2021-11-20T17:20:08.247Z</time>
      </trkpt>
      <trkpt lat="47.563485" lon="7.917258">
        <ele>288.635248</ele>
        <time>2021-11-20T17:20:11.101Z</time>
      </trkpt>
      <trkpt lat="47.564482" lon="7.916219">
        <ele>288.520790</ele>
        <time>2021-11-20T17:20:29.482Z</time>
      </trkpt>
      <trkpt lat="47.564500" lon="7.916200">
        <ele>288.518715</ele>
        <time>2021-11-20T17:20:29.837Z</time>
      </trkpt>
      <trkpt lat="47.564526" lon="7.916174">
        <ele>288.515769</ele>
        <time>2021-11-20T17:20:30.324Z</time>
      </trkpt>
      <trkpt lat="47.564899" lon="7.915798">
        <ele>288.521634</ele>
        <time>2021-11-20T17:20:37.516Z</time>
      </trkpt>
      <trkpt lat="47.565627" lon="7.915066">
        <ele>288.660028</ele>
        <time>2021-11-20T17:20:51.409Z</time>
      </trkpt>
      <trkpt lat="47.565672" lon="7.915025">
        <ele>288.668338</ele>
        <time>2021-11-20T17:20:52.246Z</time>
      </trkpt>
      <trkpt lat="47.565748" lon="7.914949">
        <ele>288.682761</ele>
        <time>2021-11-20T17:20:53.702Z</time>
      </trkpt>
      <trkpt lat="47.565830" lon="7.914880">
        <ele>288.697594</ele>
        <time>2021-11-20T17:20:55.208Z</time>
      </trkpt>
      <trkpt lat="47.565995" lon="7.914739">
        <ele>288.727557</ele>
        <time>2021-11-20T17:20:58.134Z</time>
      </trkpt>
      <trkpt lat="47.566025" lon="7.914720">
        <ele>288.732689</ele>
        <time>2021-11-20T17:20:58.563Z</time>
      </trkpt>
      <trkpt lat="47.566096" lon="7.914676">
        <ele>288.744795</ele>
        <time>2021-11-20T17:20:59.745Z</time>
      </trkpt>
      <trkpt lat="47.566250" lon="7.914580">
        <ele>288.771077</ele>
        <time>2021-11-20T17:21:02.265Z</time>
      </trkpt>
      <trkpt lat="47.566474" lon="7.914468">
        <ele>288.693287</ele>
        <time>2021-11-20T17:21:05.576Z</time>
      </trkpt>
      <trkpt lat="47.566489" lon="7.914461">
        <ele>288.687365</ele>
        <time>2021-11-20T17:21:05.816Z</time>
      </trkpt>
      <trkpt lat="47.566534" lon="7.914439">
        <ele>288.669524</ele>
        <time>2021-11-20T17:21:06.492Z</time>
      </trkpt>
      <trkpt lat="47.566601" lon="7.914411">
        <ele>288.643313</ele>
        <time>2021-11-20T17:21:07.507Z</time>
      </trkpt>
      <trkpt lat="47.566984" lon="7.914229">
        <ele>288.491874</ele>
        <time>2021-11-20T17:21:13.042Z</time>
      </trkpt>
      <trkpt lat="47.567335" lon="7.914048">
        <ele>288.351944</ele>
        <time>2021-11-20T17:21:17.972Z</time>
      </trkpt>
      <trkpt lat="47.567374" lon="7.914028">
        <ele>288.336406</ele>
        <time>2021-11-20T17:21:18.451Z</time>
      </trkpt>
      <trkpt lat="47.568301" lon="7.913554">
        <ele>287.995109</ele>
        <time>2021-11-20T17:21:31.453Z</time>
      </trkpt>
      <trkpt lat="47.568566" lon="7.913414">
        <ele>287.911941</ele>
        <time>2021-11-20T17:21:35.159Z</time>
      </trkpt>
      <trkpt lat="47.569155" lon="7.913298">
        <ele>287.736289</ele>
        <time>2021-11-20T17:21:43.199Z</time>
      </trkpt>
      <trkpt lat="47.569682" lon="7.913220">
        <ele>287.579722</ele>
        <time>2021-11-20T17:21:50.769Z</time>
      </trkpt>
      <trkpt lat="47.571638" lon="7.913041">
        <ele>287.779227</ele>
        <time>2021-11-20T17:22:21.346Z</time>
      </trkpt>
      <trkpt lat="47.571807" lon="7.913030">
        <ele>287.724146</ele>
        <time>2021-11-20T17:22:23.997Z</time>
      </trkpt>
      <trkpt lat="47.571801" lon="7.912878">
        <ele>287.690698</ele>
        <time>2021-11-20T17:22:25.515Z</time>
      </trkpt>
      <trkpt lat="47.571815" lon="7.912822">
        <ele>287.677579</ele>
        <time>2021-11-20T17:22:26.103Z</time>
      </trkpt>
      <trkpt lat="47.571842" lon="7.912780">
        <ele>287.664835</ele>
        <time>2021-11-20T17:22:26.584Z</time>
      </trkpt>
      <trkpt lat="47.572195" lon="7.912650">
        <ele>287.546400</ele>
        <time>2021-11-20T17:22:31.753Z</time>
      </trkpt>
      <trkpt lat="47.572843" lon="7.912399">
        <ele>287.328319</ele>
        <time>2021-11-20T17:22:40.806Z</time>
      </trkpt>
      <trkpt lat="47.572921" lon="7.912369">
        <ele>287.302080</ele>
        <time>2021-11-20T17:22:41.762Z</time>
      </trkpt>
      <trkpt lat="47.573759" lon="7.912034">
        <ele>286.775310</ele>
        <time>2021-11-20T17:22:52.764Z</time>
      </trkpt>
      <trkpt lat="47.573998" lon="7.911915">
        <ele>286.598139</ele>
        <time>2021-11-20T17:22:55.881Z</time>
      </trkpt>
      <trkpt lat="47.574566" lon="7.911447">
        <ele>286.141479</ele>
        <time>2021-11-20T17:23:04.205Z</time>
      </trkpt>
      <trkpt lat="47.574901" lon="7.911251">
        <ele>285.932527</ele>
        <time>2021-11-20T17:23:08.891Z</time>
      </trkpt>
      <trkpt lat="47.575508" lon="7.910912">
        <ele>285.734731</ele>
        <time>2021-11-20T17:23:17.519Z</time>
      </trkpt>
      <trkpt lat="47.575539" lon="7.910898">
        <ele>285.724849</ele>
        <time>2021-11-20T17:23:18.030Z</time>
      </trkpt>
      <trkpt lat="47.575854" lon="7.910743">
        <ele>285.623642</ele>
        <time>2021-11-20T17:23:22.535Z</time>
      </trkpt>
      <trkpt lat="47.576932" lon="7.910134">
        <ele>285.561846</ele>
        <time>2021-11-20T17:23:39.521Z</time>
      </trkpt>
      <trkpt lat="47.577424" lon="7.909886">
        <ele>285.718054</ele>
        <time>2021-11-20T17:23:47.676Z</time>
      </trkpt>
      <trkpt lat="47.577771" lon="7.909710">
        <ele>285.828297</ele>
        <time>2021-11-20T17:23:53.768Z</time>
      </trkpt>
      <trkpt lat="47.578895" lon="7.909087">
        <ele>286.292771</ele>
        <time>2021-11-20T17:24:14.458Z</time>
      </trkpt>
      <trkpt lat="47.579056" lon="7.908962">
        <ele>286.372000</ele>
        <time>2021-11-20T17:24:17.923Z</time>
      </trkpt>
      <trkpt lat="47.579708" lon="7.908314">
        <ele>286.714195</ele>
        <time>2021-11-20T17:24:30.836Z</time>
      </trkpt>
      <trkpt lat="47.580105" lon="7.908168">
        <ele>286.484047</ele>
        <time>2021-11-20T17:24:36.585Z</time>
      </trkpt>
      <trkpt lat="47.580194" lon="7.908192">
        <ele>286.415999</ele>
        <time>2021-11-20T17:24:37.750Z</time>
      </trkpt>
      <trkpt lat="47.580422" lon="7.908273">
        <ele>286.239635</ele>
        <time>2021-11-20T17:24:40.879Z</time>
      </trkpt>
      <trkpt lat="47.580470" lon="7.908164">
        <ele>286.173583</ele>
        <time>2021-11-20T17:24:41.868Z</time>
      </trkpt>
      <trkpt lat="47.580552" lon="7.908081">
        <ele>286.098894</ele>
        <time>2021-11-20T17:24:43.235Z</time>
      </trkpt>
      <trkpt lat="47.581568" lon="7.907612">
        <ele>285.311548</ele>
        <time>2021-11-20T17:24:56.093Z</time>
      </trkpt>
      <trkpt lat="47.581793" lon="7.907472">
        <ele>285.154385</ele>
        <time>2021-11-20T17:24:58.865Z</time>
      </trkpt>
      <trkpt lat="47.582248" lon="7.907090">
        <ele>284.817603</ele>
        <time>2021-11-20T17:25:05.078Z</time>
      </trkpt>
      <trkpt lat="47.582657" lon="7.906618">
        <ele>284.483774</ele>
        <time>2021-11-20T17:25:11.711Z</time>
      </trkpt>
      <trkpt lat="47.582951" lon="7.906415">
        <ele>284.274887</ele>
        <time>2021-11-20T17:25:16.639Z</time>
      </trkpt>
      <trkpt lat="47.583077" lon="7.906399">
        <ele>284.328247</ele>
        <time>2021-11-20T17:25:18.518Z</time>
      </trkpt>
      <trkpt lat="47.583245" lon="7.906443">
        <ele>284.610699</ele>
        <time>2021-11-20T17:25:21.932Z</time>
      </trkpt>
      <trkpt lat="47.583451" lon="7.906619">
        <ele>285.004339</ele>
        <time>2021-11-20T17:25:26.473Z</time>
      </trkpt>
      <trkpt lat="47.583711" lon="7.906911">
        <ele>285.544370</ele>
        <time>2021-11-20T17:25:33.215Z</time>
      </trkpt>
      <trkpt lat="47.583887" lon="7.907113">
        <ele>285.912874</ele>
        <time>2021-11-20T17:25:38.198Z</time>
      </trkpt>
      <trkpt lat="47.584719" lon="7.908091">
        <ele>288.130067</ele>
        <time>2021-11-20T17:26:03.820Z</time>
      </trkpt>
      <trkpt lat="47.585084" lon="7.908692">
        <ele>289.931533</ele>
        <time>2021-11-20T17:26:18.507Z</time>
      </trkpt>
      <trkpt lat="47.585149" lon="7.908804">
        <ele>290.260656</ele>
        <time>2021-11-20T17:26:21.462Z</time>
      </trkpt>
      <trkpt lat="47.585222" lon="7.908901">
        <ele>290.584396</ele>
        <time>2021-11-20T17:26:24.624Z</time>
      </trkpt>
      <trkpt lat="47.585337" lon="7.909031">
        <ele>291.061988</ele>
        <time>2021-11-20T17:26:28.803Z</time>
      </trkpt>
      <trkpt lat="47.585078" lon="7.909509">
        <ele>292.427759</ele>
        <time>2021-11-20T17:26:40.841Z</time>
      </trkpt>
      <trkpt lat="47.585045" lon="7.909674">
        <ele>292.811118</ele>
        <time>2021-11-20T17:26:44.254Z</time>
      </trkpt>
      <trkpt lat="47.585051" lon="7.909751">
        <ele>292.983779</ele>
        <time>2021-11-20T17:26:46.111Z</time>
      </trkpt>
      <trkpt lat="47.585066" lon="7.909809">
        <ele>293.122147</ele>
        <time>2021-11-20T17:26:47.390Z</time>
      </trkpt>
      <trkpt lat="47.585093" lon="7.909869">
        <ele>293.330094</ele>
        <time>2021-11-20T17:26:48.723Z</time>
      </trkpt>
      <trkpt lat="47.585157" lon="7.909965">
        <ele>293.737095</ele>
        <time>2021-11-20T17:26:51.100Z</time>
      </trkpt>
      <trkpt lat="47.585271" lon="7.910136">
        <ele>294.462065</ele>
        <time>2021-11-20T17:26:56.071Z</time>
      </trkpt>
      <trkpt lat="47.585430" lon="7.910346">
        <ele>295.414006</ele>
        <time>2021-11-20T17:27:02.993Z</time>
      </trkpt>
      <trkpt lat="47.585610" lon="7.910640">
        <ele>296.611241</ele>
        <time>2021-11-20T17:27:12.622Z</time>
      </trkpt>
      <trkpt lat="47.586028" lon="7.911561">
        <ele>299.958452</ele>
        <time>2021-11-20T17:27:38.702Z</time>
      </trkpt>
      <trkpt lat="47.586263" lon="7.911881">
        <ele>301.295473</ele>
        <time>2021-11-20T17:27:48.958Z</time>
      </trkpt>
      <trkpt lat="47.586433" lon="7.912047">
        <ele>301.788329</ele>
        <time>2021-11-20T17:27:55.536Z</time>
      </trkpt>
      <trkpt lat="47.586622" lon="7.912140">
        <ele>302.270481</ele>
        <time>2021-11-20T17:28:01.258Z</time>
      </trkpt>
      <trkpt lat="47.586917" lon="7.912301">
        <ele>303.031591</ele>
        <time>2021-11-20T17:28:09.115Z</time>
      </trkpt>
      <trkpt lat="47.587725" lon="7.912508">
        <ele>305.016918</ele>
        <time>2021-11-20T17:28:27.810Z</time>
      </trkpt>
      <trkpt lat="47.587897" lon="7.912517">
        <ele>305.433625</ele>
        <time>2021-11-20T17:28:31.367Z</time>
      </trkpt>
      <trkpt lat="47.588907" lon="7.912607">
        <ele>305.850728</ele>
        <time>2021-11-20T17:28:46.823Z</time>
      </trkpt>
      <trkpt lat="47.589326" lon="7.912720">
        <ele>305.985633</ele>
        <time>2021-11-20T17:28:53.162Z</time>
      </trkpt>
      <trkpt lat="47.589873" lon="7.912855">
        <ele>306.228136</ele>
        <time>2021-11-20T17:29:01.662Z</time>
      </trkpt>
      <trkpt lat="47.590231" lon="7.912830">
        <ele>306.503882</ele>
        <time>2021-11-20T17:29:07.386Z</time>
      </trkpt>
      <trkpt lat="47.590570" lon="7.912784">
        <ele>306.765794</ele>
        <time>2021-11-20T17:29:13.507Z</time>
      </trkpt>
      <trkpt lat="47.591044" lon="7.912710">
        <ele>307.132500</ele>
        <time>2021-11-20T17:29:22.580Z</time>
      </trkpt>
      <trkpt lat="47.591348" lon="7.912662">
        <ele>307.367716</ele>
        <time>2021-11-20T17:29:28.661Z</time>
      </trkpt>
      <trkpt lat="47.591443" lon="7.912678">
        <ele>307.441278</ele>
        <time>2021-11-20T17:29:30.240Z</time>
      </trkpt>
      <trkpt lat="47.591605" lon="7.912829">
        <ele>307.662789</ele>
        <time>2021-11-20T17:29:34.484Z</time>
      </trkpt>
      <trkpt lat="47.591714" lon="7.913064">
        <ele>307.932757</ele>
        <time>2021-11-20T17:29:37.790Z</time>
      </trkpt>
      <trkpt lat="47.591721" lon="7.913096">
        <ele>307.964600</ele>
        <time>2021-11-20T17:29:38.176Z</time>
      </trkpt>
      <trkpt lat="47.591746" lon="7.913330">
        <ele>308.188853</ele>
        <time>2021-11-20T17:29:41.901Z</time>
      </trkpt>
      <trkpt lat="47.591809" lon="7.913704">
        <ele>308.553735</ele>
        <time>2021-11-20T17:29:46.119Z</time>
      </trkpt>
      <trkpt lat="47.591858" lon="7.913783">
        <ele>308.655328</ele>
        <time>2021-11-20T17:29:48.031Z</time>
      </trkpt>
      <trkpt lat="47.591953" lon="7.913843">
        <ele>308.800253</ele>
        <time>2021-11-20T17:29:50.028Z</time>
      </trkpt>
      <trkpt lat="47.592496" lon="7.914014">
        <ele>309.579359</ele>
        <time>2021-11-20T17:30:00.983Z</time>
      </trkpt>
      <trkpt lat="47.592589" lon="7.914035">
        <ele>309.711391</ele>
        <time>2021-11-20T17:30:04.004Z</time>
      </trkpt>
      <trkpt lat="47.592672" lon="7.914009">
        <ele>309.830453</ele>
        <time>2021-11-20T17:30:05.666Z</time>
      </trkpt>
      <trkpt lat="47.592807" lon="7.913929">
        <ele>310.041608</ele>
        <time>2021-11-20T17:30:08.129Z</time>
      </trkpt>
      <trkpt lat="47.593189" lon="7.913725">
        <ele>310.957289</ele>
        <time>2021-11-20T17:30:17.572Z</time>
      </trkpt>
      <trkpt lat="47.593511" lon="7.913649">
        <ele>311.692627</ele>
        <time>2021-11-20T17:30:25.506Z</time>
      </trkpt>
      <trkpt lat="47.593654" lon="7.913672">
        <ele>312.017021</ele>
        <time>2021-11-20T17:30:29.250Z</time>
      </trkpt>
      <trkpt lat="47.594163" lon="7.913924">
        <ele>313.227245</ele>
        <time>2021-11-20T17:30:42.405Z</time>
      </trkpt>
      <trkpt lat="47.594719" lon="7.914022">
        <ele>314.403859</ele>
        <time>2021-11-20T17:30:56.248Z</time>
      </trkpt>
      <trkpt lat="47.594871" lon="7.914141">
        <ele>314.710216</ele>
        <time>2021-11-20T17:31:00.225Z</time>
      </trkpt>
      <trkpt lat="47.595031" lon="7.914316">
        <ele>315.064573</ele>
        <time>2021-11-20T17:31:05.099Z</time>
      </trkpt>
      <trkpt lat="47.595292" lon="7.914664">
        <ele>315.690163</ele>
        <time>2021-11-20T17:31:12.726Z</time>
      </trkpt>
      <trkpt lat="47.595476" lon="7.914889">
        <ele>316.115238</ele>
        <time>2021-11-20T17:31:17.812Z</time>
      </trkpt>
      <trkpt lat="47.595688" lon="7.915084">
        <ele>316.559884</ele>
        <time>2021-11-20T17:31:23.245Z</time>
      </trkpt>
      <trkpt lat="47.595861" lon="7.915155">
        <ele>316.879822</ele>
        <time>2021-11-20T17:31:26.765Z</time>
      </trkpt>
      <trkpt lat="47.595909" lon="7.915188">
        <ele>316.974122</ele>
        <time>2021-11-20T17:31:27.848Z</time>
      </trkpt>
      <trkpt lat="47.595949" lon="7.915202">
        <ele>317.047374</ele>
        <time>2021-11-20T17:31:28.780Z</time>
      </trkpt>
      <trkpt lat="47.596117" lon="7.915243">
        <ele>317.320486</ele>
        <time>2021-11-20T17:31:32.375Z</time>
      </trkpt>
      <trkpt lat="47.596349" lon="7.915301">
        <ele>317.546474</ele>
        <time>2021-11-20T17:31:36.806Z</time>
      </trkpt>
      <trkpt lat="47.596736" lon="7.915598">
        <ele>317.965028</ele>
        <time>2021-11-20T17:31:44.644Z</time>
      </trkpt>
      <trkpt lat="47.596850" lon="7.915674">
        <ele>318.085085</ele>
        <time>2021-11-20T17:31:46.633Z</time>
      </trkpt>
      <trkpt lat="47.597083" lon="7.915733">
        <ele>318.312127</ele>
        <time>2021-11-20T17:31:50.765Z</time>
      </trkpt>
      <trkpt lat="47.597656" lon="7.915778">
        <ele>318.863282</ele>
        <time>2021-11-20T17:32:00.939Z</time>
      </trkpt>
      <trkpt lat="47.599120" lon="7.915596">
        <ele>320.525197</ele>
        <time>2021-11-20T17:32:30.910Z</time>
      </trkpt>
      <trkpt lat="47.599374" lon="7.915625">
        <ele>320.818526</ele>
        <time>2021-11-20T17:32:35.622Z</time>
      </trkpt>
      <trkpt lat="47.599906" lon="7.915798">
        <ele>321.238041</ele>
        <time>2021-11-20T17:32:45.448Z</time>
      </trkpt>
      <trkpt lat="47.600078" lon="7.915859">
        <ele>321.324883</ele>
        <time>2021-11-20T17:32:48.512Z</time>
      </trkpt>
      <trkpt lat="47.600344" lon="7.915900">
        <ele>321.456206</ele>
        <time>2021-11-20T17:32:53.003Z</time>
      </trkpt>
      <trkpt lat="47.600545" lon="7.915898">
        <ele>321.554910</ele>
        <time>2021-11-20T17:32:56.468Z</time>
      </trkpt>
      <trkpt lat="47.600689" lon="7.915853">
        <ele>321.627174</ele>
        <time>2021-11-20T17:32:58.797Z</time>
      </trkpt>
      <trkpt lat="47.601054" lon="7.915633">
        <ele>321.820646</ele>
        <time>2021-11-20T17:33:05.214Z</time>
      </trkpt>
      <trkpt lat="47.601546" lon="7.915285">
        <ele>322.144721</ele>
        <time>2021-11-20T17:33:13.619Z</time>
      </trkpt>
      <trkpt lat="47.602131" lon="7.915025">
        <ele>322.583929</ele>
        <time>2021-11-20T17:33:23.303Z</time>
      </trkpt>
      <trkpt lat="47.602754" lon="7.914823">
        <ele>323.042562</ele>
        <time>2021-11-20T17:33:35.123Z</time>
      </trkpt>
      <trkpt lat="47.603302" lon="7.914722">
        <ele>323.636174</ele>
        <time>2021-11-20T17:33:46.260Z</time>
      </trkpt>
      <trkpt lat="47.603466" lon="7.914620">
        <ele>323.904251</ele>
        <time>2021-11-20T17:33:50.175Z</time>
      </trkpt>
      <trkpt lat="47.603615" lon="7.914449">
        <ele>324.188251</ele>
        <time>2021-11-20T17:33:54.126Z</time>
      </trkpt>
      <trkpt lat="47.603884" lon="7.914671">
        <ele>324.652301</ele>
        <time>2021-11-20T17:34:00.836Z</time>
      </trkpt>
      <trkpt lat="47.604062" lon="7.914772">
        <ele>324.939590</ele>
        <time>2021-11-20T17:34:05.037Z</time>
      </trkpt>
      <trkpt lat="47.604393" lon="7.914885">
        <ele>325.451597</ele>
        <time>2021-11-20T17:34:12.044Z</time>
      </trkpt>
      <trkpt lat="47.604722" lon="7.914915">
        <ele>325.948478</ele>
        <time>2021-11-20T17:34:18.678Z</time>
      </trkpt>
      <trkpt lat="47.605105" lon="7.914869">
        <ele>326.444897</ele>
        <time>2021-11-20T17:34:26.578Z</time>
      </trkpt>
      <trkpt lat="47.605408" lon="7.914750">
        <ele>326.847004</ele>
        <time>2021-11-20T17:34:33.243Z</time>
      </trkpt>
      <trkpt lat="47.605648" lon="7.914613">
        <ele>327.176909</ele>
        <time>2021-11-20T17:34:38.610Z</time>
      </trkpt>
      <trkpt lat="47.605929" lon="7.914457">
        <ele>327.561821</ele>
        <time>2021-11-20T17:34:44.526Z</time>
      </trkpt>
      <trkpt lat="47.606200" lon="7.914255">
        <ele>327.950912</ele>
        <time>2021-11-20T17:34:50.347Z</time>
      </trkpt>
      <trkpt lat="47.606450" lon="7.914067">
        <ele>328.308682</ele>
        <time>2021-11-20T17:34:55.611Z</time>
      </trkpt>
      <trkpt lat="47.606558" lon="7.913988">
        <ele>328.454204</ele>
        <time>2021-11-20T17:34:57.811Z</time>
      </trkpt>
      <trkpt lat="47.606706" lon="7.913869">
        <ele>328.657646</ele>
        <time>2021-11-20T17:35:00.944Z</time>
      </trkpt>
      <trkpt lat="47.606938" lon="7.913697">
        <ele>328.971081</ele>
        <time>2021-11-20T17:35:05.765Z</time>
      </trkpt>
      <trkpt lat="47.607292" lon="7.913435">
        <ele>329.449176</ele>
        <time>2021-11-20T17:35:13.389Z</time>
      </trkpt>
      <trkpt lat="47.607663" lon="7.913198">
        <ele>329.937328</ele>
        <time>2021-11-20T17:35:21.640Z</time>
      </trkpt>
      <trkpt lat="47.608679" lon="7.912703">
        <ele>331.380637</ele>
        <time>2021-11-20T17:35:43.792Z</time>
      </trkpt>
      <trkpt lat="47.609914" lon="7.912278">
        <ele>333.143164</ele>
        <time>2021-11-20T17:36:09.822Z</time>
      </trkpt>
      <trkpt lat="47.610416" lon="7.911983">
        <ele>333.598075</ele>
        <time>2021-11-20T17:36:21.051Z</time>
      </trkpt>
      <trkpt lat="47.610827" lon="7.911691">
        <ele>333.982007</ele>
        <time>2021-11-20T17:36:30.203Z</time>
      </trkpt>
      <trkpt lat="47.611260" lon="7.911383">
        <ele>334.386581</ele>
        <time>2021-11-20T17:36:37.695Z</time>
      </trkpt>
      <trkpt lat="47.612029" lon="7.910940">
        <ele>334.204303</ele>
        <time>2021-11-20T17:36:49.087Z</time>
      </trkpt>
      <trkpt lat="47.612005" lon="7.910790">
        <ele>334.143419</ele>
        <time>2021-11-20T17:36:50.394Z</time>
      </trkpt>
      <trkpt lat="47.611994" lon="7.910676">
        <ele>334.097938</ele>
        <time>2021-11-20T17:36:51.476Z</time>
      </trkpt>
      <trkpt lat="47.611988" lon="7.910610">
        <ele>334.071637</ele>
        <time>2021-11-20T17:36:51.993Z</time>
      </trkpt>
      <trkpt lat="47.611981" lon="7.910534">
        <ele>334.041343</ele>
        <time>2021-11-20T17:36:52.636Z</time>
      </trkpt>
      <trkpt lat="47.611986" lon="7.910466">
        <ele>334.014329</ele>
        <time>2021-11-20T17:36:53.367Z</time>
      </trkpt>
      <trkpt lat="47.612020" lon="7.910364">
        <ele>333.969391</ele>
        <time>2021-11-20T17:36:54.368Z</time>
      </trkpt>
      <trkpt lat="47.612082" lon="7.910269">
        <ele>333.917172</ele>
        <time>2021-11-20T17:36:55.535Z</time>
      </trkpt>
      <trkpt lat="47.612131" lon="7.910214">
        <ele>333.881175</ele>
        <time>2021-11-20T17:36:56.330Z</time>
      </trkpt>
      <trkpt lat="47.612216" lon="7.910134">
        <ele>333.822203</ele>
        <time>2021-11-20T17:36:57.577Z</time>
      </trkpt>
      <trkpt lat="47.612283" lon="7.910103">
        <ele>333.781088</ele>
        <time>2021-11-20T17:36:58.590Z</time>
      </trkpt>
      <trkpt lat="47.612897" lon="7.909812">
        <ele>333.283555</ele>
        <time>2021-11-20T17:37:06.560Z</time>
      </trkpt>
      <trkpt lat="47.613280" lon="7.909624">
        <ele>332.782245</ele>
        <time>2021-11-20T17:37:11.138Z</time>
      </trkpt>
      <trkpt lat="47.613360" lon="7.909602">
        <ele>332.681140</ele>
        <time>2021-11-20T17:37:12.068Z</time>
      </trkpt>
      <trkpt lat="47.613934" lon="7.909339">
        <ele>331.934616</ele>
        <time>2021-11-20T17:37:18.919Z</time>
      </trkpt>
      <trkpt lat="47.614063" lon="7.909285">
        <ele>331.768055</ele>
        <time>2021-11-20T17:37:20.540Z</time>
      </trkpt>
      <trkpt lat="47.614412" lon="7.909095">
        <ele>331.306091</ele>
        <time>2021-11-20T17:37:25.075Z</time>
      </trkpt>
      <trkpt lat="47.614784" lon="7.908839">
        <ele>331.111119</ele>
        <time>2021-11-20T17:37:30.284Z</time>
      </trkpt>
      <trkpt lat="47.614876" lon="7.908760">
        <ele>331.065808</ele>
        <time>2021-11-20T17:37:31.697Z</time>
      </trkpt>
      <trkpt lat="47.615085" lon="7.908567">
        <ele>330.960871</ele>
        <time>2021-11-20T17:37:34.840Z</time>
      </trkpt>
      <trkpt lat="47.615246" lon="7.908385">
        <ele>330.874590</ele>
        <time>2021-11-20T17:37:37.542Z</time>
      </trkpt>
      <trkpt lat="47.615374" lon="7.908222">
        <ele>330.802685</ele>
        <time>2021-11-20T17:37:39.658Z</time>
      </trkpt>
      <trkpt lat="47.615460" lon="7.908111">
        <ele>330.754094</ele>
        <time>2021-11-20T17:37:41.176Z</time>
      </trkpt>
      <trkpt lat="47.615669" lon="7.907870">
        <ele>330.641259</ele>
        <time>2021-11-20T17:37:44.735Z</time>
      </trkpt>
      <trkpt lat="47.615821" lon="7.907747">
        <ele>330.567457</ele>
        <time>2021-11-20T17:37:47.192Z</time>
      </trkpt>
      <trkpt lat="47.615946" lon="7.907692">
        <ele>330.511881</ele>
        <time>2021-11-20T17:37:49.002Z</time>
      </trkpt>
      <trkpt lat="47.616009" lon="7.907686">
        <ele>330.591583</ele>
        <time>2021-11-20T17:37:50.217Z</time>
      </trkpt>
      <trkpt lat="47.616124" lon="7.907729">
        <ele>330.768070</ele>
        <time>2021-11-20T17:37:52.232Z</time>
      </trkpt>
      <trkpt lat="47.616604" lon="7.908203">
        <ele>331.626156</ele>
        <time>2021-11-20T17:38:03.661Z</time>
      </trkpt>
      <trkpt lat="47.616832" lon="7.908284">
        <ele>331.975043</ele>
        <time>2021-11-20T17:38:08.795Z</time>
      </trkpt>
      <trkpt lat="47.617086" lon="7.908230">
        <ele>332.356889</ele>
        <time>2021-11-20T17:38:14.461Z</time>
      </trkpt>
      <trkpt lat="47.617238" lon="7.908130">
        <ele>332.604329</ele>
        <time>2021-11-20T17:38:18.012Z</time>
      </trkpt>
      <trkpt lat="47.617957" lon="7.907285">
        <ele>334.829255</ele>
        <time>2021-11-20T17:38:40.110Z</time>
      </trkpt>
      <trkpt lat="47.618470" lon="7.907083">
        <ele>336.485365</ele>
        <time>2021-11-20T17:38:55.418Z</time>
      </trkpt>
      <trkpt lat="47.618579" lon="7.906988">
        <ele>336.879822</ele>
        <time>2021-11-20T17:38:58.733Z</time>
      </trkpt>
      <trkpt lat="47.618719" lon="7.906838">
        <ele>337.418669</ele>
        <time>2021-11-20T17:39:04.347Z</time>
      </trkpt>
      <trkpt lat="47.618867" lon="7.906514">
        <ele>338.241850</ele>
        <time>2021-11-20T17:39:11.380Z</time>
      </trkpt>
      <trkpt lat="47.618888" lon="7.906392">
        <ele>338.506679</ele>
        <time>2021-11-20T17:39:14.570Z</time>
      </trkpt>
      <trkpt lat="47.618920" lon="7.906208">
        <ele>338.908666</ele>
        <time>2021-11-20T17:39:18.413Z</time>
      </trkpt>
      <trkpt lat="47.618976" lon="7.905535">
        <ele>340.365286</ele>
        <time>2021-11-20T17:39:30.638Z</time>
      </trkpt>
      <trkpt lat="47.619155" lon="7.905319">
        <ele>341.100587</ele>
        <time>2021-11-20T17:39:37.910Z</time>
      </trkpt>
      <trkpt lat="47.619299" lon="7.905308">
        <ele>341.560089</ele>
        <time>2021-11-20T17:39:41.172Z</time>
      </trkpt>
      <trkpt lat="47.619447" lon="7.905300">
        <ele>342.032043</ele>
        <time>2021-11-20T17:39:46.273Z</time>
      </trkpt>
      <trkpt lat="47.620426" lon="7.905244">
        <ele>344.942205</ele>
        <time>2021-11-20T17:40:11.955Z</time>
      </trkpt>
      <trkpt lat="47.620699" lon="7.905223">
        <ele>345.517786</ele>
        <time>2021-11-20T17:40:18.410Z</time>
      </trkpt>
      <trkpt lat="47.621107" lon="7.905191">
        <ele>346.378041</ele>
        <time>2021-11-20T17:40:27.982Z</time>
      </trkpt>
      <trkpt lat="47.621248" lon="7.905159">
        <ele>346.678373</ele>
        <time>2021-11-20T17:40:31.218Z</time>
      </trkpt>
      <trkpt lat="47.622235" lon="7.904957">
        <ele>348.566238</ele>
        <time>2021-11-20T17:40:53.295Z</time>
      </trkpt>
      <trkpt lat="47.622424" lon="7.904919">
        <ele>348.784410</ele>
        <time>2021-11-20T17:40:57.331Z</time>
      </trkpt>
      <trkpt lat="47.622648" lon="7.904863">
        <ele>349.044255</ele>
        <time>2021-11-20T17:41:02.114Z</time>
      </trkpt>
      <trkpt lat="47.623650" lon="7.904642">
        <ele>350.203035</ele>
        <time>2021-11-20T17:41:21.145Z</time>
      </trkpt>
      <trkpt lat="47.624120" lon="7.904530">
        <ele>350.402552</ele>
        <time>2021-11-20T17:41:29.173Z</time>
      </trkpt>
      <trkpt lat="47.624263" lon="7.904484">
        <ele>350.415373</ele>
        <time>2021-11-20T17:41:31.363Z</time>
      </trkpt>
      <trkpt lat="47.624399" lon="7.904386">
        <ele>350.428621</ele>
        <time>2021-11-20T17:41:33.615Z</time>
      </trkpt>
      <trkpt lat="47.624451" lon="7.904332">
        <ele>350.434182</ele>
        <time>2021-11-20T17:41:34.592Z</time>
      </trkpt>
      <trkpt lat="47.624472" lon="7.904367">
        <ele>350.436950</ele>
        <time>2021-11-20T17:41:35.011Z</time>
      </trkpt>
      <trkpt lat="47.624565" lon="7.904455">
        <ele>350.446615</ele>
        <time>2021-11-20T17:41:36.602Z</time>
      </trkpt>
      <trkpt lat="47.624761" lon="7.904481">
        <ele>350.463858</ele>
        <time>2021-11-20T17:41:39.382Z</time>
      </trkpt>
      <trkpt lat="47.624956" lon="7.904522">
        <ele>350.481115</ele>
        <time>2021-11-20T17:41:42.095Z</time>
      </trkpt>
      <trkpt lat="47.625088" lon="7.904563">
        <ele>350.492932</ele>
        <time>2021-11-20T17:41:44.062Z</time>
      </trkpt>
      <trkpt lat="47.625516" lon="7.904701">
        <ele>350.531310</ele>
        <time>2021-11-20T17:41:50.464Z</time>
      </trkpt>
      <trkpt lat="47.625742" lon="7.904774">
        <ele>350.652375</ele>
        <time>2021-11-20T17:41:53.710Z</time>
      </trkpt>
      <trkpt lat="47.626086" lon="7.904879">
        <ele>350.837921</ele>
        <time>2021-11-20T17:41:59.252Z</time>
      </trkpt>
      <trkpt lat="47.626221" lon="7.904920">
        <ele>350.910723</ele>
        <time>2021-11-20T17:42:01.515Z</time>
      </trkpt>
      <trkpt lat="47.626399" lon="7.904961">
        <ele>351.005889</ele>
        <time>2021-11-20T17:42:04.463Z</time>
      </trkpt>
      <trkpt lat="47.626440" lon="7.905007">
        <ele>351.033045</ele>
        <time>2021-11-20T17:42:05.159Z</time>
      </trkpt>
      <trkpt lat="47.626505" lon="7.904968">
        <ele>351.070087</ele>
        <time>2021-11-20T17:42:06.498Z</time>
      </trkpt>
      <trkpt lat="47.627067" lon="7.904813">
        <ele>351.372086</ele>
        <time>2021-11-20T17:42:16.692Z</time>
      </trkpt>
      <trkpt lat="47.627287" lon="7.904761">
        <ele>351.503707</ele>
        <time>2021-11-20T17:42:20.966Z</time>
      </trkpt>
      <trkpt lat="47.627467" lon="7.904744">
        <ele>351.764978</ele>
        <time>2021-11-20T17:42:24.568Z</time>
      </trkpt>
      <trkpt lat="47.627955" lon="7.904708">
        <ele>352.472754</ele>
        <time>2021-11-20T17:42:34.585Z</time>
      </trkpt>
      <trkpt lat="47.628650" lon="7.904559">
        <ele>353.489966</ele>
        <time>2021-11-20T17:42:49.118Z</time>
      </trkpt>
      <trkpt lat="47.628975" lon="7.904514">
        <ele>353.962797</ele>
        <time>2021-11-20T17:42:56.230Z</time>
      </trkpt>
      <trkpt lat="47.629110" lon="7.904513">
        <ele>354.148962</ele>
        <time>2021-11-20T17:42:59.069Z</time>
      </trkpt>
      <trkpt lat="47.629147" lon="7.904513">
        <ele>354.195478</ele>
        <time>2021-11-20T17:42:59.840Z</time>
      </trkpt>
      <trkpt lat="47.629371" lon="7.904510">
        <ele>354.477102</ele>
        <time>2021-11-20T17:43:04.653Z</time>
      </trkpt>
      <trkpt lat="47.629718" lon="7.904514">
        <ele>354.913362</ele>
        <time>2021-11-20T17:43:12.233Z</time>
      </trkpt>
      <trkpt lat="47.629946" lon="7.904556">
        <ele>355.202203</ele>
        <time>2021-11-20T17:43:17.256Z</time>
      </trkpt>
      <trkpt lat="47.630445" lon="7.904626">
        <ele>355.832341</ele>
        <time>2021-11-20T17:43:27.252Z</time>
      </trkpt>
      <trkpt lat="47.631006" lon="7.904827">
        <ele>356.422629</ele>
        <time>2021-11-20T17:43:37.123Z</time>
      </trkpt>
      <trkpt lat="47.631413" lon="7.905026">
        <ele>356.613355</ele>
        <time>2021-11-20T17:43:44.166Z</time>
      </trkpt>
      <trkpt lat="47.632152" lon="7.905421">
        <ele>356.962952</ele>
        <time>2021-11-20T17:43:55.825Z</time>
      </trkpt>
      <trkpt lat="47.632494" lon="7.905530">
        <ele>357.118640</ele>
        <time>2021-11-20T17:44:01.832Z</time>
      </trkpt>
      <trkpt lat="47.632636" lon="7.905581">
        <ele>357.298890</ele>
        <time>2021-11-20T17:44:04.523Z</time>
      </trkpt>
      <trkpt lat="47.632631" lon="7.905629">
        <ele>357.361921</ele>
        <time>2021-11-20T17:44:05.176Z</time>
      </trkpt>
      <trkpt lat="47.632676" lon="7.905752">
        <ele>357.543549</ele>
        <time>2021-11-20T17:44:07.200Z</time>
      </trkpt>
      <trkpt lat="47.632707" lon="7.905770">
        <ele>357.607654</ele>
        <time>2021-11-20T17:44:07.815Z</time>
      </trkpt>
      <trkpt lat="47.632706" lon="7.905872">
        <ele>357.740037</ele>
        <time>2021-11-20T17:44:09.016Z</time>
      </trkpt>
      <trkpt lat="47.632715" lon="7.906284">
        <ele>358.274982</ele>
        <time>2021-11-20T17:44:14.543Z</time>
      </trkpt>
      <trkpt lat="47.632729" lon="7.906470">
        <ele>358.517860</ele>
        <time>2021-11-20T17:44:17.094Z</time>
      </trkpt>
      <trkpt lat="47.632761" lon="7.906666">
        <ele>358.779573</ele>
        <time>2021-11-20T17:44:20.155Z</time>
      </trkpt>
      <trkpt lat="47.632805" lon="7.906819">
        <ele>358.995450</ele>
        <time>2021-11-20T17:44:22.622Z</time>
      </trkpt>
      <trkpt lat="47.632832" lon="7.906880">
        <ele>359.090160</ele>
        <time>2021-11-20T17:44:23.699Z</time>
      </trkpt>
      <trkpt lat="47.632986" lon="7.907145">
        <ele>359.544271</ele>
        <time>2021-11-20T17:44:29.495Z</time>
      </trkpt>
      <trkpt lat="47.633159" lon="7.907454">
        <ele>360.065606</ele>
        <time>2021-11-20T17:44:36.209Z</time>
      </trkpt>
      <trkpt lat="47.633215" lon="7.907615">
        <ele>360.300728</ele>
        <time>2021-11-20T17:44:39.341Z</time>
      </trkpt>
      <trkpt lat="47.633350" lon="7.907844">
        <ele>360.727178</ele>
        <time>2021-11-20T17:44:45.136Z</time>
      </trkpt>
      <trkpt lat="47.633703" lon="7.908224">
        <ele>361.887570</ele>
        <time>2021-11-20T17:44:57.279Z</time>
      </trkpt>
      <trkpt lat="47.634255" lon="7.909080">
        <ele>364.011980</ele>
        <time>2021-11-20T17:45:18.068Z</time>
      </trkpt>
      <trkpt lat="47.634288" lon="7.909241">
        <ele>364.313719</ele>
        <time>2021-11-20T17:45:21.149Z</time>
      </trkpt>
      <trkpt lat="47.634340" lon="7.909465">
        <ele>364.738526</ele>
        <time>2021-11-20T17:45:24.866Z</time>
      </trkpt>
      <trkpt lat="47.634573" lon="7.910034">
        <ele>365.887391</ele>
        <time>2021-11-20T17:45:34.724Z</time>
      </trkpt>
      <trkpt lat="47.634747" lon="7.910263">
        <ele>366.454068</ele>
        <time>2021-11-20T17:45:40.077Z</time>
      </trkpt>
      <trkpt lat="47.635022" lon="7.910544">
        <ele>367.267612</ele>
        <time>2021-11-20T17:45:47.858Z</time>
      </trkpt>
      <trkpt lat="47.635189" lon="7.910745">
        <ele>367.791532</ele>
        <time>2021-11-20T17:45:52.959Z</time>
      </trkpt>
      <trkpt lat="47.635549" lon="7.911051">
        <ele>368.802403</ele>
        <time>2021-11-20T17:46:02.873Z</time>
      </trkpt>
      <trkpt lat="47.636072" lon="7.911368">
        <ele>370.743978</ele>
        <time>2021-11-20T17:46:17.617Z</time>
      </trkpt>
      <trkpt lat="47.636435" lon="7.911560">
        <ele>373.017157</ele>
        <time>2021-11-20T17:46:29.277Z</time>
      </trkpt>
      <trkpt lat="47.636948" lon="7.911886">
        <ele>376.308972</ele>
        <time>2021-11-20T17:46:48.836Z</time>
      </trkpt>
      <trkpt lat="47.637200" lon="7.912228">
        <ele>378.323291</ele>
        <time>2021-11-20T17:47:04.872Z</time>
      </trkpt>
      <trkpt lat="47.637358" lon="7.912526">
        <ele>379.830467</ele>
        <time>2021-11-20T17:47:18.424Z</time>
      </trkpt>
      <trkpt lat="47.637499" lon="7.912845">
        <ele>382.064563</ele>
        <time>2021-11-20T17:47:29.538Z</time>
      </trkpt>
      <trkpt lat="47.637608" lon="7.913197">
        <ele>384.760496</ele>
        <time>2021-11-20T17:47:44.355Z</time>
      </trkpt>
      <trkpt lat="47.637710" lon="7.913454">
        <ele>386.836200</ele>
        <time>2021-11-20T17:47:56.910Z</time>
      </trkpt>
      <trkpt lat="47.637792" lon="7.913603">
        <ele>388.175017</ele>
        <time>2021-11-20T17:48:02.993Z</time>
      </trkpt>
      <trkpt lat="47.637897" lon="7.913737">
        <ele>389.605270</ele>
        <time>2021-11-20T17:48:09.885Z</time>
      </trkpt>
      <trkpt lat="47.637924" lon="7.913766">
        <ele>389.949494</ele>
        <time>2021-11-20T17:48:13.442Z</time>
      </trkpt>
      <trkpt lat="47.638182" lon="7.913951">
        <ele>392.908842</ele>
        <time>2021-11-20T17:48:27.681Z</time>
      </trkpt>
      <trkpt lat="47.639028" lon="7.914042">
        <ele>401.025951</ele>
        <time>2021-11-20T17:49:21.637Z</time>
      </trkpt>
      <trkpt lat="47.640116" lon="7.914684">
        <ele>410.239177</ele>
        <time>2021-11-20T17:50:15.128Z</time>
      </trkpt>
      <trkpt lat="47.640371" lon="7.914816">
        <ele>412.364295</ele>
        <time>2021-11-20T17:50:25.582Z</time>
      </trkpt>
      <trkpt lat="47.640458" lon="7.914847">
        <ele>413.068343</ele>
        <time>2021-11-20T17:50:28.030Z</time>
      </trkpt>
      <trkpt lat="47.641318" lon="7.915094">
        <ele>417.406753</ele>
        <time>2021-11-20T17:50:56.076Z</time>
      </trkpt>
      <trkpt lat="47.642325" lon="7.915266">
        <ele>422.679871</ele>
        <time>2021-11-20T17:51:29.660Z</time>
      </trkpt>
      <trkpt lat="47.642731" lon="7.915448">
        <ele>426.156615</ele>
        <time>2021-11-20T17:51:47.536Z</time>
      </trkpt>
      <trkpt lat="47.642870" lon="7.915569">
        <ele>427.477613</ele>
        <time>2021-11-20T17:51:55.379Z</time>
      </trkpt>
      <trkpt lat="47.643279" lon="7.916085">
        <ele>431.878043</ele>
        <time>2021-11-20T17:52:23.545Z</time>
      </trkpt>
      <trkpt lat="47.644938" lon="7.919218">
        <ele>452.838575</ele>
        <time>2021-11-20T17:54:43.787Z</time>
      </trkpt>
      <trkpt lat="47.645182" lon="7.919653">
        <ele>453.288311</ele>
        <time>2021-11-20T17:54:48.505Z</time>
      </trkpt>
      <trkpt lat="47.645987" lon="7.921187">
        <ele>454.520588</ele>
        <time>2021-11-20T17:55:04.210Z</time>
      </trkpt>
      <trkpt lat="47.646634" lon="7.922408">
        <ele>454.000287</ele>
        <time>2021-11-20T17:55:16.784Z</time>
      </trkpt>
      <trkpt lat="47.647046" lon="7.922963">
        <ele>453.723684</ele>
        <time>2021-11-20T17:55:27.017Z</time>
      </trkpt>
      <trkpt lat="47.647351" lon="7.923183">
        <ele>453.540898</ele>
        <time>2021-11-20T17:55:33.630Z</time>
      </trkpt>
      <trkpt lat="47.647717" lon="7.923261">
        <ele>453.341159</ele>
        <time>2021-11-20T17:55:39.167Z</time>
      </trkpt>
      <trkpt lat="47.648027" lon="7.923200">
        <ele>453.172232</ele>
        <time>2021-11-20T17:55:42.931Z</time>
      </trkpt>
      <trkpt lat="47.648365" lon="7.923062">
        <ele>452.982865</ele>
        <time>2021-11-20T17:55:46.919Z</time>
      </trkpt>
      <trkpt lat="47.648728" lon="7.922896">
        <ele>452.777679</ele>
        <time>2021-11-20T17:55:51.418Z</time>
      </trkpt>
      <trkpt lat="47.649254" lon="7.922829">
        <ele>452.430194</ele>
        <time>2021-11-20T17:55:57.814Z</time>
      </trkpt>
      <trkpt lat="47.649720" lon="7.923045">
        <ele>452.102043</ele>
        <time>2021-11-20T17:56:03.922Z</time>
      </trkpt>
      <trkpt lat="47.650236" lon="7.923592">
        <ele>451.675837</ele>
        <time>2021-11-20T17:56:18.653Z</time>
      </trkpt>
      <trkpt lat="47.651037" lon="7.924774">
        <ele>446.657642</ele>
        <time>2021-11-20T17:56:29.781Z</time>
      </trkpt>
      <trkpt lat="47.651591" lon="7.925265">
        <ele>443.253306</ele>
        <time>2021-11-20T17:56:35.529Z</time>
      </trkpt>
      <trkpt lat="47.651739" lon="7.925340">
        <ele>442.428185</ele>
        <time>2021-11-20T17:56:36.868Z</time>
      </trkpt>
      <trkpt lat="47.651929" lon="7.925397">
        <ele>441.301146</ele>
        <time>2021-11-20T17:56:38.663Z</time>
      </trkpt>
      <trkpt lat="47.652047" lon="7.925420">
        <ele>440.571365</ele>
        <time>2021-11-20T17:56:39.675Z</time>
      </trkpt>
      <trkpt lat="47.652233" lon="7.925431">
        <ele>439.429918</ele>
        <time>2021-11-20T17:56:41.375Z</time>
      </trkpt>
      <trkpt lat="47.653024" lon="7.925288">
        <ele>434.543710</ele>
        <time>2021-11-20T17:56:48.481Z</time>
      </trkpt>
      <trkpt lat="47.653581" lon="7.925107">
        <ele>431.047344</ele>
        <time>2021-11-20T17:56:53.787Z</time>
      </trkpt>
      <trkpt lat="47.654279" lon="7.924881">
        <ele>431.768699</ele>
        <time>2021-11-20T17:57:04.771Z</time>
      </trkpt>
      <trkpt lat="47.654906" lon="7.924601">
        <ele>432.459958</ele>
        <time>2021-11-20T17:57:20.133Z</time>
      </trkpt>
      <trkpt lat="47.655151" lon="7.924422">
        <ele>432.748245</ele>
        <time>2021-11-20T17:57:28.714Z</time>
      </trkpt>
      <trkpt lat="47.655711" lon="7.923884">
        <ele>434.499119</ele>
        <time>2021-11-20T17:57:48.285Z</time>
      </trkpt>
      <trkpt lat="47.656362" lon="7.923194">
        <ele>436.998037</ele>
        <time>2021-11-20T17:58:15.209Z</time>
      </trkpt>
      <trkpt lat="47.656739" lon="7.922791">
        <ele>438.449365</ele>
        <time>2021-11-20T17:58:26.925Z</time>
      </trkpt>
      <trkpt lat="47.658112" lon="7.921407">
        <ele>444.238987</ele>
        <time>2021-11-20T17:59:05.928Z</time>
      </trkpt>
      <trkpt lat="47.658657" lon="7.921194">
        <ele>449.646088</ele>
        <time>2021-11-20T17:59:32.058Z</time>
      </trkpt>
      <trkpt lat="47.658858" lon="7.921199">
        <ele>452.092299</ele>
        <time>2021-11-20T17:59:47.686Z</time>
      </trkpt>
      <trkpt lat="47.659029" lon="7.921261">
        <ele>454.234262</ele>
        <time>2021-11-20T17:59:57.206Z</time>
      </trkpt>
      <trkpt lat="47.659217" lon="7.921381">
        <ele>456.724397</ele>
        <time>2021-11-20T18:00:14.406Z</time>
      </trkpt>
      <trkpt lat="47.659701" lon="7.921971">
        <ele>464.344751</ele>
        <time>2021-11-20T18:01:00.680Z</time>
      </trkpt>
      <trkpt lat="47.659910" lon="7.922282">
        <ele>467.517032</ele>
        <time>2021-11-20T18:01:19.761Z</time>
      </trkpt>
      <trkpt lat="47.659929" lon="7.922307">
        <ele>467.718809</ele>
        <time>2021-11-20T18:01:22.494Z</time>
      </trkpt>
      <trkpt lat="47.660292" lon="7.922894">
        <ele>471.984676</ele>
        <time>2021-11-20T18:01:59.176Z</time>
      </trkpt>
      <trkpt lat="47.660396" lon="7.923005">
        <ele>473.002664</ele>
        <time>2021-11-20T18:02:05.112Z</time>
      </trkpt>
      <trkpt lat="47.660468" lon="7.923082">
        <ele>473.707906</ele>
        <time>2021-11-20T18:02:10.489Z</time>
      </trkpt>
      <trkpt lat="47.660747" lon="7.923380">
        <ele>476.439542</ele>
        <time>2021-11-20T18:02:24.557Z</time>
      </trkpt>
      <trkpt lat="47.660834" lon="7.923426">
        <ele>477.173544</ele>
        <time>2021-11-20T18:02:29.680Z</time>
      </trkpt>
      <trkpt lat="47.660904" lon="7.923464">
        <ele>477.765917</ele>
        <time>2021-11-20T18:02:30.379Z</time>
      </trkpt>
      <trkpt lat="47.661134" lon="7.923485">
        <ele>479.597383</ele>
        <time>2021-11-20T18:02:39.523Z</time>
      </trkpt>
      <trkpt lat="47.662115" lon="7.923074">
        <ele>482.007904</ele>
        <time>2021-11-20T18:02:51.324Z</time>
      </trkpt>
      <trkpt lat="47.662612" lon="7.923016">
        <ele>482.601203</ele>
        <time>2021-11-20T18:02:59.319Z</time>
      </trkpt>
      <trkpt lat="47.663384" lon="7.923222">
        <ele>485.334849</ele>
        <time>2021-11-20T18:03:23.161Z</time>
      </trkpt>
      <trkpt lat="47.663955" lon="7.923493">
        <ele>489.354758</ele>
        <time>2021-11-20T18:03:47.758Z</time>
      </trkpt>
      <trkpt lat="47.664119" lon="7.923631">
        <ele>490.618844</ele>
        <time>2021-11-20T18:03:56.408Z</time>
      </trkpt>
      <trkpt lat="47.664217" lon="7.923800">
        <ele>491.626031</ele>
        <time>2021-11-20T18:04:03.629Z</time>
      </trkpt>
      <trkpt lat="47.664271" lon="7.923990">
        <ele>492.557395</ele>
        <time>2021-11-20T18:04:10.198Z</time>
      </trkpt>
      <trkpt lat="47.664341" lon="7.924749">
        <ele>496.246912</ele>
        <time>2021-11-20T18:04:35.770Z</time>
      </trkpt>
      <trkpt lat="47.664453" lon="7.925255">
        <ele>499.334998</ele>
        <time>2021-11-20T18:04:53.365Z</time>
      </trkpt>
      <trkpt lat="47.664876" lon="7.926151">
        <ele>505.679061</ele>
        <time>2021-11-20T18:05:31.636Z</time>
      </trkpt>
      <trkpt lat="47.665028" lon="7.926702">
        <ele>509.131246</ele>
        <time>2021-11-20T18:05:51.048Z</time>
      </trkpt>
      <trkpt lat="47.665032" lon="7.927025">
        <ele>510.892761</ele>
        <time>2021-11-20T18:06:00.696Z</time>
      </trkpt>
      <trkpt lat="47.665082" lon="7.927476">
        <ele>512.596511</ele>
        <time>2021-11-20T18:06:15.474Z</time>
      </trkpt>
      <trkpt lat="47.665198" lon="7.927921">
        <ele>514.375190</ele>
        <time>2021-11-20T18:06:29.522Z</time>
      </trkpt>
      <trkpt lat="47.665461" lon="7.928374">
        <ele>516.604600</ele>
        <time>2021-11-20T18:06:45.084Z</time>
      </trkpt>
      <trkpt lat="47.665953" lon="7.928730">
        <ele>519.633882</ele>
        <time>2021-11-20T18:07:03.345Z</time>
      </trkpt>
      <trkpt lat="47.666448" lon="7.928809">
        <ele>520.808015</ele>
        <time>2021-11-20T18:07:14.993Z</time>
      </trkpt>
      <trkpt lat="47.667200" lon="7.929115">
        <ele>521.206066</ele>
        <time>2021-11-20T18:07:26.352Z</time>
      </trkpt>
      <trkpt lat="47.668004" lon="7.929010">
        <ele>521.839549</ele>
        <time>2021-11-20T18:07:36.422Z</time>
      </trkpt>
      <trkpt lat="47.668532" lon="7.929025">
        <ele>523.245320</ele>
        <time>2021-11-20T18:07:45.673Z</time>
      </trkpt>
      <trkpt lat="47.668846" lon="7.929117">
        <ele>524.097289</ele>
        <time>2021-11-20T18:07:52.941Z</time>
      </trkpt>
      <trkpt lat="47.669031" lon="7.929241">
        <ele>524.637593</ele>
        <time>2021-11-20T18:07:58.309Z</time>
      </trkpt>
      <trkpt lat="47.669146" lon="7.929397">
        <ele>525.052218</ele>
        <time>2021-11-20T18:08:02.878Z</time>
      </trkpt>
      <trkpt lat="47.669590" lon="7.930439">
        <ele>529.421108</ele>
        <time>2021-11-20T18:08:33.737Z</time>
      </trkpt>
      <trkpt lat="47.669570" lon="7.930755">
        <ele>531.340844</ele>
        <time>2021-11-20T18:08:43.502Z</time>
      </trkpt>
      <trkpt lat="47.669441" lon="7.931090">
        <ele>533.674970</ele>
        <time>2021-11-20T18:08:56.733Z</time>
      </trkpt>
      <trkpt lat="47.669272" lon="7.931348">
        <ele>535.851972</ele>
        <time>2021-11-20T18:09:10.102Z</time>
      </trkpt>
      <trkpt lat="47.669127" lon="7.931800">
        <ele>538.880259</ele>
        <time>2021-11-20T18:09:29.330Z</time>
      </trkpt>
      <trkpt lat="47.669112" lon="7.931963">
        <ele>539.875330</ele>
        <time>2021-11-20T18:09:35.765Z</time>
      </trkpt>
      <trkpt lat="47.669211" lon="7.932726">
        <ele>544.763061</ele>
        <time>2021-11-20T18:10:07.044Z</time>
      </trkpt>
      <trkpt lat="47.669188" lon="7.932920">
        <ele>546.062812</ele>
        <time>2021-11-20T18:10:15.373Z</time>
      </trkpt>
      <trkpt lat="47.668442" lon="7.933935">
        <ele>555.976592</ele>
        <time>2021-11-20T18:11:15.849Z</time>
      </trkpt>
      <trkpt lat="47.668325" lon="7.934682">
        <ele>560.106334</ele>
        <time>2021-11-20T18:11:39.296Z</time>
      </trkpt>
      <trkpt lat="47.668387" lon="7.934959">
        <ele>560.050965</ele>
        <time>2021-11-20T18:11:46.109Z</time>
      </trkpt>
      <trkpt lat="47.668592" lon="7.935334">
        <ele>559.959346</ele>
        <time>2021-11-20T18:11:54.392Z</time>
      </trkpt>
      <trkpt lat="47.668947" lon="7.935809">
        <ele>559.824747</ele>
        <time>2021-11-20T18:12:00.652Z</time>
      </trkpt>
      <trkpt lat="47.669430" lon="7.936199">
        <ele>559.669886</ele>
        <time>2021-11-20T18:12:06.022Z</time>
      </trkpt>
      <trkpt lat="47.669799" lon="7.936367">
        <ele>558.510389</ele>
        <time>2021-11-20T18:12:09.527Z</time>
      </trkpt>
      <trkpt lat="47.670025" lon="7.936399">
        <ele>557.405294</ele>
        <time>2021-11-20T18:12:11.539Z</time>
      </trkpt>
      <trkpt lat="47.670414" lon="7.936157">
        <ele>555.352307</ele>
        <time>2021-11-20T18:12:15.287Z</time>
      </trkpt>
      <trkpt lat="47.671190" lon="7.935463">
        <ele>550.942853</ele>
        <time>2021-11-20T18:12:23.879Z</time>
      </trkpt>
      <trkpt lat="47.671327" lon="7.935416">
        <ele>551.450762</ele>
        <time>2021-11-20T18:12:25.761Z</time>
      </trkpt>
      <trkpt lat="47.672138" lon="7.935624">
        <ele>555.249634</ele>
        <time>2021-11-20T18:12:47.498Z</time>
      </trkpt>
      <trkpt lat="47.672322" lon="7.935662">
        <ele>556.107124</ele>
        <time>2021-11-20T18:12:55.416Z</time>
      </trkpt>
      <trkpt lat="47.672762" lon="7.935838">
        <ele>558.210480</ele>
        <time>2021-11-20T18:13:16.618Z</time>
      </trkpt>
      <trkpt lat="47.672959" lon="7.936014">
        <ele>559.371140</ele>
        <time>2021-11-20T18:13:29.167Z</time>
      </trkpt>
      <trkpt lat="47.673226" lon="7.936447">
        <ele>563.030088</ele>
        <time>2021-11-20T18:13:52.285Z</time>
      </trkpt>
      <trkpt lat="47.673283" lon="7.936676">
        <ele>564.551586</ele>
        <time>2021-11-20T18:14:01.564Z</time>
      </trkpt>
      <trkpt lat="47.673293" lon="7.937182">
        <ele>567.706308</ele>
        <time>2021-11-20T18:14:22.608Z</time>
      </trkpt>
      <trkpt lat="47.673607" lon="7.938439">
        <ele>575.956357</ele>
        <time>2021-11-20T18:15:06.716Z</time>
      </trkpt>
      <trkpt lat="47.673811" lon="7.939034">
        <ele>578.311595</ele>
        <time>2021-11-20T18:15:24.870Z</time>
      </trkpt>
      <trkpt lat="47.674075" lon="7.940165">
        <ele>582.534024</ele>
        <time>2021-11-20T18:15:52.060Z</time>
      </trkpt>
      <trkpt lat="47.674329" lon="7.940584">
        <ele>584.522731</ele>
        <time>2021-11-20T18:16:03.463Z</time>
      </trkpt>
      <trkpt lat="47.674806" lon="7.940908">
        <ele>586.860876</ele>
        <time>2021-11-20T18:16:19.334Z</time>
      </trkpt>
      <trkpt lat="47.674964" lon="7.941099">
        <ele>587.712640</ele>
        <time>2021-11-20T18:16:25.902Z</time>
      </trkpt>
      <trkpt lat="47.675080" lon="7.941709">
        <ele>589.497072</ele>
        <time>2021-11-20T18:16:39.786Z</time>
      </trkpt>
      <trkpt lat="47.675658" lon="7.942963">
        <ele>593.120588</ele>
        <time>2021-11-20T18:17:13.809Z</time>
      </trkpt>
      <trkpt lat="47.676169" lon="7.943767">
        <ele>594.222831</ele>
        <time>2021-11-20T18:17:30.489Z</time>
      </trkpt>
      <trkpt lat="47.676520" lon="7.944024">
        <ele>594.802262</ele>
        <time>2021-11-20T18:17:34.768Z</time>
      </trkpt>
      <trkpt lat="47.677134" lon="7.944147">
        <ele>596.643752</ele>
        <time>2021-11-20T18:17:43.505Z</time>
      </trkpt>
      <trkpt lat="47.677405" lon="7.944339">
        <ele>598.481936</ele>
        <time>2021-11-20T18:17:52.348Z</time>
      </trkpt>
      <trkpt lat="47.677580" lon="7.944493">
        <ele>599.727239</ele>
        <time>2021-11-20T18:17:59.639Z</time>
      </trkpt>
      <trkpt lat="47.677695" lon="7.944598">
        <ele>600.553675</ele>
        <time>2021-11-20T18:18:03.813Z</time>
      </trkpt>
      <trkpt lat="47.677787" lon="7.944717">
        <ele>601.300559</ele>
        <time>2021-11-20T18:18:07.588Z</time>
      </trkpt>
      <trkpt lat="47.677870" lon="7.944836">
        <ele>602.006821</ele>
        <time>2021-11-20T18:18:13.701Z</time>
      </trkpt>
      <trkpt lat="47.677979" lon="7.945039">
        <ele>603.077087</ele>
        <time>2021-11-20T18:18:20.023Z</time>
      </trkpt>
      <trkpt lat="47.678059" lon="7.945260">
        <ele>604.111356</ele>
        <time>2021-11-20T18:18:28.858Z</time>
      </trkpt>
      <trkpt lat="47.678272" lon="7.945810">
        <ele>607.090489</ele>
        <time>2021-11-20T18:18:52.567Z</time>
      </trkpt>
      <trkpt lat="47.678532" lon="7.946285">
        <ele>612.773997</ele>
        <time>2021-11-20T18:19:21.277Z</time>
      </trkpt>
      <trkpt lat="47.679039" lon="7.946924">
        <ele>621.943121</ele>
        <time>2021-11-20T18:20:17.642Z</time>
      </trkpt>
      <trkpt lat="47.679161" lon="7.947269">
        <ele>625.561068</ele>
        <time>2021-11-20T18:20:38.255Z</time>
      </trkpt>
      <trkpt lat="47.679193" lon="7.947707">
        <ele>629.651387</ele>
        <time>2021-11-20T18:20:58.099Z</time>
      </trkpt>
      <trkpt lat="47.679160" lon="7.948063">
        <ele>632.047695</ele>
        <time>2021-11-20T18:21:12.380Z</time>
      </trkpt>
      <trkpt lat="47.678867" lon="7.949157">
        <ele>637.104720</ele>
        <time>2021-11-20T18:21:47.855Z</time>
      </trkpt>
      <trkpt lat="47.678870" lon="7.949371">
        <ele>638.024086</ele>
        <time>2021-11-20T18:21:53.610Z</time>
      </trkpt>
      <trkpt lat="47.678933" lon="7.949621">
        <ele>639.170627</ele>
        <time>2021-11-20T18:21:58.453Z</time>
      </trkpt>
      <trkpt lat="47.679106" lon="7.949881">
        <ele>640.740701</ele>
        <time>2021-11-20T18:22:05.938Z</time>
      </trkpt>
      <trkpt lat="47.679335" lon="7.950032">
        <ele>642.339085</ele>
        <time>2021-11-20T18:22:11.261Z</time>
      </trkpt>
      <trkpt lat="47.679838" lon="7.949972">
        <ele>644.698917</ele>
        <time>2021-11-20T18:22:25.164Z</time>
      </trkpt>
      <trkpt lat="47.680004" lon="7.950039">
        <ele>645.464896</ele>
        <time>2021-11-20T18:22:27.510Z</time>
      </trkpt>
      <trkpt lat="47.680050" lon="7.950068">
        <ele>645.687415</ele>
        <time>2021-11-20T18:22:30.636Z</time>
      </trkpt>
      <trkpt lat="47.680401" lon="7.950233">
        <ele>647.326777</ele>
        <time>2021-11-20T18:22:41.578Z</time>
      </trkpt>
      <trkpt lat="47.680994" lon="7.949972">
        <ele>650.080812</ele>
        <time>2021-11-20T18:23:02.073Z</time>
      </trkpt>
      <trkpt lat="47.681269" lon="7.949958">
        <ele>651.961370</ele>
        <time>2021-11-20T18:23:14.960Z</time>
      </trkpt>
      <trkpt lat="47.681640" lon="7.950075">
        <ele>655.544404</ele>
        <time>2021-11-20T18:23:34.051Z</time>
      </trkpt>
      <trkpt lat="47.682090" lon="7.950374">
        <ele>660.201606</ele>
        <time>2021-11-20T18:24:01.774Z</time>
      </trkpt>
      <trkpt lat="47.682819" lon="7.951452">
        <ele>669.574202</ele>
        <time>2021-11-20T18:25:00.497Z</time>
      </trkpt>
      <trkpt lat="47.682901" lon="7.951614">
        <ele>670.661411</ele>
        <time>2021-11-20T18:25:07.809Z</time>
      </trkpt>
      <trkpt lat="47.683101" lon="7.952864">
        <ele>677.553357</ele>
        <time>2021-11-20T18:25:51.441Z</time>
      </trkpt>
      <trkpt lat="47.682987" lon="7.954268">
        <ele>682.088530</ele>
        <time>2021-11-20T18:26:26.423Z</time>
      </trkpt>
      <trkpt lat="47.683031" lon="7.955033">
        <ele>682.146382</ele>
        <time>2021-11-20T18:26:36.146Z</time>
      </trkpt>
      <trkpt lat="47.683202" lon="7.955269">
        <ele>682.172506</ele>
        <time>2021-11-20T18:26:38.818Z</time>
      </trkpt>
      <trkpt lat="47.683646" lon="7.955496">
        <ele>682.225060</ele>
        <time>2021-11-20T18:26:43.710Z</time>
      </trkpt>
      <trkpt lat="47.684063" lon="7.955823">
        <ele>680.987329</ele>
        <time>2021-11-20T18:26:48.274Z</time>
      </trkpt>
      <trkpt lat="47.684765" lon="7.956489">
        <ele>677.256642</ele>
        <time>2021-11-20T18:26:56.014Z</time>
      </trkpt>
      <trkpt lat="47.684972" lon="7.956698">
        <ele>676.135638</ele>
        <time>2021-11-20T18:26:58.332Z</time>
      </trkpt>
      <trkpt lat="47.685487" lon="7.957674">
        <ele>674.353890</ele>
        <time>2021-11-20T18:27:06.589Z</time>
      </trkpt>
      <trkpt lat="47.685650" lon="7.957856">
        <ele>674.437015</ele>
        <time>2021-11-20T18:27:08.823Z</time>
      </trkpt>
      <trkpt lat="47.685757" lon="7.957977">
        <ele>674.491835</ele>
        <time>2021-11-20T18:27:12.014Z</time>
      </trkpt>
      <trkpt lat="47.686078" lon="7.958416">
        <ele>674.669704</ele>
        <time>2021-11-20T18:27:20.233Z</time>
      </trkpt>
      <trkpt lat="47.686267" lon="7.958674">
        <ele>674.774341</ele>
        <time>2021-11-20T18:27:26.860Z</time>
      </trkpt>
      <trkpt lat="47.686322" lon="7.959069">
        <ele>674.885034</ele>
        <time>2021-11-20T18:27:32.589Z</time>
      </trkpt>
      <trkpt lat="47.686313" lon="7.959134">
        <ele>674.903245</ele>
        <time>2021-11-20T18:27:34.081Z</time>
      </trkpt>
      <trkpt lat="47.686306" lon="7.959188">
        <ele>674.918337</ele>
        <time>2021-11-20T18:27:36.815Z</time>
      </trkpt>
      <trkpt lat="47.686157" lon="7.959572">
        <ele>676.461244</ele>
        <time>2021-11-20T18:27:44.940Z</time>
      </trkpt>
      <trkpt lat="47.685564" lon="7.960446">
        <ele>680.968952</ele>
        <time>2021-11-20T18:28:18.390Z</time>
      </trkpt>
      <trkpt lat="47.685443" lon="7.960713">
        <ele>682.138166</ele>
        <time>2021-11-20T18:28:25.720Z</time>
      </trkpt>
      <trkpt lat="47.685420" lon="7.961006">
        <ele>683.209748</ele>
        <time>2021-11-20T18:28:35.247Z</time>
      </trkpt>
      <trkpt lat="47.685390" lon="7.961394">
        <ele>684.628488</ele>
        <time>2021-11-20T18:28:44.563Z</time>
      </trkpt>
      <trkpt lat="47.685456" lon="7.961658">
        <ele>685.534907</ele>
        <time>2021-11-20T18:28:51.457Z</time>
      </trkpt>
      <trkpt lat="47.686057" lon="7.962663">
        <ele>689.861010</ele>
        <time>2021-11-20T18:29:23.972Z</time>
      </trkpt>
      <trkpt lat="47.686423" lon="7.962749">
        <ele>691.632420</ele>
        <time>2021-11-20T18:29:36.142Z</time>
      </trkpt>
      <trkpt lat="47.686871" lon="7.963038">
        <ele>693.691292</ele>
        <time>2021-11-20T18:29:50.236Z</time>
      </trkpt>
      <trkpt lat="47.687384" lon="7.963233">
        <ele>695.277785</ele>
        <time>2021-11-20T18:30:04.580Z</time>
      </trkpt>
      <trkpt lat="47.687588" lon="7.963379">
        <ele>695.956213</ele>
        <time>2021-11-20T18:30:10.364Z</time>
      </trkpt>
      <trkpt lat="47.687714" lon="7.963694">
        <ele>696.695216</ele>
        <time>2021-11-20T18:30:16.959Z</time>
      </trkpt>
      <trkpt lat="47.687755" lon="7.963954">
        <ele>697.233793</ele>
        <time>2021-11-20T18:30:21.639Z</time>
      </trkpt>
      <trkpt lat="47.687685" lon="7.964928">
        <ele>699.043301</ele>
        <time>2021-11-20T18:30:38.769Z</time>
      </trkpt>
      <trkpt lat="47.687735" lon="7.965229">
        <ele>699.493378</ele>
        <time>2021-11-20T18:30:43.966Z</time>
      </trkpt>
      <trkpt lat="47.687853" lon="7.965356">
        <ele>699.807620</ele>
        <time>2021-11-20T18:30:47.124Z</time>
      </trkpt>
      <trkpt lat="47.689020" lon="7.965804">
        <ele>702.406988</ele>
        <time>2021-11-20T18:31:14.081Z</time>
      </trkpt>
      <trkpt lat="47.689444" lon="7.966643">
        <ele>703.530634</ele>
        <time>2021-11-20T18:31:31.224Z</time>
      </trkpt>
      <trkpt lat="47.689579" lon="7.967340">
        <ele>704.290381</ele>
        <time>2021-11-20T18:31:42.470Z</time>
      </trkpt>
      <trkpt lat="47.689679" lon="7.967572">
        <ele>704.578959</ele>
        <time>2021-11-20T18:31:46.496Z</time>
      </trkpt>
      <trkpt lat="47.689846" lon="7.967646">
        <ele>704.850152</ele>
        <time>2021-11-20T18:31:49.889Z</time>
      </trkpt>
      <trkpt lat="47.690222" lon="7.967595">
        <ele>705.204452</ele>
        <time>2021-11-20T18:31:57.300Z</time>
      </trkpt>
      <trkpt lat="47.690757" lon="7.967781">
        <ele>704.666523</ele>
        <time>2021-11-20T18:32:03.640Z</time>
      </trkpt>
      <trkpt lat="47.691140" lon="7.968259">
        <ele>704.176800</ele>
        <time>2021-11-20T18:32:09.110Z</time>
      </trkpt>
      <trkpt lat="47.691339" lon="7.968413">
        <ele>703.957126</ele>
        <time>2021-11-20T18:32:12.618Z</time>
      </trkpt>
      <trkpt lat="47.691407" lon="7.968432">
        <ele>703.889386</ele>
        <time>2021-11-20T18:32:14.103Z</time>
      </trkpt>
      <trkpt lat="47.691511" lon="7.968453">
        <ele>703.786631</ele>
        <time>2021-11-20T18:32:15.062Z</time>
      </trkpt>
      <trkpt lat="47.691593" lon="7.968453">
        <ele>703.706351</ele>
        <time>2021-11-20T18:32:16.017Z</time>
      </trkpt>
      <trkpt lat="47.691708" lon="7.968429">
        <ele>703.592658</ele>
        <time>2021-11-20T18:32:18.423Z</time>
      </trkpt>
      <trkpt lat="47.692072" lon="7.968377">
        <ele>703.035001</ele>
        <time>2021-11-20T18:32:22.835Z</time>
      </trkpt>
      <trkpt lat="47.692229" lon="7.968446">
        <ele>702.767666</ele>
        <time>2021-11-20T18:32:24.501Z</time>
      </trkpt>
      <trkpt lat="47.692460" lon="7.968663">
        <ele>702.321408</ele>
        <time>2021-11-20T18:32:29.430Z</time>
      </trkpt>
      <trkpt lat="47.692486" lon="7.968697">
        <ele>702.264851</ele>
        <time>2021-11-20T18:32:29.717Z</time>
      </trkpt>
      <trkpt lat="47.692535" lon="7.968764">
        <ele>702.156114</ele>
        <time>2021-11-20T18:32:30.552Z</time>
      </trkpt>
      <trkpt lat="47.692583" lon="7.968865">
        <ele>702.020229</ele>
        <time>2021-11-20T18:32:31.503Z</time>
      </trkpt>
      <trkpt lat="47.692622" lon="7.968949">
        <ele>701.908075</ele>
        <time>2021-11-20T18:32:33.832Z</time>
      </trkpt>
      <trkpt lat="47.692708" lon="7.969591">
        <ele>701.188641</ele>
        <time>2021-11-20T18:32:38.348Z</time>
      </trkpt>
      <trkpt lat="47.692792" lon="7.969848">
        <ele>700.874643</ele>
        <time>2021-11-20T18:32:40.163Z</time>
      </trkpt>
      <trkpt lat="47.693367" lon="7.970554">
        <ele>699.999012</ele>
        <time>2021-11-20T18:32:49.092Z</time>
      </trkpt>
      <trkpt lat="47.693470" lon="7.970657">
        <ele>699.870113</ele>
        <time>2021-11-20T18:32:52.900Z</time>
      </trkpt>
      <trkpt lat="47.693559" lon="7.970717">
        <ele>699.768648</ele>
        <time>2021-11-20T18:32:53.784Z</time>
      </trkpt>
      <trkpt lat="47.693868" lon="7.970838">
        <ele>699.436898</ele>
        <time>2021-11-20T18:32:57.400Z</time>
      </trkpt>
      <trkpt lat="47.694129" lon="7.971181">
        <ele>699.075140</ele>
        <time>2021-11-20T18:33:02.211Z</time>
      </trkpt>
      <trkpt lat="47.694401" lon="7.971915">
        <ele>699.221861</ele>
        <time>2021-11-20T18:33:09.837Z</time>
      </trkpt>
      <trkpt lat="47.694470" lon="7.972512">
        <ele>700.090946</ele>
        <time>2021-11-20T18:33:17.066Z</time>
      </trkpt>
      <trkpt lat="47.694476" lon="7.972883">
        <ele>700.623393</ele>
        <time>2021-11-20T18:33:24.102Z</time>
      </trkpt>
      <trkpt lat="47.694490" lon="7.973151">
        <ele>701.009064</ele>
        <time>2021-11-20T18:33:30.114Z</time>
      </trkpt>
      <trkpt lat="47.694555" lon="7.973622">
        <ele>701.698891</ele>
        <time>2021-11-20T18:33:39.156Z</time>
      </trkpt>
      <trkpt lat="47.694780" lon="7.974343">
        <ele>702.567854</ele>
        <time>2021-11-20T18:33:53.735Z</time>
      </trkpt>
      <trkpt lat="47.694953" lon="7.974863">
        <ele>702.581089</ele>
        <time>2021-11-20T18:34:04.242Z</time>
      </trkpt>
      <trkpt lat="47.695374" lon="7.976086">
        <ele>702.612433</ele>
        <time>2021-11-20T18:34:17.469Z</time>
      </trkpt>
      <trkpt lat="47.695600" lon="7.976718">
        <ele>702.080827</ele>
        <time>2021-11-20T18:34:22.425Z</time>
      </trkpt>
      <trkpt lat="47.695701" lon="7.977005">
        <ele>701.150446</ele>
        <time>2021-11-20T18:34:24.517Z</time>
      </trkpt>
      <trkpt lat="47.695740" lon="7.977103">
        <ele>700.823387</ele>
        <time>2021-11-20T18:34:25.241Z</time>
      </trkpt>
      <trkpt lat="47.696003" lon="7.977710">
        <ele>698.749555</ele>
        <time>2021-11-20T18:34:29.820Z</time>
      </trkpt>
      <trkpt lat="47.696246" lon="7.978205">
        <ele>696.989494</ele>
        <time>2021-11-20T18:34:33.686Z</time>
      </trkpt>
      <trkpt lat="47.696406" lon="7.978512">
        <ele>695.874076</ele>
        <time>2021-11-20T18:34:36.182Z</time>
      </trkpt>
      <trkpt lat="47.696681" lon="7.979051">
        <ele>694.665179</ele>
        <time>2021-11-20T18:34:40.593Z</time>
      </trkpt>
      <trkpt lat="47.696734" lon="7.979156">
        <ele>694.560442</ele>
        <time>2021-11-20T18:34:41.474Z</time>
      </trkpt>
      <trkpt lat="47.696827" lon="7.979332">
        <ele>694.381880</ele>
        <time>2021-11-20T18:34:43.004Z</time>
      </trkpt>
      <trkpt lat="47.696892" lon="7.979453">
        <ele>694.258336</ele>
        <time>2021-11-20T18:34:44.060Z</time>
      </trkpt>
      <trkpt lat="47.697264" lon="7.979031">
        <ele>693.703411</ele>
        <time>2021-11-20T18:34:49.107Z</time>
      </trkpt>
      <trkpt lat="47.697413" lon="7.978891">
        <ele>693.494388</ele>
        <time>2021-11-20T18:34:51.224Z</time>
      </trkpt>
      <trkpt lat="47.697868" lon="7.978418">
        <ele>692.835981</ele>
        <time>2021-11-20T18:35:01.231Z</time>
      </trkpt>
      <trkpt lat="47.698021" lon="7.978140">
        <ele>694.477516</ele>
        <time>2021-11-20T18:35:07.602Z</time>
      </trkpt>
      <trkpt lat="47.698097" lon="7.977882">
        <ele>695.884482</ele>
        <time>2021-11-20T18:35:14.901Z</time>
      </trkpt>
      <trkpt lat="47.698122" lon="7.977643">
        <ele>697.092813</ele>
        <time>2021-11-20T18:35:21.292Z</time>
      </trkpt>
      <trkpt lat="47.698076" lon="7.977417">
        <ele>698.272366</ele>
        <time>2021-11-20T18:35:28.920Z</time>
      </trkpt>
      <trkpt lat="47.698026" lon="7.977287">
        <ele>699.020387</ele>
        <time>2021-11-20T18:35:32.331Z</time>
      </trkpt>
      <trkpt lat="47.698180" lon="7.977111">
        <ele>700.462537</ele>
        <time>2021-11-20T18:35:44.538Z</time>
      </trkpt>
      <trkpt lat="47.698602" lon="7.976877">
        <ele>703.805976</ele>
        <time>2021-11-20T18:36:08.413Z</time>
      </trkpt>
      <trkpt lat="47.698801" lon="7.976756">
        <ele>705.402010</ele>
        <time>2021-11-20T18:36:20.948Z</time>
      </trkpt>
      <trkpt lat="47.698861" lon="7.976719">
        <ele>705.884211</ele>
        <time>2021-11-20T18:36:26.626Z</time>
      </trkpt>
      <trkpt lat="47.699721" lon="7.976314">
        <ele>715.635487</ele>
        <time>2021-11-20T18:37:28.289Z</time>
      </trkpt>
      <trkpt lat="47.700679" lon="7.976399">
        <ele>726.049634</ele>
        <time>2021-11-20T18:38:29.682Z</time>
      </trkpt>
      <trkpt lat="47.700862" lon="7.976347">
        <ele>727.340729</ele>
        <time>2021-11-20T18:38:41.316Z</time>
      </trkpt>
      <trkpt lat="47.701154" lon="7.976085">
        <ele>729.704471</ele>
        <time>2021-11-20T18:38:59.200Z</time>
      </trkpt>
      <trkpt lat="47.701381" lon="7.975905">
        <ele>731.487461</ele>
        <time>2021-11-20T18:39:11.537Z</time>
      </trkpt>
      <trkpt lat="47.704298" lon="7.974453">
        <ele>749.703300</ele>
        <time>2021-11-20T18:41:18.992Z</time>
      </trkpt>
      <trkpt lat="47.704603" lon="7.974227">
        <ele>751.820375</ele>
        <time>2021-11-20T18:41:33.800Z</time>
      </trkpt>
      <trkpt lat="47.704849" lon="7.973944">
        <ele>753.752881</ele>
        <time>2021-11-20T18:41:47.677Z</time>
      </trkpt>
      <trkpt lat="47.706481" lon="7.972890">
        <ele>765.490142</ele>
        <time>2021-11-20T18:43:12.474Z</time>
      </trkpt>
      <trkpt lat="47.707253" lon="7.972612">
        <ele>771.013526</ele>
        <time>2021-11-20T18:43:50.522Z</time>
      </trkpt>
      <trkpt lat="47.707407" lon="7.972482">
        <ele>772.332716</ele>
        <time>2021-11-20T18:43:59.361Z</time>
      </trkpt>
      <trkpt lat="47.707980" lon="7.971650">
        <ele>778.645589</ele>
        <time>2021-11-20T18:44:38.940Z</time>
      </trkpt>
      <trkpt lat="47.708469" lon="7.970931">
        <ele>784.066330</ele>
        <time>2021-11-20T18:45:17.084Z</time>
      </trkpt>
      <trkpt lat="47.708761" lon="7.970448">
        <ele>787.463569</ele>
        <time>2021-11-20T18:45:39.966Z</time>
      </trkpt>
      <trkpt lat="47.708992" lon="7.970100">
        <ele>789.987793</ele>
        <time>2021-11-20T18:45:57.499Z</time>
      </trkpt>
      <trkpt lat="47.709416" lon="7.969309">
        <ele>795.209933</ele>
        <time>2021-11-20T18:46:33.807Z</time>
      </trkpt>
      <trkpt lat="47.709846" lon="7.967024">
        <ele>805.050208</ele>
        <time>2021-11-20T18:47:47.091Z</time>
      </trkpt>
      <trkpt lat="47.710065" lon="7.966179">
        <ele>808.298284</ele>
        <time>2021-11-20T18:48:07.553Z</time>
      </trkpt>
      <trkpt lat="47.711205" lon="7.964340">
        <ele>817.213931</ele>
        <time>2021-11-20T18:49:13.102Z</time>
      </trkpt>
      <trkpt lat="47.711370" lon="7.964048">
        <ele>818.572653</ele>
        <time>2021-11-20T18:49:23.186Z</time>
      </trkpt>
      <trkpt lat="47.711400" lon="7.963917">
        <ele>819.418606</ele>
        <time>2021-11-20T18:49:29.859Z</time>
      </trkpt>
      <trkpt lat="47.711477" lon="7.962123">
        <ele>831.639434</ele>
        <time>2021-11-20T18:50:40.096Z</time>
      </trkpt>
      <trkpt lat="47.711522" lon="7.960431">
        <ele>844.856913</ele>
        <time>2021-11-20T18:52:02.672Z</time>
      </trkpt>
      <trkpt lat="47.711553" lon="7.959556">
        <ele>852.426144</ele>
        <time>2021-11-20T18:52:42.880Z</time>
      </trkpt>
      <trkpt lat="47.711533" lon="7.957426">
        <ele>869.754014</ele>
        <time>2021-11-20T18:54:15.740Z</time>
      </trkpt>
      <trkpt lat="47.711324" lon="7.956351">
        <ele>878.466685</ele>
        <time>2021-11-20T18:54:59.782Z</time>
      </trkpt>
      <trkpt lat="47.711319" lon="7.956257">
        <ele>879.200881</ele>
        <time>2021-11-20T18:55:04.510Z</time>
      </trkpt>
      <trkpt lat="47.711322" lon="7.955373">
        <ele>884.977723</ele>
        <time>2021-11-20T18:55:37.290Z</time>
      </trkpt>
      <trkpt lat="47.711336" lon="7.954605">
        <ele>889.717864</ele>
        <time>2021-11-20T18:56:04.336Z</time>
      </trkpt>
      <trkpt lat="47.711339" lon="7.954361">
        <ele>891.223546</ele>
        <time>2021-11-20T18:56:12.855Z</time>
      </trkpt>
      <trkpt lat="47.711505" lon="7.953546">
        <ele>896.477250</ele>
        <time>2021-11-20T18:56:40.294Z</time>
      </trkpt>
      <trkpt lat="47.711533" lon="7.952566">
        <ele>901.518620</ele>
        <time>2021-11-20T18:57:10.499Z</time>
      </trkpt>
      <trkpt lat="47.711620" lon="7.952168">
        <ele>903.606546</ele>
        <time>2021-11-20T18:57:23.174Z</time>
      </trkpt>
      <trkpt lat="47.712047" lon="7.951521">
        <ele>908.128247</ele>
        <time>2021-11-20T18:57:47.832Z</time>
      </trkpt>
      <trkpt lat="47.712563" lon="7.951143">
        <ele>912.746790</ele>
        <time>2021-11-20T18:58:13.627Z</time>
      </trkpt>
      <trkpt lat="47.712818" lon="7.950761">
        <ele>915.955033</ele>
        <time>2021-11-20T18:58:31.103Z</time>
      </trkpt>
      <trkpt lat="47.712813" lon="7.950344">
        <ele>918.441635</ele>
        <time>2021-11-20T18:58:45.255Z</time>
      </trkpt>
      <trkpt lat="47.712906" lon="7.949853">
        <ele>921.482817</ele>
        <time>2021-11-20T18:59:02.823Z</time>
      </trkpt>
      <trkpt lat="47.712913" lon="7.949353">
        <ele>924.464521</ele>
        <time>2021-11-20T18:59:20.192Z</time>
      </trkpt>
      <trkpt lat="47.712872" lon="7.948155">
        <ele>932.471091</ele>
        <time>2021-11-20T19:00:06.179Z</time>
      </trkpt>
      <trkpt lat="47.712769" lon="7.947288">
        <ele>938.600999</ele>
        <time>2021-11-20T19:00:40.604Z</time>
      </trkpt>
      <trkpt lat="47.712751" lon="7.947005">
        <ele>940.580188</ele>
        <time>2021-11-20T19:00:52.178Z</time>
      </trkpt>
      <trkpt lat="47.712697" lon="7.946127">
        <ele>946.219011</ele>
        <time>2021-11-20T19:01:26.177Z</time>
      </trkpt>
      <trkpt lat="47.712551" lon="7.945335">
        <ele>950.132521</ele>
        <time>2021-11-20T19:01:51.028Z</time>
      </trkpt>
      <trkpt lat="47.712322" lon="7.944483">
        <ele>954.504865</ele>
        <time>2021-11-20T19:02:16.701Z</time>
      </trkpt>
      <trkpt lat="47.712346" lon="7.944164">
        <ele>956.034598</ele>
        <time>2021-11-20T19:02:25.349Z</time>
      </trkpt>
      <trkpt lat="47.712390" lon="7.944023">
        <ele>956.775312</ele>
        <time>2021-11-20T19:02:29.357Z</time>
      </trkpt>
      <trkpt lat="47.712465" lon="7.943782">
        <ele>957.971763</ele>
        <time>2021-11-20T19:02:36.759Z</time>
      </trkpt>
      <trkpt lat="47.712707" lon="7.942891">
        <ele>960.653237</ele>
        <time>2021-11-20T19:03:03.493Z</time>
      </trkpt>
      <trkpt lat="47.712992" lon="7.941874">
        <ele>963.727709</ele>
        <time>2021-11-20T19:03:27.498Z</time>
      </trkpt>
      <trkpt lat="47.712975" lon="7.941711">
        <ele>964.188025</ele>
        <time>2021-11-20T19:03:34.678Z</time>
      </trkpt>
      <trkpt lat="47.712911" lon="7.941506">
        <ele>964.818702</ele>
        <time>2021-11-20T19:03:37.389Z</time>
      </trkpt>
      <trkpt lat="47.712739" lon="7.941267">
        <ele>965.571543</ele>
        <time>2021-11-20T19:03:47.093Z</time>
      </trkpt>
      <trkpt lat="47.712608" lon="7.941245">
        <ele>965.852887</ele>
        <time>2021-11-20T19:03:49.453Z</time>
      </trkpt>
      <trkpt lat="47.712523" lon="7.941303">
        <ele>966.052489</ele>
        <time>2021-11-20T19:03:51.577Z</time>
      </trkpt>
      <trkpt lat="47.712504" lon="7.941339">
        <ele>966.118187</ele>
        <time>2021-11-20T19:03:55.085Z</time>
      </trkpt>
      <trkpt lat="47.712426" lon="7.942081">
        <ele>967.196564</ele>
        <time>2021-11-20T19:04:10.321Z</time>
      </trkpt>
      <trkpt lat="47.712374" lon="7.942320">
        <ele>967.557245</ele>
        <time>2021-11-20T19:04:13.559Z</time>
      </trkpt>
      <trkpt lat="47.712212" lon="7.942625">
        <ele>968.115214</ele>
        <time>2021-11-20T19:04:22.524Z</time>
      </trkpt>
      <trkpt lat="47.711894" lon="7.942884">
        <ele>968.889077</ele>
        <time>2021-11-20T19:04:31.611Z</time>
      </trkpt>
      <trkpt lat="47.710678" lon="7.942757">
        <ele>969.632155</ele>
        <time>2021-11-20T19:04:55.636Z</time>
      </trkpt>
      <trkpt lat="47.710556" lon="7.942722">
        <ele>969.684707</ele>
        <time>2021-11-20T19:04:59.437Z</time>
      </trkpt>
      <trkpt lat="47.710310" lon="7.942625">
        <ele>969.792352</ele>
        <time>2021-11-20T19:05:04.325Z</time>
      </trkpt>
      <trkpt lat="47.710142" lon="7.942555">
        <ele>969.866147</ele>
        <time>2021-11-20T19:05:08.889Z</time>
      </trkpt>
      <trkpt lat="47.709759" lon="7.942400">
        <ele>970.179675</ele>
        <time>2021-11-20T19:05:17.983Z</time>
      </trkpt>
      <trkpt lat="47.708828" lon="7.942124">
        <ele>971.163138</ele>
        <time>2021-11-20T19:05:40.452Z</time>
      </trkpt>
      <trkpt lat="47.707829" lon="7.941636">
        <ele>972.100384</ele>
        <time>2021-11-20T19:06:07.502Z</time>
      </trkpt>
      <trkpt lat="47.707408" lon="7.941789">
        <ele>972.399470</ele>
        <time>2021-11-20T19:06:19.227Z</time>
      </trkpt>
      <trkpt lat="47.706473" lon="7.941985">
        <ele>972.940691</ele>
        <time>2021-11-20T19:06:40.331Z</time>
      </trkpt>
      <trkpt lat="47.706121" lon="7.942270">
        <ele>970.875115</ele>
        <time>2021-11-20T19:06:46.971Z</time>
      </trkpt>
      <trkpt lat="47.705976" lon="7.942499">
        <ele>969.784784</ele>
        <time>2021-11-20T19:06:50.164Z</time>
      </trkpt>
      <trkpt lat="47.705628" lon="7.943572">
        <ele>965.654483</ele>
        <time>2021-11-20T19:07:00.877Z</time>
      </trkpt>
      <trkpt lat="47.704901" lon="7.944746">
        <ele>955.452060</ele>
        <time>2021-11-20T19:07:13.848Z</time>
      </trkpt>
      <trkpt lat="47.704823" lon="7.944833">
        <ele>954.306087</ele>
        <time>2021-11-20T19:07:14.975Z</time>
      </trkpt>
      <trkpt lat="47.704758" lon="7.944914">
        <ele>953.309311</ele>
        <time>2021-11-20T19:07:16.018Z</time>
      </trkpt>
      <trkpt lat="47.704606" lon="7.945040">
        <ele>951.264181</ele>
        <time>2021-11-20T19:07:18.124Z</time>
      </trkpt>
      <trkpt lat="47.704409" lon="7.945185">
        <ele>948.680995</ele>
        <time>2021-11-20T19:07:20.728Z</time>
      </trkpt>
      <trkpt lat="47.704156" lon="7.945400">
        <ele>945.256404</ele>
        <time>2021-11-20T19:07:24.173Z</time>
      </trkpt>
      <trkpt lat="47.703881" lon="7.945655">
        <ele>941.493195</ele>
        <time>2021-11-20T19:07:27.986Z</time>
      </trkpt>
      <trkpt lat="47.703750" lon="7.945728">
        <ele>939.912376</ele>
        <time>2021-11-20T19:07:29.690Z</time>
      </trkpt>
      <trkpt lat="47.703711" lon="7.945750">
        <ele>939.441033</ele>
        <time>2021-11-20T19:07:30.175Z</time>
      </trkpt>
      <trkpt lat="47.703500" lon="7.945784">
        <ele>937.042979</ele>
        <time>2021-11-20T19:07:32.672Z</time>
      </trkpt>
      <trkpt lat="47.703263" lon="7.945743">
        <ele>934.347042</ele>
        <time>2021-11-20T19:07:35.534Z</time>
      </trkpt>
      <trkpt lat="47.703045" lon="7.945547">
        <ele>931.468087</ele>
        <time>2021-11-20T19:07:38.616Z</time>
      </trkpt>
      <trkpt lat="47.702671" lon="7.944989">
        <ele>925.479735</ele>
        <time>2021-11-20T19:07:45.040Z</time>
      </trkpt>
      <trkpt lat="47.702168" lon="7.944169">
        <ele>918.163655</ele>
        <time>2021-11-20T19:07:54.199Z</time>
      </trkpt>
      <trkpt lat="47.701593" lon="7.943585">
        <ele>911.967707</ele>
        <time>2021-11-20T19:08:02.762Z</time>
      </trkpt>
      <trkpt lat="47.701403" lon="7.943300">
        <ele>909.565977</ele>
        <time>2021-11-20T19:08:06.172Z</time>
      </trkpt>
      <trkpt lat="47.701186" lon="7.942857">
        <ele>906.292310</ele>
        <time>2021-11-20T19:08:10.804Z</time>
      </trkpt>
      <trkpt lat="47.701126" lon="7.942642">
        <ele>905.254712</ele>
        <time>2021-11-20T19:08:12.736Z</time>
      </trkpt>
      <trkpt lat="47.700969" lon="7.942249">
        <ele>903.217314</ele>
        <time>2021-11-20T19:08:16.700Z</time>
      </trkpt>
      <trkpt lat="47.700851" lon="7.942139">
        <ele>902.294587</ele>
        <time>2021-11-20T19:08:18.526Z</time>
      </trkpt>
      <trkpt lat="47.700375" lon="7.942045">
        <ele>899.113819</ele>
        <time>2021-11-20T19:08:24.808Z</time>
      </trkpt>
      <trkpt lat="47.700263" lon="7.941997">
        <ele>898.341683</ele>
        <time>2021-11-20T19:08:26.261Z</time>
      </trkpt>
      <trkpt lat="47.700169" lon="7.941956">
        <ele>897.692750</ele>
        <time>2021-11-20T19:08:27.545Z</time>
      </trkpt>
      <trkpt lat="47.699802" lon="7.941597">
        <ele>894.782202</ele>
        <time>2021-11-20T19:08:33.407Z</time>
      </trkpt>
      <trkpt lat="47.699630" lon="7.941359">
        <ele>893.234864</ele>
        <time>2021-11-20T19:08:36.473Z</time>
      </trkpt>
      <trkpt lat="47.699124" lon="7.940916">
        <ele>889.376175</ele>
        <time>2021-11-20T19:08:44.187Z</time>
      </trkpt>
      <trkpt lat="47.698930" lon="7.940661">
        <ele>887.674392</ele>
        <time>2021-11-20T19:08:47.502Z</time>
      </trkpt>
      <trkpt lat="47.698793" lon="7.940482">
        <ele>886.475767</ele>
        <time>2021-11-20T19:08:49.916Z</time>
      </trkpt>
      <trkpt lat="47.698713" lon="7.940377">
        <ele>885.774453</ele>
        <time>2021-11-20T19:08:51.252Z</time>
      </trkpt>
      <trkpt lat="47.698605" lon="7.940221">
        <ele>884.784833</ele>
        <time>2021-11-20T19:08:53.278Z</time>
      </trkpt>
      <trkpt lat="47.698460" lon="7.940011">
        <ele>883.454462</ele>
        <time>2021-11-20T19:08:55.801Z</time>
      </trkpt>
      <trkpt lat="47.698268" lon="7.939586">
        <ele>881.213688</ele>
        <time>2021-11-20T19:09:00.158Z</time>
      </trkpt>
      <trkpt lat="47.698275" lon="7.938934">
        <ele>878.377258</ele>
        <time>2021-11-20T19:09:05.746Z</time>
      </trkpt>
      <trkpt lat="47.698310" lon="7.938460">
        <ele>876.303083</ele>
        <time>2021-11-20T19:09:09.884Z</time>
      </trkpt>
      <trkpt lat="47.698356" lon="7.938139">
        <ele>874.875500</ele>
        <time>2021-11-20T19:09:12.794Z</time>
      </trkpt>
      <trkpt lat="47.698358" lon="7.937738">
        <ele>873.131185</ele>
        <time>2021-11-20T19:09:16.248Z</time>
      </trkpt>
      <trkpt lat="47.698295" lon="7.937074">
        <ele>870.661763</ele>
        <time>2021-11-20T19:09:22.335Z</time>
      </trkpt>
      <trkpt lat="47.698093" lon="7.936249">
        <ele>869.147747</ele>
        <time>2021-11-20T19:09:30.448Z</time>
      </trkpt>
      <trkpt lat="47.697993" lon="7.936025">
        <ele>868.684179</ele>
        <time>2021-11-20T19:09:33.577Z</time>
      </trkpt>
      <trkpt lat="47.697891" lon="7.935836">
        <ele>868.266381</ele>
        <time>2021-11-20T19:09:35.943Z</time>
      </trkpt>
      <trkpt lat="47.697767" lon="7.935579">
        <ele>867.721033</ele>
        <time>2021-11-20T19:09:39.814Z</time>
      </trkpt>
      <trkpt lat="47.697749" lon="7.935532">
        <ele>867.627772</ele>
        <time>2021-11-20T19:09:40.353Z</time>
      </trkpt>
      <trkpt lat="47.697512" lon="7.934916">
        <ele>866.404084</ele>
        <time>2021-11-20T19:09:48.978Z</time>
      </trkpt>
      <trkpt lat="47.697348" lon="7.934299">
        <ele>866.754269</ele>
        <time>2021-11-20T19:09:58.251Z</time>
      </trkpt>
      <trkpt lat="47.697299" lon="7.934080">
        <ele>866.903489</ele>
        <time>2021-11-20T19:10:01.557Z</time>
      </trkpt>
      <trkpt lat="47.697263" lon="7.933941">
        <ele>866.999788</ele>
        <time>2021-11-20T19:10:03.774Z</time>
      </trkpt>
      <trkpt lat="47.697214" lon="7.933494">
        <ele>867.292619</ele>
        <time>2021-11-20T19:10:11.567Z</time>
      </trkpt>
      <trkpt lat="47.697210" lon="7.933241">
        <ele>867.456249</ele>
        <time>2021-11-20T19:10:16.532Z</time>
      </trkpt>
      <trkpt lat="47.697200" lon="7.932937">
        <ele>867.653044</ele>
        <time>2021-11-20T19:10:22.383Z</time>
      </trkpt>
      <trkpt lat="47.697198" lon="7.932744">
        <ele>867.777849</ele>
        <time>2021-11-20T19:10:26.137Z</time>
      </trkpt>
      <trkpt lat="47.697198" lon="7.932720">
        <ele>867.793367</ele>
        <time>2021-11-20T19:10:26.564Z</time>
      </trkpt>
      <trkpt lat="47.697277" lon="7.932711">
        <ele>867.869483</ele>
        <time>2021-11-20T19:10:28.328Z</time>
      </trkpt>
      <trkpt lat="47.697338" lon="7.932686">
        <ele>867.930273</ele>
        <time>2021-11-20T19:10:29.712Z</time>
      </trkpt>
      <trkpt lat="47.697436" lon="7.932606">
        <ele>868.037693</ele>
        <time>2021-11-20T19:10:32.349Z</time>
      </trkpt>
      <trkpt lat="47.697623" lon="7.932380">
        <ele>868.059976</ele>
        <time>2021-11-20T19:10:37.015Z</time>
      </trkpt>
      <trkpt lat="47.697982" lon="7.932184">
        <ele>868.032111</ele>
        <time>2021-11-20T19:10:43.744Z</time>
      </trkpt>
      <trkpt lat="47.698184" lon="7.932113">
        <ele>868.016988</ele>
        <time>2021-11-20T19:10:46.752Z</time>
      </trkpt>
      <trkpt lat="47.698213" lon="7.932100">
        <ele>868.014782</ele>
        <time>2021-11-20T19:10:47.185Z</time>
      </trkpt>
      <trkpt lat="47.698295" lon="7.932064">
        <ele>868.008552</ele>
        <time>2021-11-20T19:10:48.515Z</time>
      </trkpt>
      <trkpt lat="47.698697" lon="7.931952">
        <ele>867.978754</ele>
        <time>2021-11-20T19:10:53.651Z</time>
      </trkpt>
      <trkpt lat="47.698719" lon="7.931946">
        <ele>867.977124</ele>
        <time>2021-11-20T19:10:53.907Z</time>
      </trkpt>
      <trkpt lat="47.698997" lon="7.931826">
        <ele>867.956033</ele>
        <time>2021-11-20T19:10:57.553Z</time>
      </trkpt>
      <trkpt lat="47.699097" lon="7.931601">
        <ele>867.956400</ele>
        <time>2021-11-20T19:10:59.562Z</time>
      </trkpt>
      <trkpt lat="47.699099" lon="7.931593">
        <ele>867.962468</ele>
        <time>2021-11-20T19:10:59.617Z</time>
      </trkpt>
      <trkpt lat="47.699167" lon="7.931228">
        <ele>868.231717</ele>
        <time>2021-11-20T19:11:02.795Z</time>
      </trkpt>
      <trkpt lat="47.699179" lon="7.931046">
        <ele>868.361727</ele>
        <time>2021-11-20T19:11:04.175Z</time>
      </trkpt>
      <trkpt lat="47.699174" lon="7.930935">
        <ele>868.440817</ele>
        <time>2021-11-20T19:11:05.226Z</time>
      </trkpt>
      <trkpt lat="47.699166" lon="7.930830">
        <ele>868.515942</ele>
        <time>2021-11-20T19:11:06.217Z</time>
      </trkpt>
      <trkpt lat="47.699125" lon="7.930694">
        <ele>868.621886</ele>
        <time>2021-11-20T19:11:07.411Z</time>
      </trkpt>
      <trkpt lat="47.699067" lon="7.930598">
        <ele>868.713601</ele>
        <time>2021-11-20T19:11:08.449Z</time>
      </trkpt>
      <trkpt lat="47.699061" lon="7.930593">
        <ele>868.720868</ele>
        <time>2021-11-20T19:11:08.524Z</time>
      </trkpt>
      <trkpt lat="47.698916" lon="7.930485">
        <ele>868.892203</ele>
        <time>2021-11-20T19:11:11.612Z</time>
      </trkpt>
      <trkpt lat="47.698856" lon="7.930473">
        <ele>868.956155</ele>
        <time>2021-11-20T19:11:12.448Z</time>
      </trkpt>
      <trkpt lat="47.698539" lon="7.930409">
        <ele>869.294089</ele>
        <time>2021-11-20T19:11:19.146Z</time>
      </trkpt>
      <trkpt lat="47.698390" lon="7.930344">
        <ele>869.458125</ele>
        <time>2021-11-20T19:11:22.907Z</time>
      </trkpt>
      <trkpt lat="47.698274" lon="7.930122">
        <ele>869.657938</ele>
        <time>2021-11-20T19:11:28.389Z</time>
      </trkpt>
      <trkpt lat="47.698230" lon="7.929864">
        <ele>869.866232</ele>
        <time>2021-11-20T19:11:33.415Z</time>
      </trkpt>
      <trkpt lat="47.698244" lon="7.929747">
        <ele>870.409842</ele>
        <time>2021-11-20T19:11:35.834Z</time>
      </trkpt>
      <trkpt lat="47.698267" lon="7.929569">
        <ele>871.238974</ele>
        <time>2021-11-20T19:11:39.401Z</time>
      </trkpt>
      <trkpt lat="47.698339" lon="7.929339">
        <ele>872.399350</ele>
        <time>2021-11-20T19:11:44.750Z</time>
      </trkpt>
      <trkpt lat="47.698695" lon="7.928282">
        <ele>877.806219</ele>
        <time>2021-11-20T19:12:17.412Z</time>
      </trkpt>
      <trkpt lat="47.698816" lon="7.927925">
        <ele>879.634696</ele>
        <time>2021-11-20T19:12:30.735Z</time>
      </trkpt>
      <trkpt lat="47.698890" lon="7.927724">
        <ele>880.682737</ele>
        <time>2021-11-20T19:12:38.732Z</time>
      </trkpt>
      <trkpt lat="47.698916" lon="7.927369">
        <ele>882.396864</ele>
        <time>2021-11-20T19:12:52.188Z</time>
      </trkpt>
      <trkpt lat="47.698865" lon="7.927181">
        <ele>883.626055</ele>
        <time>2021-11-20T19:12:59.426Z</time>
      </trkpt>
      <trkpt lat="47.698848" lon="7.927104">
        <ele>884.117478</ele>
        <time>2021-11-20T19:13:02.151Z</time>
      </trkpt>
      <trkpt lat="47.698822" lon="7.926986">
        <ele>884.870423</ele>
        <time>2021-11-20T19:13:07.354Z</time>
      </trkpt>
      <trkpt lat="47.698753" lon="7.926602">
        <ele>887.280634</ele>
        <time>2021-11-20T19:13:21.628Z</time>
      </trkpt>
      <trkpt lat="47.698745" lon="7.926084">
        <ele>890.422710</ele>
        <time>2021-11-20T19:13:40.611Z</time>
      </trkpt>
      <trkpt lat="47.698774" lon="7.925852">
        <ele>891.853661</ele>
        <time>2021-11-20T19:13:48.675Z</time>
      </trkpt>
      <trkpt lat="47.698781" lon="7.925802">
        <ele>892.163361</ele>
        <time>2021-11-20T19:13:51.136Z</time>
      </trkpt>
      <trkpt lat="47.698880" lon="7.925249">
        <ele>895.633461</ele>
        <time>2021-11-20T19:14:09.803Z</time>
      </trkpt>
      <trkpt lat="47.698959" lon="7.925050">
        <ele>897.034522</ele>
        <time>2021-11-20T19:14:17.281Z</time>
      </trkpt>
      <trkpt lat="47.699123" lon="7.924701">
        <ele>898.917889</ele>
        <time>2021-11-20T19:14:30.509Z</time>
      </trkpt>
      <trkpt lat="47.699230" lon="7.924465">
        <ele>899.745294</ele>
        <time>2021-11-20T19:14:38.403Z</time>
      </trkpt>
      <trkpt lat="47.699259" lon="7.924329">
        <ele>900.160115</ele>
        <time>2021-11-20T19:14:42.473Z</time>
      </trkpt>
      <trkpt lat="47.699270" lon="7.924283">
        <ele>900.302061</ele>
        <time>2021-11-20T19:14:43.824Z</time>
      </trkpt>
      <trkpt lat="47.699273" lon="7.924106">
        <ele>900.816888</ele>
        <time>2021-11-20T19:14:48.765Z</time>
      </trkpt>
      <trkpt lat="47.699226" lon="7.923813">
        <ele>901.692709</ele>
        <time>2021-11-20T19:14:56.680Z</time>
      </trkpt>
      <trkpt lat="47.699164" lon="7.923424">
        <ele>902.855092</ele>
        <time>2021-11-20T19:15:05.514Z</time>
      </trkpt>
      <trkpt lat="47.699152" lon="7.923280">
        <ele>903.276999</ele>
        <time>2021-11-20T19:15:07.592Z</time>
      </trkpt>
      <trkpt lat="47.699152" lon="7.922875">
        <ele>904.454622</ele>
        <time>2021-11-20T19:15:15.498Z</time>
      </trkpt>
      <trkpt lat="47.699181" lon="7.922716">
        <ele>904.933624</ele>
        <time>2021-11-20T19:15:17.550Z</time>
      </trkpt>
      <trkpt lat="47.699222" lon="7.922379">
        <ele>905.929402</ele>
        <time>2021-11-20T19:15:22.248Z</time>
      </trkpt>
      <trkpt lat="47.699237" lon="7.922228">
        <ele>905.962909</ele>
        <time>2021-11-20T19:15:23.577Z</time>
      </trkpt>
      <trkpt lat="47.699331" lon="7.921635">
        <ele>905.514232</ele>
        <time>2021-11-20T19:15:28.820Z</time>
      </trkpt>
      <trkpt lat="47.699366" lon="7.921414">
        <ele>905.347027</ele>
        <time>2021-11-20T19:15:30.567Z</time>
      </trkpt>
      <trkpt lat="47.699403" lon="7.921241">
        <ele>905.213339</ele>
        <time>2021-11-20T19:15:32.012Z</time>
      </trkpt>
      <trkpt lat="47.699458" lon="7.921083">
        <ele>905.082334</ele>
        <time>2021-11-20T19:15:33.304Z</time>
      </trkpt>
      <trkpt lat="47.699592" lon="7.920779">
        <ele>904.814703</ele>
        <time>2021-11-20T19:15:36.021Z</time>
      </trkpt>
      <trkpt lat="47.700066" lon="7.919608">
        <ele>904.022208</ele>
        <time>2021-11-20T19:15:46.179Z</time>
      </trkpt>
      <trkpt lat="47.700554" lon="7.918395">
        <ele>903.808035</ele>
        <time>2021-11-20T19:15:59.233Z</time>
      </trkpt>
      <trkpt lat="47.700654" lon="7.918246">
        <ele>903.776144</ele>
        <time>2021-11-20T19:16:01.758Z</time>
      </trkpt>
      <trkpt lat="47.700893" lon="7.918159">
        <ele>903.720734</ele>
        <time>2021-11-20T19:16:06.346Z</time>
      </trkpt>
      <trkpt lat="47.701291" lon="7.918208">
        <ele>903.395446</ele>
        <time>2021-11-20T19:16:14.022Z</time>
      </trkpt>
      <trkpt lat="47.701618" lon="7.918290">
        <ele>902.900209</ele>
        <time>2021-11-20T19:16:19.642Z</time>
      </trkpt>
      <trkpt lat="47.701664" lon="7.918301">
        <ele>902.830630</ele>
        <time>2021-11-20T19:16:20.341Z</time>
      </trkpt>
      <trkpt lat="47.701786" lon="7.918318">
        <ele>902.647640</ele>
        <time>2021-11-20T19:16:22.753Z</time>
      </trkpt>
      <trkpt lat="47.701983" lon="7.918332">
        <ele>902.353110</ele>
        <time>2021-11-20T19:16:25.412Z</time>
      </trkpt>
      <trkpt lat="47.702397" lon="7.918193">
        <ele>901.719269</ele>
        <time>2021-11-20T19:16:29.960Z</time>
      </trkpt>
      <trkpt lat="47.702537" lon="7.918130">
        <ele>901.500820</ele>
        <time>2021-11-20T19:16:31.369Z</time>
      </trkpt>
      <trkpt lat="47.702954" lon="7.917934">
        <ele>900.473241</ele>
        <time>2021-11-20T19:16:35.640Z</time>
      </trkpt>
      <trkpt lat="47.703049" lon="7.917827">
        <ele>899.815273</ele>
        <time>2021-11-20T19:16:36.931Z</time>
      </trkpt>
      <trkpt lat="47.703228" lon="7.917328">
        <ele>897.714851</ele>
        <time>2021-11-20T19:16:40.502Z</time>
      </trkpt>
      <trkpt lat="47.703255" lon="7.917193">
        <ele>897.191716</ele>
        <time>2021-11-20T19:16:41.353Z</time>
      </trkpt>
      <trkpt lat="47.703237" lon="7.917064">
        <ele>896.702353</ele>
        <time>2021-11-20T19:16:42.122Z</time>
      </trkpt>
      <trkpt lat="47.703130" lon="7.916857">
        <ele>895.732810</ele>
        <time>2021-11-20T19:16:43.842Z</time>
      </trkpt>
      <trkpt lat="47.702594" lon="7.916264">
        <ele>892.044364</ele>
        <time>2021-11-20T19:16:49.867Z</time>
      </trkpt>
      <trkpt lat="47.702450" lon="7.916011">
        <ele>890.941739</ele>
        <time>2021-11-20T19:16:51.859Z</time>
      </trkpt>
      <trkpt lat="47.702262" lon="7.915604">
        <ele>890.066455</ele>
        <time>2021-11-20T19:16:54.924Z</time>
      </trkpt>
      <trkpt lat="47.701857" lon="7.914279">
        <ele>887.486122</ele>
        <time>2021-11-20T19:17:05.462Z</time>
      </trkpt>
      <trkpt lat="47.701773" lon="7.914100">
        <ele>887.099192</ele>
        <time>2021-11-20T19:17:07.970Z</time>
      </trkpt>
      <trkpt lat="47.701483" lon="7.913787">
        <ele>886.338832</ele>
        <time>2021-11-20T19:17:13.127Z</time>
      </trkpt>
      <trkpt lat="47.701287" lon="7.913590">
        <ele>886.410095</ele>
        <time>2021-11-20T19:17:16.362Z</time>
      </trkpt>
      <trkpt lat="47.701208" lon="7.913462">
        <ele>886.445295</ele>
        <time>2021-11-20T19:17:19.240Z</time>
      </trkpt>
      <trkpt lat="47.701150" lon="7.913323">
        <ele>886.478443</ele>
        <time>2021-11-20T19:17:21.116Z</time>
      </trkpt>
      <trkpt lat="47.701112" lon="7.912983">
        <ele>886.548298</ele>
        <time>2021-11-20T19:17:24.635Z</time>
      </trkpt>
      <trkpt lat="47.701152" lon="7.912431">
        <ele>886.660824</ele>
        <time>2021-11-20T19:17:30.342Z</time>
      </trkpt>
      <trkpt lat="47.701251" lon="7.911964">
        <ele>886.760060</ele>
        <time>2021-11-20T19:17:35.659Z</time>
      </trkpt>
      <trkpt lat="47.701543" lon="7.911438">
        <ele>886.840465</ele>
        <time>2021-11-20T19:17:44.699Z</time>
      </trkpt>
      <trkpt lat="47.701574" lon="7.911301">
        <ele>886.823529</ele>
        <time>2021-11-20T19:17:46.719Z</time>
      </trkpt>
      <trkpt lat="47.701569" lon="7.911135">
        <ele>886.804059</ele>
        <time>2021-11-20T19:17:47.854Z</time>
      </trkpt>
      <trkpt lat="47.701470" lon="7.910874">
        <ele>886.768955</ele>
        <time>2021-11-20T19:17:52.528Z</time>
      </trkpt>
      <trkpt lat="47.701365" lon="7.910739">
        <ele>886.744781</ele>
        <time>2021-11-20T19:17:53.986Z</time>
      </trkpt>
      <trkpt lat="47.701327" lon="7.910683">
        <ele>886.735463</ele>
        <time>2021-11-20T19:17:55.167Z</time>
      </trkpt>
      <trkpt lat="47.701208" lon="7.910293">
        <ele>886.685289</ele>
        <time>2021-11-20T19:17:59.529Z</time>
      </trkpt>
      <trkpt lat="47.701245" lon="7.909865">
        <ele>886.634728</ele>
        <time>2021-11-20T19:18:05.137Z</time>
      </trkpt>
      <trkpt lat="47.701428" lon="7.909459">
        <ele>886.577473</ele>
        <time>2021-11-20T19:18:09.505Z</time>
      </trkpt>
      <trkpt lat="47.701676" lon="7.909064">
        <ele>886.080532</ele>
        <time>2021-11-20T19:18:13.398Z</time>
      </trkpt>
      <trkpt lat="47.701775" lon="7.908764">
        <ele>885.546564</ele>
        <time>2021-11-20T19:18:15.878Z</time>
      </trkpt>
      <trkpt lat="47.701744" lon="7.908593">
        <ele>885.263546</ele>
        <time>2021-11-20T19:18:17.323Z</time>
      </trkpt>
      <trkpt lat="47.701591" lon="7.908404">
        <ele>884.791073</ele>
        <time>2021-11-20T19:18:19.294Z</time>
      </trkpt>
      <trkpt lat="47.701209" lon="7.908216">
        <ele>883.835500</ele>
        <time>2021-11-20T19:18:23.477Z</time>
      </trkpt>
      <trkpt lat="47.701124" lon="7.908192">
        <ele>883.630044</ele>
        <time>2021-11-20T19:18:24.463Z</time>
      </trkpt>
      <trkpt lat="47.700845" lon="7.908113">
        <ele>882.955598</ele>
        <time>2021-11-20T19:18:27.405Z</time>
      </trkpt>
      <trkpt lat="47.700490" lon="7.908089">
        <ele>882.111964</ele>
        <time>2021-11-20T19:18:31.120Z</time>
      </trkpt>
      <trkpt lat="47.700348" lon="7.908021">
        <ele>881.758187</ele>
        <time>2021-11-20T19:18:32.773Z</time>
      </trkpt>
      <trkpt lat="47.700287" lon="7.907980">
        <ele>881.599429</ele>
        <time>2021-11-20T19:18:33.353Z</time>
      </trkpt>
      <trkpt lat="47.700198" lon="7.907826">
        <ele>881.275482</ele>
        <time>2021-11-20T19:18:35.054Z</time>
      </trkpt>
      <trkpt lat="47.700078" lon="7.907457">
        <ele>880.621451</ele>
        <time>2021-11-20T19:18:37.856Z</time>
      </trkpt>
      <trkpt lat="47.700079" lon="7.907155">
        <ele>880.139484</ele>
        <time>2021-11-20T19:18:39.999Z</time>
      </trkpt>
      <trkpt lat="47.700105" lon="7.907019">
        <ele>879.913855</ele>
        <time>2021-11-20T19:18:40.854Z</time>
      </trkpt>
      <trkpt lat="47.700132" lon="7.906936">
        <ele>879.766734</ele>
        <time>2021-11-20T19:18:41.664Z</time>
      </trkpt>
      <trkpt lat="47.700443" lon="7.906163">
        <ele>878.329485</ele>
        <time>2021-11-20T19:18:48.443Z</time>
      </trkpt>
      <trkpt lat="47.700618" lon="7.905495">
        <ele>877.451904</ele>
        <time>2021-11-20T19:18:54.358Z</time>
      </trkpt>
      <trkpt lat="47.700673" lon="7.904774">
        <ele>876.667022</ele>
        <time>2021-11-20T19:19:00.468Z</time>
      </trkpt>
      <trkpt lat="47.700593" lon="7.904109">
        <ele>875.936306</ele>
        <time>2021-11-20T19:19:05.637Z</time>
      </trkpt>
      <trkpt lat="47.700551" lon="7.903876">
        <ele>875.675392</ele>
        <time>2021-11-20T19:19:07.431Z</time>
      </trkpt>
      <trkpt lat="47.700441" lon="7.903664">
        <ele>875.385836</ele>
        <time>2021-11-20T19:19:09.396Z</time>
      </trkpt>
      <trkpt lat="47.700319" lon="7.903577">
        <ele>875.168340</ele>
        <time>2021-11-20T19:19:10.847Z</time>
      </trkpt>
      <trkpt lat="47.699833" lon="7.903482">
        <ele>873.921028</ele>
        <time>2021-11-20T19:19:15.956Z</time>
      </trkpt>
      <trkpt lat="47.699555" lon="7.903187">
        <ele>873.031492</ele>
        <time>2021-11-20T19:19:19.510Z</time>
      </trkpt>
      <trkpt lat="47.699443" lon="7.903009">
        <ele>872.604457</ele>
        <time>2021-11-20T19:19:21.185Z</time>
      </trkpt>
      <trkpt lat="47.699420" lon="7.902971">
        <ele>872.514894</ele>
        <time>2021-11-20T19:19:21.528Z</time>
      </trkpt>
      <trkpt lat="47.699294" lon="7.902729">
        <ele>871.978699</ele>
        <time>2021-11-20T19:19:23.737Z</time>
      </trkpt>
      <trkpt lat="47.699164" lon="7.902467">
        <ele>871.408256</ele>
        <time>2021-11-20T19:19:26.021Z</time>
      </trkpt>
      <trkpt lat="47.698984" lon="7.902071">
        <ele>870.570821</ele>
        <time>2021-11-20T19:19:29.424Z</time>
      </trkpt>
      <trkpt lat="47.698869" lon="7.901775">
        <ele>869.660496</ele>
        <time>2021-11-20T19:19:31.990Z</time>
      </trkpt>
      <trkpt lat="47.698757" lon="7.901247">
        <ele>868.042201</ele>
        <time>2021-11-20T19:19:35.838Z</time>
      </trkpt>
      <trkpt lat="47.698732" lon="7.900749">
        <ele>866.582400</ele>
        <time>2021-11-20T19:19:39.022Z</time>
      </trkpt>
      <trkpt lat="47.698788" lon="7.900155">
        <ele>864.829064</ele>
        <time>2021-11-20T19:19:42.819Z</time>
      </trkpt>
      <trkpt lat="47.698768" lon="7.900026">
        <ele>864.442094</ele>
        <time>2021-11-20T19:19:43.607Z</time>
      </trkpt>
      <trkpt lat="47.698741" lon="7.899854">
        <ele>863.925808</ele>
        <time>2021-11-20T19:19:44.711Z</time>
      </trkpt>
      <trkpt lat="47.698669" lon="7.899701">
        <ele>863.380072</ele>
        <time>2021-11-20T19:19:46.071Z</time>
      </trkpt>
      <trkpt lat="47.698531" lon="7.899556">
        <ele>862.645958</ele>
        <time>2021-11-20T19:19:47.563Z</time>
      </trkpt>
      <trkpt lat="47.698377" lon="7.899408">
        <ele>861.629758</ele>
        <time>2021-11-20T19:19:49.501Z</time>
      </trkpt>
      <trkpt lat="47.698286" lon="7.899318">
        <ele>861.020669</ele>
        <time>2021-11-20T19:19:50.493Z</time>
      </trkpt>
      <trkpt lat="47.698251" lon="7.899282">
        <ele>860.783488</ele>
        <time>2021-11-20T19:19:50.853Z</time>
      </trkpt>
      <trkpt lat="47.697846" lon="7.898880">
        <ele>858.069685</ele>
        <time>2021-11-20T19:19:55.427Z</time>
      </trkpt>
      <trkpt lat="47.697711" lon="7.898816">
        <ele>857.280132</ele>
        <time>2021-11-20T19:19:56.765Z</time>
      </trkpt>
      <trkpt lat="47.697150" lon="7.898946">
        <ele>854.116568</ele>
        <time>2021-11-20T19:20:01.902Z</time>
      </trkpt>
      <trkpt lat="47.696783" lon="7.898832">
        <ele>852.248316</ele>
        <time>2021-11-20T19:20:05.360Z</time>
      </trkpt>
      <trkpt lat="47.696519" lon="7.898548">
        <ele>851.127700</ele>
        <time>2021-11-20T19:20:08.589Z</time>
      </trkpt>
      <trkpt lat="47.696123" lon="7.897991">
        <ele>849.252841</ele>
        <time>2021-11-20T19:20:14.081Z</time>
      </trkpt>
      <trkpt lat="47.695747" lon="7.897704">
        <ele>847.799469</ele>
        <time>2021-11-20T19:20:18.513Z</time>
      </trkpt>
      <trkpt lat="47.695469" lon="7.897650">
        <ele>846.835527</ele>
        <time>2021-11-20T19:20:21.719Z</time>
      </trkpt>
      <trkpt lat="47.695175" lon="7.897869">
        <ele>845.538065</ele>
        <time>2021-11-20T19:20:25.262Z</time>
      </trkpt>
      <trkpt lat="47.695008" lon="7.897996">
        <ele>844.742722</ele>
        <time>2021-11-20T19:20:27.019Z</time>
      </trkpt>
      <trkpt lat="47.694969" lon="7.898015">
        <ele>844.568722</ele>
        <time>2021-11-20T19:20:27.481Z</time>
      </trkpt>
      <trkpt lat="47.694940" lon="7.898032">
        <ele>844.436554</ele>
        <time>2021-11-20T19:20:28.202Z</time>
      </trkpt>
      <trkpt lat="47.694316" lon="7.897878">
        <ele>841.754894</ele>
        <time>2021-11-20T19:20:34.323Z</time>
      </trkpt>
      <trkpt lat="47.694227" lon="7.897933">
        <ele>841.346245</ele>
        <time>2021-11-20T19:20:35.495Z</time>
      </trkpt>
      <trkpt lat="47.694145" lon="7.897983">
        <ele>840.970471</ele>
        <time>2021-11-20T19:20:36.364Z</time>
      </trkpt>
      <trkpt lat="47.694015" lon="7.898113">
        <ele>840.306129</ele>
        <time>2021-11-20T19:20:37.780Z</time>
      </trkpt>
      <trkpt lat="47.693999" lon="7.898129">
        <ele>840.224364</ele>
        <time>2021-11-20T19:20:37.969Z</time>
      </trkpt>
      <trkpt lat="47.693970" lon="7.898197">
        <ele>839.994654</ele>
        <time>2021-11-20T19:20:38.529Z</time>
      </trkpt>
      <trkpt lat="47.693913" lon="7.898348">
        <ele>839.500636</ele>
        <time>2021-11-20T19:20:39.757Z</time>
      </trkpt>
      <trkpt lat="47.693868" lon="7.898489">
        <ele>839.055351</ele>
        <time>2021-11-20T19:20:40.677Z</time>
      </trkpt>
      <trkpt lat="47.693630" lon="7.899148">
        <ele>836.136699</ele>
        <time>2021-11-20T19:20:45.186Z</time>
      </trkpt>
      <trkpt lat="47.693300" lon="7.899597">
        <ele>833.445231</ele>
        <time>2021-11-20T19:20:49.219Z</time>
      </trkpt>
      <trkpt lat="47.693193" lon="7.900217">
        <ele>830.853956</ele>
        <time>2021-11-20T19:20:53.041Z</time>
      </trkpt>
      <trkpt lat="47.693100" lon="7.900386">
        <ele>829.970199</ele>
        <time>2021-11-20T19:20:54.408Z</time>
      </trkpt>
      <trkpt lat="47.693054" lon="7.900440">
        <ele>829.617572</ele>
        <time>2021-11-20T19:20:54.907Z</time>
      </trkpt>
      <trkpt lat="47.693000" lon="7.900458">
        <ele>829.284701</ele>
        <time>2021-11-20T19:20:55.451Z</time>
      </trkpt>
      <trkpt lat="47.692937" lon="7.900460">
        <ele>828.905686</ele>
        <time>2021-11-20T19:20:56.094Z</time>
      </trkpt>
      <trkpt lat="47.692881" lon="7.900444">
        <ele>828.562689</ele>
        <time>2021-11-20T19:20:56.606Z</time>
      </trkpt>
      <trkpt lat="47.692762" lon="7.900344">
        <ele>827.900117</ele>
        <time>2021-11-20T19:20:58.096Z</time>
      </trkpt>
      <trkpt lat="47.692253" lon="7.899242">
        <ele>826.149878</ele>
        <time>2021-11-20T19:21:08.058Z</time>
      </trkpt>
      <trkpt lat="47.691921" lon="7.898770">
        <ele>825.255846</ele>
        <time>2021-11-20T19:21:13.144Z</time>
      </trkpt>
      <trkpt lat="47.691684" lon="7.898451">
        <ele>824.633647</ele>
        <time>2021-11-20T19:21:17.918Z</time>
      </trkpt>
      <trkpt lat="47.691618" lon="7.898284">
        <ele>824.392965</ele>
        <time>2021-11-20T19:21:19.744Z</time>
      </trkpt>
      <trkpt lat="47.691597" lon="7.898146">
        <ele>824.232351</ele>
        <time>2021-11-20T19:21:20.815Z</time>
      </trkpt>
      <trkpt lat="47.691597" lon="7.898017">
        <ele>824.085907</ele>
        <time>2021-11-20T19:21:22.684Z</time>
      </trkpt>
      <trkpt lat="47.691623" lon="7.897890">
        <ele>823.935212</ele>
        <time>2021-11-20T19:21:23.854Z</time>
      </trkpt>
      <trkpt lat="47.691690" lon="7.897591">
        <ele>823.577466</ele>
        <time>2021-11-20T19:21:26.394Z</time>
      </trkpt>
      <trkpt lat="47.691724" lon="7.897240">
        <ele>823.174899</ele>
        <time>2021-11-20T19:21:29.604Z</time>
      </trkpt>
      <trkpt lat="47.691721" lon="7.897132">
        <ele>823.052190</ele>
        <time>2021-11-20T19:21:30.350Z</time>
      </trkpt>
      <trkpt lat="47.691722" lon="7.896872">
        <ele>822.757028</ele>
        <time>2021-11-20T19:21:32.738Z</time>
      </trkpt>
      <trkpt lat="47.691726" lon="7.896750">
        <ele>822.618366</ele>
        <time>2021-11-20T19:21:33.610Z</time>
      </trkpt>
      <trkpt lat="47.691751" lon="7.896481">
        <ele>822.310095</ele>
        <time>2021-11-20T19:21:35.716Z</time>
      </trkpt>
      <trkpt lat="47.691908" lon="7.895902">
        <ele>821.601474</ele>
        <time>2021-11-20T19:21:40.086Z</time>
      </trkpt>
      <trkpt lat="47.692782" lon="7.894909">
        <ele>817.441743</ele>
        <time>2021-11-20T19:21:50.765Z</time>
      </trkpt>
      <trkpt lat="47.692919" lon="7.894668">
        <ele>816.597699</ele>
        <time>2021-11-20T19:21:52.925Z</time>
      </trkpt>
      <trkpt lat="47.693118" lon="7.893755">
        <ele>813.855215</ele>
        <time>2021-11-20T19:21:59.313Z</time>
      </trkpt>
      <trkpt lat="47.693532" lon="7.893064">
        <ele>809.741536</ele>
        <time>2021-11-20T19:22:05.033Z</time>
      </trkpt>
      <trkpt lat="47.694225" lon="7.892203">
        <ele>803.773353</ele>
        <time>2021-11-20T19:22:13.135Z</time>
      </trkpt>
      <trkpt lat="47.694279" lon="7.892107">
        <ele>803.217025</ele>
        <time>2021-11-20T19:22:13.856Z</time>
      </trkpt>
      <trkpt lat="47.694290" lon="7.891921">
        <ele>802.377942</ele>
        <time>2021-11-20T19:22:15.011Z</time>
      </trkpt>
      <trkpt lat="47.694262" lon="7.891761">
        <ele>801.377478</ele>
        <time>2021-11-20T19:22:15.978Z</time>
      </trkpt>
      <trkpt lat="47.694140" lon="7.891577">
        <ele>799.814437</ele>
        <time>2021-11-20T19:22:17.502Z</time>
      </trkpt>
      <trkpt lat="47.694034" lon="7.891576">
        <ele>798.861375</ele>
        <time>2021-11-20T19:22:18.440Z</time>
      </trkpt>
      <trkpt lat="47.692904" lon="7.892107">
        <ele>788.205482</ele>
        <time>2021-11-20T19:22:28.678Z</time>
      </trkpt>
      <trkpt lat="47.692353" lon="7.892297">
        <ele>783.192985</ele>
        <time>2021-11-20T19:22:33.653Z</time>
      </trkpt>
      <trkpt lat="47.691492" lon="7.892366">
        <ele>775.622450</ele>
        <time>2021-11-20T19:22:41.201Z</time>
      </trkpt>
      <trkpt lat="47.691051" lon="7.892747">
        <ele>771.143355</ele>
        <time>2021-11-20T19:22:45.627Z</time>
      </trkpt>
      <trkpt lat="47.690917" lon="7.892704">
        <ele>769.927732</ele>
        <time>2021-11-20T19:22:46.834Z</time>
      </trkpt>
      <trkpt lat="47.690608" lon="7.892197">
        <ele>765.790300</ele>
        <time>2021-11-20T19:22:50.851Z</time>
      </trkpt>
      <trkpt lat="47.690592" lon="7.892177">
        <ele>765.602380</ele>
        <time>2021-11-20T19:22:51.026Z</time>
      </trkpt>
      <trkpt lat="47.690525" lon="7.892092">
        <ele>764.810572</ele>
        <time>2021-11-20T19:22:51.812Z</time>
      </trkpt>
      <trkpt lat="47.690297" lon="7.891805">
        <ele>762.124894</ele>
        <time>2021-11-20T19:22:54.409Z</time>
      </trkpt>
      <trkpt lat="47.690099" lon="7.891681">
        <ele>760.193825</ele>
        <time>2021-11-20T19:22:56.302Z</time>
      </trkpt>
      <trkpt lat="47.690027" lon="7.891702">
        <ele>759.534411</ele>
        <time>2021-11-20T19:22:56.944Z</time>
      </trkpt>
      <trkpt lat="47.689506" lon="7.892378">
        <ele>753.485233</ele>
        <time>2021-11-20T19:23:02.911Z</time>
      </trkpt>
      <trkpt lat="47.688568" lon="7.892760">
        <ele>746.260648</ele>
        <time>2021-11-20T19:23:11.535Z</time>
      </trkpt>
      <trkpt lat="47.688357" lon="7.892761">
        <ele>744.693321</ele>
        <time>2021-11-20T19:23:13.413Z</time>
      </trkpt>
      <trkpt lat="47.688208" lon="7.892651">
        <ele>743.457402</ele>
        <time>2021-11-20T19:23:14.966Z</time>
      </trkpt>
      <trkpt lat="47.688116" lon="7.892510">
        <ele>742.475518</ele>
        <time>2021-11-20T19:23:16.105Z</time>
      </trkpt>
      <trkpt lat="47.688096" lon="7.892452">
        <ele>742.149664</ele>
        <time>2021-11-20T19:23:16.745Z</time>
      </trkpt>
      <trkpt lat="47.688048" lon="7.892315">
        <ele>741.377389</ele>
        <time>2021-11-20T19:23:17.813Z</time>
      </trkpt>
      <trkpt lat="47.687902" lon="7.892172">
        <ele>740.474799</ele>
        <time>2021-11-20T19:23:19.341Z</time>
      </trkpt>
      <trkpt lat="47.687743" lon="7.892199">
        <ele>739.844078</ele>
        <time>2021-11-20T19:23:20.974Z</time>
      </trkpt>
      <trkpt lat="47.687578" lon="7.892429">
        <ele>738.952327</ele>
        <time>2021-11-20T19:23:22.993Z</time>
      </trkpt>
      <trkpt lat="47.687385" lon="7.892521">
        <ele>738.153487</ele>
        <time>2021-11-20T19:23:25.164Z</time>
      </trkpt>
      <trkpt lat="47.687003" lon="7.892207">
        <ele>736.432858</ele>
        <time>2021-11-20T19:23:29.378Z</time>
      </trkpt>
      <trkpt lat="47.686260" lon="7.892416">
        <ele>733.573409</ele>
        <time>2021-11-20T19:23:37.468Z</time>
      </trkpt>
      <trkpt lat="47.685848" lon="7.892322">
        <ele>732.450856</ele>
        <time>2021-11-20T19:23:42.079Z</time>
      </trkpt>
      <trkpt lat="47.685748" lon="7.892409">
        <ele>732.138760</ele>
        <time>2021-11-20T19:23:43.323Z</time>
      </trkpt>
      <trkpt lat="47.685624" lon="7.892758">
        <ele>731.423319</ele>
        <time>2021-11-20T19:23:46.123Z</time>
      </trkpt>
      <trkpt lat="47.685429" lon="7.892972">
        <ele>730.770399</ele>
        <time>2021-11-20T19:23:48.682Z</time>
      </trkpt>
      <trkpt lat="47.685093" lon="7.893101">
        <ele>729.835795</ele>
        <time>2021-11-20T19:23:52.324Z</time>
      </trkpt>
      <trkpt lat="47.684774" lon="7.893352">
        <ele>728.601091</ele>
        <time>2021-11-20T19:23:56.035Z</time>
      </trkpt>
      <trkpt lat="47.684473" lon="7.893221">
        <ele>726.005896</ele>
        <time>2021-11-20T19:23:59.136Z</time>
      </trkpt>
      <trkpt lat="47.684359" lon="7.893237">
        <ele>725.058450</ele>
        <time>2021-11-20T19:24:00.215Z</time>
      </trkpt>
      <trkpt lat="47.683949" lon="7.893550">
        <ele>721.244273</ele>
        <time>2021-11-20T19:24:04.407Z</time>
      </trkpt>
      <trkpt lat="47.683863" lon="7.893882">
        <ele>719.262768</ele>
        <time>2021-11-20T19:24:06.501Z</time>
      </trkpt>
      <trkpt lat="47.684065" lon="7.894653">
        <ele>714.654327</ele>
        <time>2021-11-20T19:24:11.248Z</time>
      </trkpt>
      <trkpt lat="47.684086" lon="7.894917">
        <ele>712.318860</ele>
        <time>2021-11-20T19:24:12.757Z</time>
      </trkpt>
      <trkpt lat="47.683916" lon="7.895292">
        <ele>707.497706</ele>
        <time>2021-11-20T19:24:15.248Z</time>
      </trkpt>
      <trkpt lat="47.683794" lon="7.895850">
        <ele>701.241227</ele>
        <time>2021-11-20T19:24:18.505Z</time>
      </trkpt>
      <trkpt lat="47.683475" lon="7.896682">
        <ele>691.030686</ele>
        <time>2021-11-20T19:24:23.806Z</time>
      </trkpt>
      <trkpt lat="47.683433" lon="7.896934">
        <ele>688.262199</ele>
        <time>2021-11-20T19:24:25.295Z</time>
      </trkpt>
      <trkpt lat="47.683433" lon="7.897166">
        <ele>685.788121</ele>
        <time>2021-11-20T19:24:26.574Z</time>
      </trkpt>
      <trkpt lat="47.683433" lon="7.897197">
        <ele>685.528165</ele>
        <time>2021-11-20T19:24:26.745Z</time>
      </trkpt>
      <trkpt lat="47.683428" lon="7.897416">
        <ele>684.225868</ele>
        <time>2021-11-20T19:24:28.023Z</time>
      </trkpt>
      <trkpt lat="47.683352" lon="7.897601">
        <ele>682.937850</ele>
        <time>2021-11-20T19:24:29.233Z</time>
      </trkpt>
      <trkpt lat="47.683242" lon="7.897652">
        <ele>681.920581</ele>
        <time>2021-11-20T19:24:30.189Z</time>
      </trkpt>
      <trkpt lat="47.683148" lon="7.897566">
        <ele>680.945987</ele>
        <time>2021-11-20T19:24:31.175Z</time>
      </trkpt>
      <trkpt lat="47.683079" lon="7.896965">
        <ele>677.322570</ele>
        <time>2021-11-20T19:24:34.693Z</time>
      </trkpt>
      <trkpt lat="47.683016" lon="7.896836">
        <ele>676.375420</ele>
        <time>2021-11-20T19:24:35.597Z</time>
      </trkpt>
      <trkpt lat="47.682364" lon="7.896375">
        <ele>670.000826</ele>
        <time>2021-11-20T19:24:42.401Z</time>
      </trkpt>
      <trkpt lat="47.682256" lon="7.896126">
        <ele>669.307910</ele>
        <time>2021-11-20T19:24:45.003Z</time>
      </trkpt>
      <trkpt lat="47.682205" lon="7.895128">
        <ele>667.596958</ele>
        <time>2021-11-20T19:24:53.582Z</time>
      </trkpt>
      <trkpt lat="47.682155" lon="7.894972">
        <ele>667.301603</ele>
        <time>2021-11-20T19:24:54.876Z</time>
      </trkpt>
      <trkpt lat="47.681978" lon="7.894814">
        <ele>666.777257</ele>
        <time>2021-11-20T19:24:57.165Z</time>
      </trkpt>
      <trkpt lat="47.681378" lon="7.894618">
        <ele>665.217357</ele>
        <time>2021-11-20T19:25:03.485Z</time>
      </trkpt>
      <trkpt lat="47.681135" lon="7.894173">
        <ele>662.343404</ele>
        <time>2021-11-20T19:25:07.174Z</time>
      </trkpt>
      <trkpt lat="47.681069" lon="7.894133">
        <ele>661.795296</ele>
        <time>2021-11-20T19:25:07.831Z</time>
      </trkpt>
      <trkpt lat="47.680943" lon="7.894141">
        <ele>660.825571</ele>
        <time>2021-11-20T19:25:08.978Z</time>
      </trkpt>
      <trkpt lat="47.680712" lon="7.894422">
        <ele>658.529698</ele>
        <time>2021-11-20T19:25:11.641Z</time>
      </trkpt>
      <trkpt lat="47.680371" lon="7.894492">
        <ele>655.882756</ele>
        <time>2021-11-20T19:25:14.637Z</time>
      </trkpt>
      <trkpt lat="47.679704" lon="7.894972">
        <ele>650.093640</ele>
        <time>2021-11-20T19:25:20.990Z</time>
      </trkpt>
      <trkpt lat="47.679592" lon="7.894956">
        <ele>649.161131</ele>
        <time>2021-11-20T19:25:21.946Z</time>
      </trkpt>
      <trkpt lat="47.678920" lon="7.894559">
        <ele>643.167389</ele>
        <time>2021-11-20T19:25:28.214Z</time>
      </trkpt>
      <trkpt lat="47.678178" lon="7.894776">
        <ele>636.899821</ele>
        <time>2021-11-20T19:25:34.944Z</time>
      </trkpt>
      <trkpt lat="47.677727" lon="7.894733">
        <ele>634.519938</ele>
        <time>2021-11-20T19:25:39.231Z</time>
      </trkpt>
      <trkpt lat="47.677638" lon="7.894605">
        <ele>633.920559</ele>
        <time>2021-11-20T19:25:40.501Z</time>
      </trkpt>
      <trkpt lat="47.677554" lon="7.894202">
        <ele>632.546335</ele>
        <time>2021-11-20T19:25:43.677Z</time>
      </trkpt>
      <trkpt lat="47.677459" lon="7.894071">
        <ele>631.919165</ele>
        <time>2021-11-20T19:25:45.295Z</time>
      </trkpt>
      <trkpt lat="47.677149" lon="7.893974">
        <ele>630.386447</ele>
        <time>2021-11-20T19:25:48.222Z</time>
      </trkpt>
      <trkpt lat="47.676681" lon="7.893673">
        <ele>627.919054</ele>
        <time>2021-11-20T19:25:53.082Z</time>
      </trkpt>
      <trkpt lat="47.676330" lon="7.893768">
        <ele>625.122903</ele>
        <time>2021-11-20T19:25:56.297Z</time>
      </trkpt>
      <trkpt lat="47.676121" lon="7.894044">
        <ele>622.829854</ele>
        <time>2021-11-20T19:25:58.756Z</time>
      </trkpt>
      <trkpt lat="47.676088" lon="7.894139">
        <ele>622.239715</ele>
        <time>2021-11-20T19:25:59.414Z</time>
      </trkpt>
      <trkpt lat="47.676071" lon="7.894188">
        <ele>621.935406</ele>
        <time>2021-11-20T19:25:59.739Z</time>
      </trkpt>
      <trkpt lat="47.676071" lon="7.894188">
        <ele>621.935406</ele>
        <time>2021-11-20T19:25:59.788Z</time>
      </trkpt>
      <trkpt lat="47.675990" lon="7.894385">
        <ele>620.661100</ele>
        <time>2021-11-20T19:26:01.167Z</time>
      </trkpt>
      <trkpt lat="47.675704" lon="7.894768">
        <ele>617.503657</ele>
        <time>2021-11-20T19:26:04.529Z</time>
      </trkpt>
      <trkpt lat="47.675463" lon="7.894884">
        <ele>615.426495</ele>
        <time>2021-11-20T19:26:06.697Z</time>
      </trkpt>
      <trkpt lat="47.675223" lon="7.894888">
        <ele>613.458591</ele>
        <time>2021-11-20T19:26:08.827Z</time>
      </trkpt>
      <trkpt lat="47.674107" lon="7.894609">
        <ele>607.068261</ele>
        <time>2021-11-20T19:26:18.811Z</time>
      </trkpt>
      <trkpt lat="47.673727" lon="7.894339">
        <ele>604.747304</ele>
        <time>2021-11-20T19:26:23.172Z</time>
      </trkpt>
      <trkpt lat="47.673635" lon="7.894176">
        <ele>603.958238</ele>
        <time>2021-11-20T19:26:24.605Z</time>
      </trkpt>
      <trkpt lat="47.673604" lon="7.894092">
        <ele>603.602866</ele>
        <time>2021-11-20T19:26:26.580Z</time>
      </trkpt>
      <trkpt lat="47.673537" lon="7.893661">
        <ele>603.191401</ele>
        <time>2021-11-20T19:26:29.967Z</time>
      </trkpt>
      <trkpt lat="47.673625" lon="7.893258">
        <ele>603.354148</ele>
        <time>2021-11-20T19:26:35.253Z</time>
      </trkpt>
      <trkpt lat="47.674782" lon="7.891447">
        <ele>602.899260</ele>
        <time>2021-11-20T19:27:09.521Z</time>
      </trkpt>
      <trkpt lat="47.675215" lon="7.890749">
        <ele>600.820735</ele>
        <time>2021-11-20T19:27:16.541Z</time>
      </trkpt>
      <trkpt lat="47.675245" lon="7.890678">
        <ele>600.637161</ele>
        <time>2021-11-20T19:27:17.026Z</time>
      </trkpt>
      <trkpt lat="47.675251" lon="7.890415">
        <ele>600.060848</ele>
        <time>2021-11-20T19:27:18.698Z</time>
      </trkpt>
      <trkpt lat="47.675155" lon="7.890206">
        <ele>599.506768</ele>
        <time>2021-11-20T19:27:20.282Z</time>
      </trkpt>
      <trkpt lat="47.675009" lon="7.890144">
        <ele>599.012864</ele>
        <time>2021-11-20T19:27:21.645Z</time>
      </trkpt>
      <trkpt lat="47.674908" lon="7.890178">
        <ele>598.676023</ele>
        <time>2021-11-20T19:27:22.703Z</time>
      </trkpt>
      <trkpt lat="47.674709" lon="7.890290">
        <ele>597.564681</ele>
        <time>2021-11-20T19:27:24.568Z</time>
      </trkpt>
      <trkpt lat="47.674471" lon="7.890481">
        <ele>595.309179</ele>
        <time>2021-11-20T19:27:26.971Z</time>
      </trkpt>
      <trkpt lat="47.674236" lon="7.890668">
        <ele>593.086342</ele>
        <time>2021-11-20T19:27:29.358Z</time>
      </trkpt>
      <trkpt lat="47.674156" lon="7.890736">
        <ele>592.317822</ele>
        <time>2021-11-20T19:27:30.138Z</time>
      </trkpt>
      <trkpt lat="47.674041" lon="7.890821">
        <ele>591.246828</ele>
        <time>2021-11-20T19:27:31.246Z</time>
      </trkpt>
      <trkpt lat="47.673804" lon="7.890907">
        <ele>589.212715</ele>
        <time>2021-11-20T19:27:33.387Z</time>
      </trkpt>
      <trkpt lat="47.673525" lon="7.890900">
        <ele>586.886225</ele>
        <time>2021-11-20T19:27:35.834Z</time>
      </trkpt>
      <trkpt lat="47.672857" lon="7.890811">
        <ele>581.342608</ele>
        <time>2021-11-20T19:27:41.684Z</time>
      </trkpt>
      <trkpt lat="47.672648" lon="7.890724">
        <ele>579.577377</ele>
        <time>2021-11-20T19:27:43.569Z</time>
      </trkpt>
      <trkpt lat="47.672497" lon="7.890528">
        <ele>577.946388</ele>
        <time>2021-11-20T19:27:45.365Z</time>
      </trkpt>
      <trkpt lat="47.671635" lon="7.888951">
        <ele>566.789601</ele>
        <time>2021-11-20T19:27:57.469Z</time>
      </trkpt>
      <trkpt lat="47.671576" lon="7.888763">
        <ele>565.632642</ele>
        <time>2021-11-20T19:27:58.714Z</time>
      </trkpt>
      <trkpt lat="47.671514" lon="7.888569">
        <ele>564.434819</ele>
        <time>2021-11-20T19:27:59.982Z</time>
      </trkpt>
      <trkpt lat="47.670667" lon="7.887599">
        <ele>555.574631</ele>
        <time>2021-11-20T19:28:09.371Z</time>
      </trkpt>
      <trkpt lat="47.670488" lon="7.887497">
        <ele>553.986453</ele>
        <time>2021-11-20T19:28:11.056Z</time>
      </trkpt>
      <trkpt lat="47.670288" lon="7.887483">
        <ele>552.422074</ele>
        <time>2021-11-20T19:28:12.789Z</time>
      </trkpt>
      <trkpt lat="47.670192" lon="7.887398">
        <ele>551.558467</ele>
        <time>2021-11-20T19:28:13.775Z</time>
      </trkpt>
      <trkpt lat="47.670075" lon="7.886999">
        <ele>549.294112</ele>
        <time>2021-11-20T19:28:16.363Z</time>
      </trkpt>
      <trkpt lat="47.669951" lon="7.886802">
        <ele>547.891022</ele>
        <time>2021-11-20T19:28:17.962Z</time>
      </trkpt>
      <trkpt lat="47.669541" lon="7.886582">
        <ele>544.522592</ele>
        <time>2021-11-20T19:28:21.820Z</time>
      </trkpt>
      <trkpt lat="47.668960" lon="7.886016">
        <ele>539.458859</ele>
        <time>2021-11-20T19:28:28.033Z</time>
      </trkpt>
      <trkpt lat="47.668622" lon="7.885813">
        <ele>537.910863</ele>
        <time>2021-11-20T19:28:31.377Z</time>
      </trkpt>
      <trkpt lat="47.668255" lon="7.885409">
        <ele>535.971212</ele>
        <time>2021-11-20T19:28:35.701Z</time>
      </trkpt>
      <trkpt lat="47.667878" lon="7.885334">
        <ele>534.356261</ele>
        <time>2021-11-20T19:28:39.451Z</time>
      </trkpt>
      <trkpt lat="47.667768" lon="7.885265">
        <ele>533.849268</ele>
        <time>2021-11-20T19:28:40.683Z</time>
      </trkpt>
      <trkpt lat="47.667632" lon="7.885067">
        <ele>533.040617</ele>
        <time>2021-11-20T19:28:42.676Z</time>
      </trkpt>
      <trkpt lat="47.667555" lon="7.884878">
        <ele>532.409029</ele>
        <time>2021-11-20T19:28:44.319Z</time>
      </trkpt>
      <trkpt lat="47.667435" lon="7.884118">
        <ele>531.879193</ele>
        <time>2021-11-20T19:28:50.578Z</time>
      </trkpt>
      <trkpt lat="47.667179" lon="7.883237">
        <ele>531.450270</ele>
        <time>2021-11-20T19:28:59.447Z</time>
      </trkpt>
      <trkpt lat="47.667040" lon="7.882492">
        <ele>531.104692</ele>
        <time>2021-11-20T19:29:07.254Z</time>
      </trkpt>
      <trkpt lat="47.667087" lon="7.881969">
        <ele>530.906153</ele>
        <time>2021-11-20T19:29:12.338Z</time>
      </trkpt>
      <trkpt lat="47.667448" lon="7.880196">
        <ele>530.312527</ele>
        <time>2021-11-20T19:29:29.245Z</time>
      </trkpt>
      <trkpt lat="47.667461" lon="7.880098">
        <ele>530.280516</ele>
        <time>2021-11-20T19:29:30.037Z</time>
      </trkpt>
      <trkpt lat="47.667457" lon="7.880001">
        <ele>530.249371</ele>
        <time>2021-11-20T19:29:30.911Z</time>
      </trkpt>
      <trkpt lat="47.667446" lon="7.879912">
        <ele>530.220371</ele>
        <time>2021-11-20T19:29:31.643Z</time>
      </trkpt>
      <trkpt lat="47.667333" lon="7.879752">
        <ele>530.146066</ele>
        <time>2021-11-20T19:29:33.620Z</time>
      </trkpt>
      <trkpt lat="47.667219" lon="7.879671">
        <ele>529.987232</ele>
        <time>2021-11-20T19:29:35.170Z</time>
      </trkpt>
      <trkpt lat="47.667113" lon="7.879712">
        <ele>529.847609</ele>
        <time>2021-11-20T19:29:36.461Z</time>
      </trkpt>
      <trkpt lat="47.666773" lon="7.879844">
        <ele>529.399658</ele>
        <time>2021-11-20T19:29:40.790Z</time>
      </trkpt>
      <trkpt lat="47.666529" lon="7.879633">
        <ele>529.039744</ele>
        <time>2021-11-20T19:29:44.247Z</time>
      </trkpt>
      <trkpt lat="47.666343" lon="7.879182">
        <ele>528.585772</ele>
        <time>2021-11-20T19:29:48.476Z</time>
      </trkpt>
      <trkpt lat="47.666077" lon="7.879049">
        <ele>528.228007</ele>
        <time>2021-11-20T19:29:51.748Z</time>
      </trkpt>
      <trkpt lat="47.665717" lon="7.878973">
        <ele>527.623503</ele>
        <time>2021-11-20T19:29:55.792Z</time>
      </trkpt>
      <trkpt lat="47.665629" lon="7.878959">
        <ele>527.328991</ele>
        <time>2021-11-20T19:29:56.768Z</time>
      </trkpt>
      <trkpt lat="47.665474" lon="7.878934">
        <ele>526.810165</ele>
        <time>2021-11-20T19:29:58.478Z</time>
      </trkpt>
      <trkpt lat="47.665177" lon="7.878293">
        <ele>525.066497</ele>
        <time>2021-11-20T19:30:03.978Z</time>
      </trkpt>
      <trkpt lat="47.664810" lon="7.878152">
        <ele>523.805018</ele>
        <time>2021-11-20T19:30:07.767Z</time>
      </trkpt>
      <trkpt lat="47.664394" lon="7.877271">
        <ele>521.149999</ele>
        <time>2021-11-20T19:30:14.714Z</time>
      </trkpt>
      <trkpt lat="47.664340" lon="7.876839">
        <ele>519.658117</ele>
        <time>2021-11-20T19:30:17.431Z</time>
      </trkpt>
      <trkpt lat="47.664368" lon="7.876514">
        <ele>518.545606</ele>
        <time>2021-11-20T19:30:19.485Z</time>
      </trkpt>
      <trkpt lat="47.664567" lon="7.876066">
        <ele>516.723378</ele>
        <time>2021-11-20T19:30:22.828Z</time>
      </trkpt>
      <trkpt lat="47.664636" lon="7.875782">
        <ele>515.698247</ele>
        <time>2021-11-20T19:30:24.689Z</time>
      </trkpt>
      <trkpt lat="47.664573" lon="7.875381">
        <ele>514.300125</ele>
        <time>2021-11-20T19:30:27.330Z</time>
      </trkpt>
      <trkpt lat="47.664355" lon="7.875148">
        <ele>512.945912</ele>
        <time>2021-11-20T19:30:29.943Z</time>
      </trkpt>
      <trkpt lat="47.664237" lon="7.875062">
        <ele>512.554604</ele>
        <time>2021-11-20T19:30:31.158Z</time>
      </trkpt>
      <trkpt lat="47.664191" lon="7.875019">
        <ele>512.424886</ele>
        <time>2021-11-20T19:30:31.678Z</time>
      </trkpt>
      <trkpt lat="47.664085" lon="7.874833">
        <ele>512.033279</ele>
        <time>2021-11-20T19:30:33.398Z</time>
      </trkpt>
      <trkpt lat="47.663999" lon="7.874505">
        <ele>511.467573</ele>
        <time>2021-11-20T19:30:35.707Z</time>
      </trkpt>
      <trkpt lat="47.664019" lon="7.873861">
        <ele>510.431430</ele>
        <time>2021-11-20T19:30:40.351Z</time>
      </trkpt>
      <trkpt lat="47.663924" lon="7.872838">
        <ele>508.771696</ele>
        <time>2021-11-20T19:30:48.286Z</time>
      </trkpt>
      <trkpt lat="47.664011" lon="7.872518">
        <ele>508.381260</ele>
        <time>2021-11-20T19:30:51.730Z</time>
      </trkpt>
      <trkpt lat="47.664406" lon="7.872035">
        <ele>507.853612</ele>
        <time>2021-11-20T19:30:58.842Z</time>
      </trkpt>
      <trkpt lat="47.664519" lon="7.871876">
        <ele>507.693083</ele>
        <time>2021-11-20T19:31:00.874Z</time>
      </trkpt>
      <trkpt lat="47.664596" lon="7.871769">
        <ele>507.584336</ele>
        <time>2021-11-20T19:31:02.256Z</time>
      </trkpt>
      <trkpt lat="47.664782" lon="7.871262">
        <ele>507.183396</ele>
        <time>2021-11-20T19:31:07.085Z</time>
      </trkpt>
      <trkpt lat="47.664834" lon="7.871018">
        <ele>507.005667</ele>
        <time>2021-11-20T19:31:09.133Z</time>
      </trkpt>
      <trkpt lat="47.664859" lon="7.870699">
        <ele>506.782641</ele>
        <time>2021-11-20T19:31:11.722Z</time>
      </trkpt>
      <trkpt lat="47.664866" lon="7.870622">
        <ele>506.728683</ele>
        <time>2021-11-20T19:31:12.341Z</time>
      </trkpt>
      <trkpt lat="47.664905" lon="7.870231">
        <ele>506.124377</ele>
        <time>2021-11-20T19:31:15.155Z</time>
      </trkpt>
      <trkpt lat="47.665036" lon="7.869565">
        <ele>504.837120</ele>
        <time>2021-11-20T19:31:20.134Z</time>
      </trkpt>
      <trkpt lat="47.665035" lon="7.869390">
        <ele>504.512430</ele>
        <time>2021-11-20T19:31:21.368Z</time>
      </trkpt>
      <trkpt lat="47.664961" lon="7.869182">
        <ele>504.075990</ele>
        <time>2021-11-20T19:31:22.961Z</time>
      </trkpt>
      <trkpt lat="47.664909" lon="7.869051">
        <ele>503.793868</ele>
        <time>2021-11-20T19:31:24.034Z</time>
      </trkpt>
      <trkpt lat="47.664883" lon="7.868844">
        <ele>503.403197</ele>
        <time>2021-11-20T19:31:25.495Z</time>
      </trkpt>
      <trkpt lat="47.664873" lon="7.868769">
        <ele>503.261348</ele>
        <time>2021-11-20T19:31:25.980Z</time>
      </trkpt>
      <trkpt lat="47.664903" lon="7.868588">
        <ele>502.915517</ele>
        <time>2021-11-20T19:31:27.260Z</time>
      </trkpt>
      <trkpt lat="47.664934" lon="7.868452">
        <ele>502.649134</ele>
        <time>2021-11-20T19:31:28.222Z</time>
      </trkpt>
      <trkpt lat="47.664936" lon="7.868313">
        <ele>502.391188</ele>
        <time>2021-11-20T19:31:29.191Z</time>
      </trkpt>
      <trkpt lat="47.664918" lon="7.868221">
        <ele>502.213442</ele>
        <time>2021-11-20T19:31:29.793Z</time>
      </trkpt>
      <trkpt lat="47.664596" lon="7.867700">
        <ele>500.852190</ele>
        <time>2021-11-20T19:31:34.637Z</time>
      </trkpt>
      <trkpt lat="47.664003" lon="7.866254">
        <ele>497.516381</ele>
        <time>2021-11-20T19:31:46.393Z</time>
      </trkpt>
      <trkpt lat="47.663923" lon="7.866058">
        <ele>497.064798</ele>
        <time>2021-11-20T19:31:47.966Z</time>
      </trkpt>
      <trkpt lat="47.663892" lon="7.865949">
        <ele>496.831661</ele>
        <time>2021-11-20T19:31:48.810Z</time>
      </trkpt>
      <trkpt lat="47.663892" lon="7.865949">
        <ele>496.831661</ele>
        <time>2021-11-20T19:31:48.818Z</time>
      </trkpt>
      <trkpt lat="47.663892" lon="7.865949">
        <ele>496.831661</ele>
        <time>2021-11-20T19:31:48.821Z</time>
      </trkpt>
      <trkpt lat="47.663839" lon="7.865713">
        <ele>496.354391</ele>
        <time>2021-11-20T19:31:50.603Z</time>
      </trkpt>
      <trkpt lat="47.663827" lon="7.865633">
        <ele>496.215382</ele>
        <time>2021-11-20T19:31:51.189Z</time>
      </trkpt>
      <trkpt lat="47.663827" lon="7.865552">
        <ele>496.078002</ele>
        <time>2021-11-20T19:31:51.721Z</time>
      </trkpt>
      <trkpt lat="47.664002" lon="7.864318">
        <ele>493.939181</ele>
        <time>2021-11-20T19:32:00.765Z</time>
      </trkpt>
      <trkpt lat="47.664021" lon="7.864190">
        <ele>493.716877</ele>
        <time>2021-11-20T19:32:01.684Z</time>
      </trkpt>
      <trkpt lat="47.664000" lon="7.863904">
        <ele>493.228933</ele>
        <time>2021-11-20T19:32:03.677Z</time>
      </trkpt>
      <trkpt lat="47.663792" lon="7.863141">
        <ele>491.826804</ele>
        <time>2021-11-20T19:32:09.672Z</time>
      </trkpt>
      <trkpt lat="47.663642" lon="7.862822">
        <ele>491.111317</ele>
        <time>2021-11-20T19:32:12.418Z</time>
      </trkpt>
      <trkpt lat="47.663518" lon="7.862682">
        <ele>490.685953</ele>
        <time>2021-11-20T19:32:14.080Z</time>
      </trkpt>
      <trkpt lat="47.663351" lon="7.862622">
        <ele>490.216780</ele>
        <time>2021-11-20T19:32:15.860Z</time>
      </trkpt>
      <trkpt lat="47.662974" lon="7.862586">
        <ele>489.185210</ele>
        <time>2021-11-20T19:32:19.752Z</time>
      </trkpt>
      <trkpt lat="47.662849" lon="7.862528">
        <ele>488.827605</ele>
        <time>2021-11-20T19:32:21.214Z</time>
      </trkpt>
      <trkpt lat="47.662642" lon="7.862380">
        <ele>488.200249</ele>
        <time>2021-11-20T19:32:23.593Z</time>
      </trkpt>
      <trkpt lat="47.662548" lon="7.862218">
        <ele>487.807000</ele>
        <time>2021-11-20T19:32:25.143Z</time>
      </trkpt>
      <trkpt lat="47.662380" lon="7.861444">
        <ele>486.070732</ele>
        <time>2021-11-20T19:32:30.708Z</time>
      </trkpt>
      <trkpt lat="47.662419" lon="7.860491">
        <ele>483.694836</ele>
        <time>2021-11-20T19:32:37.088Z</time>
      </trkpt>
      <trkpt lat="47.662565" lon="7.859546">
        <ele>481.282146</ele>
        <time>2021-11-20T19:32:43.408Z</time>
      </trkpt>
      <trkpt lat="47.662575" lon="7.859180">
        <ele>480.370616</ele>
        <time>2021-11-20T19:32:45.802Z</time>
      </trkpt>
      <trkpt lat="47.662535" lon="7.858830">
        <ele>479.958017</ele>
        <time>2021-11-20T19:32:48.155Z</time>
      </trkpt>
      <trkpt lat="47.662377" lon="7.858337">
        <ele>479.342943</ele>
        <time>2021-11-20T19:32:51.880Z</time>
      </trkpt>
      <trkpt lat="47.662143" lon="7.857943">
        <ele>478.751145</ele>
        <time>2021-11-20T19:32:55.617Z</time>
      </trkpt>
      <trkpt lat="47.661786" lon="7.857663">
        <ele>478.075792</ele>
        <time>2021-11-20T19:33:00.275Z</time>
      </trkpt>
      <trkpt lat="47.660679" lon="7.857529">
        <ele>477.980765</ele>
        <time>2021-11-20T19:33:22.477Z</time>
      </trkpt>
      <trkpt lat="47.660400" lon="7.857415">
        <ele>478.257957</ele>
        <time>2021-11-20T19:33:29.910Z</time>
      </trkpt>
      <trkpt lat="47.660191" lon="7.857136">
        <ele>478.527182</ele>
        <time>2021-11-20T19:33:35.964Z</time>
      </trkpt>
      <trkpt lat="47.660145" lon="7.856675">
        <ele>478.827854</ele>
        <time>2021-11-20T19:33:42.386Z</time>
      </trkpt>
      <trkpt lat="47.660170" lon="7.856510">
        <ele>478.936969</ele>
        <time>2021-11-20T19:33:45.352Z</time>
      </trkpt>
      <trkpt lat="47.660254" lon="7.856070">
        <ele>478.245252</ele>
        <time>2021-11-20T19:33:48.812Z</time>
      </trkpt>
      <trkpt lat="47.660340" lon="7.855600">
        <ele>476.738084</ele>
        <time>2021-11-20T19:33:52.247Z</time>
      </trkpt>
      <trkpt lat="47.660419" lon="7.854745">
        <ele>474.067446</ele>
        <time>2021-11-20T19:33:57.938Z</time>
      </trkpt>
      <trkpt lat="47.660428" lon="7.854469">
        <ele>473.212345</ele>
        <time>2021-11-20T19:33:59.804Z</time>
      </trkpt>
      <trkpt lat="47.660442" lon="7.854217">
        <ele>472.429866</ele>
        <time>2021-11-20T19:34:01.297Z</time>
      </trkpt>
      <trkpt lat="47.660433" lon="7.853291">
        <ele>467.981649</ele>
        <time>2021-11-20T19:34:06.768Z</time>
      </trkpt>
      <trkpt lat="47.660385" lon="7.852986">
        <ele>465.769251</ele>
        <time>2021-11-20T19:34:08.575Z</time>
      </trkpt>
      <trkpt lat="47.660222" lon="7.852517">
        <ele>462.041416</ele>
        <time>2021-11-20T19:34:11.601Z</time>
      </trkpt>
      <trkpt lat="47.659858" lon="7.852074">
        <ele>457.105406</ele>
        <time>2021-11-20T19:34:15.595Z</time>
      </trkpt>
      <trkpt lat="47.659772" lon="7.851936">
        <ele>455.777387</ele>
        <time>2021-11-20T19:34:16.679Z</time>
      </trkpt>
      <trkpt lat="47.659737" lon="7.851695">
        <ele>454.035939</ele>
        <time>2021-11-20T19:34:18.085Z</time>
      </trkpt>
      <trkpt lat="47.659825" lon="7.851429">
        <ele>451.942607</ele>
        <time>2021-11-20T19:34:19.799Z</time>
      </trkpt>
      <trkpt lat="47.659865" lon="7.851365">
        <ele>451.361233</ele>
        <time>2021-11-20T19:34:20.287Z</time>
      </trkpt>
      <trkpt lat="47.659889" lon="7.851325">
        <ele>451.004807</ele>
        <time>2021-11-20T19:34:20.596Z</time>
      </trkpt>
      <trkpt lat="47.659980" lon="7.851203">
        <ele>449.793609</ele>
        <time>2021-11-20T19:34:21.657Z</time>
      </trkpt>
      <trkpt lat="47.660133" lon="7.850964">
        <ele>447.599744</ele>
        <time>2021-11-20T19:34:23.540Z</time>
      </trkpt>
      <trkpt lat="47.660423" lon="7.850559">
        <ele>443.666804</ele>
        <time>2021-11-20T19:34:26.942Z</time>
      </trkpt>
      <trkpt lat="47.660630" lon="7.850158">
        <ele>440.305295</ele>
        <time>2021-11-20T19:34:29.871Z</time>
      </trkpt>
      <trkpt lat="47.660732" lon="7.849851">
        <ele>438.027698</ele>
        <time>2021-11-20T19:34:31.899Z</time>
      </trkpt>
      <trkpt lat="47.660953" lon="7.848671">
        <ele>431.448080</ele>
        <time>2021-11-20T19:34:39.117Z</time>
      </trkpt>
      <trkpt lat="47.660987" lon="7.848340">
        <ele>430.035634</ele>
        <time>2021-11-20T19:34:41.142Z</time>
      </trkpt>
      <trkpt lat="47.660945" lon="7.847588">
        <ele>426.852485</ele>
        <time>2021-11-20T19:34:45.829Z</time>
      </trkpt>
      <trkpt lat="47.660753" lon="7.846503">
        <ele>422.110215</ele>
        <time>2021-11-20T19:34:53.073Z</time>
      </trkpt>
      <trkpt lat="47.660583" lon="7.846064">
        <ele>419.946909</ele>
        <time>2021-11-20T19:34:56.333Z</time>
      </trkpt>
      <trkpt lat="47.660091" lon="7.845247">
        <ele>415.264967</ele>
        <time>2021-11-20T19:35:03.151Z</time>
      </trkpt>
      <trkpt lat="47.659916" lon="7.844774">
        <ele>412.959474</ele>
        <time>2021-11-20T19:35:06.359Z</time>
      </trkpt>
      <trkpt lat="47.659878" lon="7.844501">
        <ele>411.768547</ele>
        <time>2021-11-20T19:35:08.013Z</time>
      </trkpt>
      <trkpt lat="47.659894" lon="7.844140">
        <ele>409.879652</ele>
        <time>2021-11-20T19:35:10.148Z</time>
      </trkpt>
      <trkpt lat="47.659891" lon="7.843834">
        <ele>408.218761</ele>
        <time>2021-11-20T19:35:11.934Z</time>
      </trkpt>
      <trkpt lat="47.659785" lon="7.843448">
        <ele>405.956439</ele>
        <time>2021-11-20T19:35:14.396Z</time>
      </trkpt>
      <trkpt lat="47.659699" lon="7.843338">
        <ele>405.041777</ele>
        <time>2021-11-20T19:35:15.379Z</time>
      </trkpt>
      <trkpt lat="47.659589" lon="7.843262">
        <ele>404.064147</ele>
        <time>2021-11-20T19:35:16.443Z</time>
      </trkpt>
      <trkpt lat="47.659622" lon="7.843157">
        <ele>403.435304</ele>
        <time>2021-11-20T19:35:17.127Z</time>
      </trkpt>
      <trkpt lat="47.659669" lon="7.843010">
        <ele>402.552180</ele>
        <time>2021-11-20T19:35:18.082Z</time>
      </trkpt>
      <trkpt lat="47.659680" lon="7.842973">
        <ele>402.332682</ele>
        <time>2021-11-20T19:35:18.317Z</time>
      </trkpt>
      <trkpt lat="47.660044" lon="7.841843">
        <ele>396.391436</ele>
        <time>2021-11-20T19:35:25.810Z</time>
      </trkpt>
      <trkpt lat="47.660240" lon="7.841356">
        <ele>395.113090</ele>
        <time>2021-11-20T19:35:29.386Z</time>
      </trkpt>
      <trkpt lat="47.660342" lon="7.841019">
        <ele>394.280577</ele>
        <time>2021-11-20T19:35:31.765Z</time>
      </trkpt>
      <trkpt lat="47.660358" lon="7.840966">
        <ele>394.149705</ele>
        <time>2021-11-20T19:35:32.167Z</time>
      </trkpt>
      <trkpt lat="47.660427" lon="7.840766">
        <ele>393.643364</ele>
        <time>2021-11-20T19:35:33.833Z</time>
      </trkpt>
      <trkpt lat="47.660496" lon="7.840519">
        <ele>393.040828</ele>
        <time>2021-11-20T19:35:35.878Z</time>
      </trkpt>
      <trkpt lat="47.660645" lon="7.840066">
        <ele>391.904874</ele>
        <time>2021-11-20T19:35:39.950Z</time>
      </trkpt>
      <trkpt lat="47.660970" lon="7.839136">
        <ele>390.694848</ele>
        <time>2021-11-20T19:35:49.608Z</time>
      </trkpt>
      <trkpt lat="47.660988" lon="7.839085">
        <ele>390.668919</ele>
        <time>2021-11-20T19:35:50.162Z</time>
      </trkpt>
      <trkpt lat="47.660997" lon="7.839060">
        <ele>390.656154</ele>
        <time>2021-11-20T19:35:50.410Z</time>
      </trkpt>
      <trkpt lat="47.661006" lon="7.839036">
        <ele>390.643784</ele>
        <time>2021-11-20T19:35:50.647Z</time>
      </trkpt>
      <trkpt lat="47.661097" lon="7.838798">
        <ele>390.520540</ele>
        <time>2021-11-20T19:35:53.164Z</time>
      </trkpt>
      <trkpt lat="47.661129" lon="7.838704">
        <ele>390.473109</ele>
        <time>2021-11-20T19:35:54.060Z</time>
      </trkpt>
      <trkpt lat="47.661207" lon="7.838474">
        <ele>390.357146</ele>
        <time>2021-11-20T19:35:56.382Z</time>
      </trkpt>
      <trkpt lat="47.661309" lon="7.838191">
        <ele>390.212604</ele>
        <time>2021-11-20T19:35:59.166Z</time>
      </trkpt>
      <trkpt lat="47.661355" lon="7.838066">
        <ele>390.148459</ele>
        <time>2021-11-20T19:36:00.399Z</time>
      </trkpt>
      <trkpt lat="47.661387" lon="7.838089">
        <ele>390.124688</ele>
        <time>2021-11-20T19:36:00.883Z</time>
      </trkpt>
      <trkpt lat="47.661422" lon="7.838095">
        <ele>390.101131</ele>
        <time>2021-11-20T19:36:01.381Z</time>
      </trkpt>
      <trkpt lat="47.661457" lon="7.838084">
        <ele>390.077211</ele>
        <time>2021-11-20T19:36:01.851Z</time>
      </trkpt>
      <trkpt lat="47.661487" lon="7.838057">
        <ele>390.053755</ele>
        <time>2021-11-20T19:36:02.294Z</time>
      </trkpt>
      <trkpt lat="47.661509" lon="7.838016">
        <ele>390.030148</ele>
        <time>2021-11-20T19:36:02.735Z</time>
      </trkpt>
      <trkpt lat="47.661522" lon="7.837967">
        <ele>390.006432</ele>
        <time>2021-11-20T19:36:03.166Z</time>
      </trkpt>
      <trkpt lat="47.661523" lon="7.837917">
        <ele>389.983906</ele>
        <time>2021-11-20T19:36:03.576Z</time>
      </trkpt>
      <trkpt lat="47.661469" lon="7.837798">
        <ele>389.919290</ele>
        <time>2021-11-20T19:36:04.835Z</time>
      </trkpt>
      <trkpt lat="47.661437" lon="7.837781">
        <ele>389.896566</ele>
        <time>2021-11-20T19:36:05.254Z</time>
      </trkpt>
      <trkpt lat="47.661405" lon="7.837779">
        <ele>389.875151</ele>
        <time>2021-11-20T19:36:05.683Z</time>
      </trkpt>
      <trkpt lat="47.661357" lon="7.837810">
        <ele>389.840153</ele>
        <time>2021-11-20T19:36:06.311Z</time>
      </trkpt>
      <trkpt lat="47.661347" lon="7.837817">
        <ele>389.832761</ele>
        <time>2021-11-20T19:36:06.453Z</time>
      </trkpt>
      <trkpt lat="47.661326" lon="7.837853">
        <ele>389.811314</ele>
        <time>2021-11-20T19:36:06.845Z</time>
      </trkpt>
      <trkpt lat="47.661264" lon="7.837815">
        <ele>389.753802</ele>
        <time>2021-11-20T19:36:07.648Z</time>
      </trkpt>
      <trkpt lat="47.661285" lon="7.837755">
        <ele>389.694171</ele>
        <time>2021-11-20T19:36:08.209Z</time>
      </trkpt>
      <trkpt lat="47.661409" lon="7.837702">
        <ele>389.525214</ele>
        <time>2021-11-20T19:36:09.827Z</time>
      </trkpt>
      <trkpt lat="47.661452" lon="7.837714">
        <ele>389.467925</ele>
        <time>2021-11-20T19:36:10.336Z</time>
      </trkpt>
      <trkpt lat="47.661497" lon="7.837504">
        <ele>389.273583</ele>
        <time>2021-11-20T19:36:12.073Z</time>
      </trkpt>
      <trkpt lat="47.661824" lon="7.836259">
        <ele>388.095112</ele>
        <time>2021-11-20T19:36:22.596Z</time>
      </trkpt>
      <trkpt lat="47.661824" lon="7.836203">
        <ele>388.045728</ele>
        <time>2021-11-20T19:36:22.996Z</time>
      </trkpt>
      <trkpt lat="47.661824" lon="7.836169">
        <ele>388.015744</ele>
        <time>2021-11-20T19:36:23.254Z</time>
      </trkpt>
      <trkpt lat="47.661816" lon="7.836129">
        <ele>387.978946</ele>
        <time>2021-11-20T19:36:23.572Z</time>
      </trkpt>
      <trkpt lat="47.661745" lon="7.835965">
        <ele>387.807017</ele>
        <time>2021-11-20T19:36:25.084Z</time>
      </trkpt>
      <trkpt lat="47.661603" lon="7.835641">
        <ele>387.466119</ele>
        <time>2021-11-20T19:36:28.084Z</time>
      </trkpt>
      <trkpt lat="47.661534" lon="7.835353">
        <ele>387.210578</ele>
        <time>2021-11-20T19:36:30.512Z</time>
      </trkpt>
      <trkpt lat="47.661534" lon="7.835353">
        <ele>387.210578</ele>
        <time>2021-11-20T19:36:30.569Z</time>
      </trkpt>
      <trkpt lat="47.661534" lon="7.835353">
        <ele>387.210578</ele>
        <time>2021-11-20T19:36:30.591Z</time>
      </trkpt>
      <trkpt lat="47.661488" lon="7.835209">
        <ele>387.078675</ele>
        <time>2021-11-20T19:36:31.773Z</time>
      </trkpt>
      <trkpt lat="47.661464" lon="7.835156">
        <ele>387.025819</ele>
        <time>2021-11-20T19:36:32.277Z</time>
      </trkpt>
      <trkpt lat="47.660968" lon="7.834797">
        <ele>386.347764</ele>
        <time>2021-11-20T19:36:38.768Z</time>
      </trkpt>
      <trkpt lat="47.660300" lon="7.834365">
        <ele>385.452430</ele>
        <time>2021-11-20T19:36:47.426Z</time>
      </trkpt>
      <trkpt lat="47.660216" lon="7.834301">
        <ele>385.336412</ele>
        <time>2021-11-20T19:36:48.539Z</time>
      </trkpt>
      <trkpt lat="47.659990" lon="7.834167">
        <ele>385.096397</ele>
        <time>2021-11-20T19:36:51.619Z</time>
      </trkpt>
      <trkpt lat="47.659852" lon="7.834084">
        <ele>384.974445</ele>
        <time>2021-11-20T19:36:53.515Z</time>
      </trkpt>
      <trkpt lat="47.659735" lon="7.834061">
        <ele>384.877779</ele>
        <time>2021-11-20T19:36:55.034Z</time>
      </trkpt>
      <trkpt lat="47.659714" lon="7.834064">
        <ele>384.860499</ele>
        <time>2021-11-20T19:36:55.308Z</time>
      </trkpt>
      <trkpt lat="47.659633" lon="7.834077">
        <ele>384.793769</ele>
        <time>2021-11-20T19:36:56.368Z</time>
      </trkpt>
      <trkpt lat="47.659461" lon="7.834102">
        <ele>384.652218</ele>
        <time>2021-11-20T19:36:58.633Z</time>
      </trkpt>
      <trkpt lat="47.659432" lon="7.834106">
        <ele>384.628363</ele>
        <time>2021-11-20T19:36:58.988Z</time>
      </trkpt>
      <trkpt lat="47.659242" lon="7.834106">
        <ele>384.472742</ele>
        <time>2021-11-20T19:37:01.357Z</time>
      </trkpt>
      <trkpt lat="47.658993" lon="7.834108">
        <ele>384.268794</ele>
        <time>2021-11-20T19:37:04.458Z</time>
      </trkpt>
      <trkpt lat="47.658899" lon="7.834108">
        <ele>384.191802</ele>
        <time>2021-11-20T19:37:05.651Z</time>
      </trkpt>
      <trkpt lat="47.658687" lon="7.834028">
        <ele>384.012641</ele>
        <time>2021-11-20T19:37:08.382Z</time>
      </trkpt>
      <trkpt lat="47.658531" lon="7.833970">
        <ele>383.880923</ele>
        <time>2021-11-20T19:37:10.397Z</time>
      </trkpt>
      <trkpt lat="47.658404" lon="7.833911">
        <ele>383.771929</ele>
        <time>2021-11-20T19:37:12.079Z</time>
      </trkpt>
      <trkpt lat="47.658206" lon="7.833785">
        <ele>383.564111</ele>
        <time>2021-11-20T19:37:14.768Z</time>
      </trkpt>
      <trkpt lat="47.658080" lon="7.833668">
        <ele>383.416174</ele>
        <time>2021-11-20T19:37:16.650Z</time>
      </trkpt>
      <trkpt lat="47.658041" lon="7.833588">
        <ele>383.349961</ele>
        <time>2021-11-20T19:37:17.458Z</time>
      </trkpt>
      <trkpt lat="47.657971" lon="7.833428">
        <ele>383.222040</ele>
        <time>2021-11-20T19:37:19.107Z</time>
      </trkpt>
      <trkpt lat="47.657918" lon="7.833307">
        <ele>383.125266</ele>
        <time>2021-11-20T19:37:20.279Z</time>
      </trkpt>
      <trkpt lat="47.657731" lon="7.832916">
        <ele>382.803741</ele>
        <time>2021-11-20T19:37:24.327Z</time>
      </trkpt>
      <trkpt lat="47.657510" lon="7.832688">
        <ele>382.535849</ele>
        <time>2021-11-20T19:37:27.635Z</time>
      </trkpt>
      <trkpt lat="47.657265" lon="7.832541">
        <ele>382.272803</ele>
        <time>2021-11-20T19:37:30.785Z</time>
      </trkpt>
      <trkpt lat="47.656918" lon="7.832343">
        <ele>381.889318</ele>
        <time>2021-11-20T19:37:35.175Z</time>
      </trkpt>
      <trkpt lat="47.656858" lon="7.832309">
        <ele>381.807493</ele>
        <time>2021-11-20T19:37:35.946Z</time>
      </trkpt>
      <trkpt lat="47.656646" lon="7.832178">
        <ele>381.514922</ele>
        <time>2021-11-20T19:37:38.615Z</time>
      </trkpt>
      <trkpt lat="47.656381" lon="7.832009">
        <ele>381.147455</ele>
        <time>2021-11-20T19:37:42.099Z</time>
      </trkpt>
      <trkpt lat="47.656353" lon="7.831972">
        <ele>381.099695</ele>
        <time>2021-11-20T19:37:42.542Z</time>
      </trkpt>
      <trkpt lat="47.656204" lon="7.831766">
        <ele>380.840285</ele>
        <time>2021-11-20T19:37:45.010Z</time>
      </trkpt>
      <trkpt lat="47.656104" lon="7.831597">
        <ele>380.647234</ele>
        <time>2021-11-20T19:37:46.834Z</time>
      </trkpt>
      <trkpt lat="47.655840" lon="7.831150">
        <ele>380.137037</ele>
        <time>2021-11-20T19:37:51.645Z</time>
      </trkpt>
      <trkpt lat="47.655653" lon="7.830727">
        <ele>379.702812</ele>
        <time>2021-11-20T19:37:55.592Z</time>
      </trkpt>
      <trkpt lat="47.655554" lon="7.830341">
        <ele>379.290573</ele>
        <time>2021-11-20T19:37:58.730Z</time>
      </trkpt>
      <trkpt lat="47.655515" lon="7.830187">
        <ele>379.123129</ele>
        <time>2021-11-20T19:37:59.998Z</time>
      </trkpt>
      <trkpt lat="47.655442" lon="7.830047">
        <ele>378.942941</ele>
        <time>2021-11-20T19:38:01.351Z</time>
      </trkpt>
      <trkpt lat="47.655408" lon="7.830008">
        <ele>378.878022</ele>
        <time>2021-11-20T19:38:01.835Z</time>
      </trkpt>
      <trkpt lat="47.655374" lon="7.829968">
        <ele>378.812475</ele>
        <time>2021-11-20T19:38:02.324Z</time>
      </trkpt>
      <trkpt lat="47.655222" lon="7.829815">
        <ele>378.535000</ele>
        <time>2021-11-20T19:38:04.431Z</time>
      </trkpt>
      <trkpt lat="47.655209" lon="7.829806">
        <ele>378.513327</ele>
        <time>2021-11-20T19:38:04.583Z</time>
      </trkpt>
      <trkpt lat="47.654985" lon="7.829643">
        <ele>378.136407</ele>
        <time>2021-11-20T19:38:07.419Z</time>
      </trkpt>
      <trkpt lat="47.654883" lon="7.829540">
        <ele>377.950018</ele>
        <time>2021-11-20T19:38:08.848Z</time>
      </trkpt>
      <trkpt lat="47.654782" lon="7.829439">
        <ele>377.766022</ele>
        <time>2021-11-20T19:38:10.245Z</time>
      </trkpt>
      <trkpt lat="47.654726" lon="7.829362">
        <ele>377.650693</ele>
        <time>2021-11-20T19:38:11.099Z</time>
      </trkpt>
      <trkpt lat="47.654588" lon="7.829170">
        <ele>377.364928</ele>
        <time>2021-11-20T19:38:13.304Z</time>
      </trkpt>
      <trkpt lat="47.654444" lon="7.828940">
        <ele>377.045342</ele>
        <time>2021-11-20T19:38:15.736Z</time>
      </trkpt>
      <trkpt lat="47.654358" lon="7.828807">
        <ele>376.868376</ele>
        <time>2021-11-20T19:38:17.212Z</time>
      </trkpt>
      <trkpt lat="47.654262" lon="7.828656">
        <ele>376.683971</ele>
        <time>2021-11-20T19:38:18.848Z</time>
      </trkpt>
      <trkpt lat="47.654190" lon="7.828544">
        <ele>376.546473</ele>
        <time>2021-11-20T19:38:20.068Z</time>
      </trkpt>
      <trkpt lat="47.654075" lon="7.828375">
        <ele>376.333125</ele>
        <time>2021-11-20T19:38:21.985Z</time>
      </trkpt>
      <trkpt lat="47.654070" lon="7.828370">
        <ele>376.325177</ele>
        <time>2021-11-20T19:38:22.056Z</time>
      </trkpt>
      <trkpt lat="47.653907" lon="7.828156">
        <ele>376.038283</ele>
        <time>2021-11-20T19:38:24.570Z</time>
      </trkpt>
      <trkpt lat="47.653415" lon="7.827515">
        <ele>375.175217</ele>
        <time>2021-11-20T19:38:32.177Z</time>
      </trkpt>
      <trkpt lat="47.653183" lon="7.827196">
        <ele>374.758285</ele>
        <time>2021-11-20T19:38:35.891Z</time>
      </trkpt>
      <trkpt lat="47.652994" lon="7.826927">
        <ele>374.484686</ele>
        <time>2021-11-20T19:38:38.980Z</time>
      </trkpt>
      <trkpt lat="47.652860" lon="7.826738">
        <ele>374.352180</ele>
        <time>2021-11-20T19:38:41.192Z</time>
      </trkpt>
      <trkpt lat="47.652752" lon="7.826545">
        <ele>374.231015</ele>
        <time>2021-11-20T19:38:43.397Z</time>
      </trkpt>
      <trkpt lat="47.652129" lon="7.825338">
        <ele>373.496709</ele>
        <time>2021-11-20T19:38:56.756Z</time>
      </trkpt>
      <trkpt lat="47.651910" lon="7.824975">
        <ele>373.284350</ele>
        <time>2021-11-20T19:39:00.949Z</time>
      </trkpt>
      <trkpt lat="47.651867" lon="7.824904">
        <ele>373.293307</ele>
        <time>2021-11-20T19:39:02.003Z</time>
      </trkpt>
      <trkpt lat="47.651877" lon="7.824886">
        <ele>373.295495</ele>
        <time>2021-11-20T19:39:02.238Z</time>
      </trkpt>
      <trkpt lat="47.651866" lon="7.824714">
        <ele>373.311703</ele>
        <time>2021-11-20T19:39:03.650Z</time>
      </trkpt>
      <trkpt lat="47.651853" lon="7.824699">
        <ele>373.313996</ele>
        <time>2021-11-20T19:39:03.860Z</time>
      </trkpt>
      <trkpt lat="47.651839" lon="7.824688">
        <ele>373.316202</ele>
        <time>2021-11-20T19:39:04.103Z</time>
      </trkpt>
      <trkpt lat="47.651761" lon="7.824691">
        <ele>373.327068</ele>
        <time>2021-11-20T19:39:05.127Z</time>
      </trkpt>
      <trkpt lat="47.651748" lon="7.824704">
        <ele>373.329250</ele>
        <time>2021-11-20T19:39:05.385Z</time>
      </trkpt>
      <trkpt lat="47.651700" lon="7.824581">
        <ele>373.342585</ele>
        <time>2021-11-20T19:39:06.894Z</time>
      </trkpt>
      <trkpt lat="47.651424" lon="7.824011">
        <ele>373.408438</ele>
        <time>2021-11-20T19:39:14.007Z</time>
      </trkpt>
      <trkpt lat="47.651311" lon="7.823776">
        <ele>373.435523</ele>
        <time>2021-11-20T19:39:17.196Z</time>
      </trkpt>
      <trkpt lat="47.651246" lon="7.823641">
        <ele>373.451090</ele>
        <time>2021-11-20T19:39:19.701Z</time>
      </trkpt>
      <trkpt lat="47.651188" lon="7.823521">
        <ele>373.464945</ele>
        <time>2021-11-20T19:39:21.168Z</time>
      </trkpt>
      <trkpt lat="47.651083" lon="7.823437">
        <ele>373.481555</ele>
        <time>2021-11-20T19:39:23.841Z</time>
      </trkpt>
      <trkpt lat="47.650952" lon="7.823452">
        <ele>373.499853</ele>
        <time>2021-11-20T19:39:27.440Z</time>
      </trkpt>
      <trkpt lat="47.650610" lon="7.823497">
        <ele>373.521551</ele>
        <time>2021-11-20T19:39:34.735Z</time>
      </trkpt>
      <trkpt lat="47.650368" lon="7.823542">
        <ele>373.502002</ele>
        <time>2021-11-20T19:39:39.305Z</time>
      </trkpt>
      <trkpt lat="47.650269" lon="7.823413">
        <ele>373.491443</ele>
        <time>2021-11-20T19:39:42.364Z</time>
      </trkpt>
      <trkpt lat="47.650206" lon="7.823190">
        <ele>373.478385</ele>
        <time>2021-11-20T19:39:45.288Z</time>
      </trkpt>
      <trkpt lat="47.650127" lon="7.822807">
        <ele>373.456756</ele>
        <time>2021-11-20T19:39:50.930Z</time>
      </trkpt>
      <trkpt lat="47.650061" lon="7.822265">
        <ele>373.427014</ele>
        <time>2021-11-20T19:39:58.225Z</time>
      </trkpt>
      <trkpt lat="47.650051" lon="7.822186">
        <ele>373.422673</ele>
        <time>2021-11-20T19:39:59.157Z</time>
      </trkpt>
      <trkpt lat="47.650014" lon="7.821990">
        <ele>373.411682</ele>
        <time>2021-11-20T19:40:01.852Z</time>
      </trkpt>
      <trkpt lat="47.649921" lon="7.821701">
        <ele>373.394387</ele>
        <time>2021-11-20T19:40:06.158Z</time>
      </trkpt>
      <trkpt lat="47.649728" lon="7.821232">
        <ele>373.166944</ele>
        <time>2021-11-20T19:40:13.204Z</time>
      </trkpt>
      <trkpt lat="47.649484" lon="7.820580">
        <ele>372.767980</ele>
        <time>2021-11-20T19:40:21.963Z</time>
      </trkpt>
      <trkpt lat="47.649426" lon="7.820396">
        <ele>372.659314</ele>
        <time>2021-11-20T19:40:24.280Z</time>
      </trkpt>
      <trkpt lat="47.649395" lon="7.820289">
        <ele>372.597010</ele>
        <time>2021-11-20T19:40:25.598Z</time>
      </trkpt>
      <trkpt lat="47.649334" lon="7.820073">
        <ele>372.471727</ele>
        <time>2021-11-20T19:40:28.259Z</time>
      </trkpt>
      <trkpt lat="47.649291" lon="7.819778">
        <ele>372.310276</ele>
        <time>2021-11-20T19:40:30.783Z</time>
      </trkpt>
      <trkpt lat="47.649190" lon="7.818874">
        <ele>371.858186</ele>
        <time>2021-11-20T19:40:38.591Z</time>
      </trkpt>
      <trkpt lat="47.649183" lon="7.818814">
        <ele>371.834560</ele>
        <time>2021-11-20T19:40:39.111Z</time>
      </trkpt>
      <trkpt lat="47.649130" lon="7.818388">
        <ele>371.666485</ele>
        <time>2021-11-20T19:40:42.863Z</time>
      </trkpt>
      <trkpt lat="47.649107" lon="7.818248">
        <ele>371.610576</ele>
        <time>2021-11-20T19:40:44.116Z</time>
      </trkpt>
      <trkpt lat="47.649066" lon="7.818016">
        <ele>371.517518</ele>
        <time>2021-11-20T19:40:46.192Z</time>
      </trkpt>
      <trkpt lat="47.649051" lon="7.817919">
        <ele>371.478905</ele>
        <time>2021-11-20T19:40:47.076Z</time>
      </trkpt>
      <trkpt lat="47.649039" lon="7.817840">
        <ele>371.447485</ele>
        <time>2021-11-20T19:40:47.880Z</time>
      </trkpt>
      <trkpt lat="47.648907" lon="7.817325">
        <ele>371.233700</ele>
        <time>2021-11-20T19:40:52.663Z</time>
      </trkpt>
      <trkpt lat="47.648734" lon="7.816774">
        <ele>370.997843</ele>
        <time>2021-11-20T19:40:58.204Z</time>
      </trkpt>
      <trkpt lat="47.648715" lon="7.816710">
        <ele>370.970707</ele>
        <time>2021-11-20T19:40:58.829Z</time>
      </trkpt>
      <trkpt lat="47.648601" lon="7.816406">
        <ele>370.896270</ele>
        <time>2021-11-20T19:41:02.112Z</time>
      </trkpt>
      <trkpt lat="47.648548" lon="7.816287">
        <ele>370.879386</ele>
        <time>2021-11-20T19:41:03.429Z</time>
      </trkpt>
      <trkpt lat="47.648460" lon="7.816084">
        <ele>370.850814</ele>
        <time>2021-11-20T19:41:05.642Z</time>
      </trkpt>
      <trkpt lat="47.648299" lon="7.815806">
        <ele>370.807423</ele>
        <time>2021-11-20T19:41:09.136Z</time>
      </trkpt>
      <trkpt lat="47.648281" lon="7.815744">
        <ele>370.799433</ele>
        <time>2021-11-20T19:41:09.782Z</time>
      </trkpt>
      <trkpt lat="47.648236" lon="7.815588">
        <ele>370.779347</ele>
        <time>2021-11-20T19:41:11.390Z</time>
      </trkpt>
      <trkpt lat="47.648240" lon="7.815548">
        <ele>370.774561</ele>
        <time>2021-11-20T19:41:11.750Z</time>
      </trkpt>
      <trkpt lat="47.648238" lon="7.815508">
        <ele>370.769813</ele>
        <time>2021-11-20T19:41:12.128Z</time>
      </trkpt>
      <trkpt lat="47.648231" lon="7.815470">
        <ele>370.765151</ele>
        <time>2021-11-20T19:41:12.498Z</time>
      </trkpt>
      <trkpt lat="47.648218" lon="7.815437">
        <ele>370.760626</ele>
        <time>2021-11-20T19:41:12.861Z</time>
      </trkpt>
      <trkpt lat="47.648201" lon="7.815408">
        <ele>370.756076</ele>
        <time>2021-11-20T19:41:13.220Z</time>
      </trkpt>
      <trkpt lat="47.648181" lon="7.815385">
        <ele>370.751631</ele>
        <time>2021-11-20T19:41:13.573Z</time>
      </trkpt>
      <trkpt lat="47.648157" lon="7.815369">
        <ele>370.747009</ele>
        <time>2021-11-20T19:41:13.927Z</time>
      </trkpt>
      <trkpt lat="47.648132" lon="7.815361">
        <ele>370.742516</ele>
        <time>2021-11-20T19:41:14.265Z</time>
      </trkpt>
      <trkpt lat="47.648106" lon="7.815361">
        <ele>370.737948</ele>
        <time>2021-11-20T19:41:14.630Z</time>
      </trkpt>
      <trkpt lat="47.648081" lon="7.815369">
        <ele>370.733455</ele>
        <time>2021-11-20T19:41:15.008Z</time>
      </trkpt>
      <trkpt lat="47.648057" lon="7.815385">
        <ele>370.728832</ele>
        <time>2021-11-20T19:41:15.357Z</time>
      </trkpt>
      <trkpt lat="47.648035" lon="7.815408">
        <ele>370.724105</ele>
        <time>2021-11-20T19:41:15.735Z</time>
      </trkpt>
      <trkpt lat="47.648018" lon="7.815437">
        <ele>370.719555</ele>
        <time>2021-11-20T19:41:16.114Z</time>
      </trkpt>
      <trkpt lat="47.647998" lon="7.815509">
        <ele>370.710337</ele>
        <time>2021-11-20T19:41:16.816Z</time>
      </trkpt>
      <trkpt lat="47.647996" lon="7.815548">
        <ele>370.705707</ele>
        <time>2021-11-20T19:41:17.183Z</time>
      </trkpt>
      <trkpt lat="47.647925" lon="7.815642">
        <ele>370.688993</ele>
        <time>2021-11-20T19:41:18.545Z</time>
      </trkpt>
      <trkpt lat="47.647882" lon="7.815699">
        <ele>370.678864</ele>
        <time>2021-11-20T19:41:19.348Z</time>
      </trkpt>
      <trkpt lat="47.647785" lon="7.815818">
        <ele>370.656755</ele>
        <time>2021-11-20T19:41:21.204Z</time>
      </trkpt>
      <trkpt lat="47.647716" lon="7.815862">
        <ele>370.643561</ele>
        <time>2021-11-20T19:41:22.250Z</time>
      </trkpt>
      <trkpt lat="47.647662" lon="7.815885">
        <ele>370.633691</ele>
        <time>2021-11-20T19:41:23.061Z</time>
      </trkpt>
      <trkpt lat="47.647306" lon="7.815996">
        <ele>370.640130</ele>
        <time>2021-11-20T19:41:28.666Z</time>
      </trkpt>
      <trkpt lat="47.646940" lon="7.816087">
        <ele>370.698677</ele>
        <time>2021-11-20T19:41:34.496Z</time>
      </trkpt>
      <trkpt lat="47.646609" lon="7.816150">
        <ele>370.751325</ele>
        <time>2021-11-20T19:41:39.732Z</time>
      </trkpt>
      <trkpt lat="47.646346" lon="7.816173">
        <ele>370.792889</ele>
        <time>2021-11-20T19:41:43.726Z</time>
      </trkpt>
      <trkpt lat="47.645949" lon="7.816228">
        <ele>370.855794</ele>
        <time>2021-11-20T19:41:49.756Z</time>
      </trkpt>
      <trkpt lat="47.645844" lon="7.816242">
        <ele>370.872426</ele>
        <time>2021-11-20T19:41:51.375Z</time>
      </trkpt>
      <trkpt lat="47.645694" lon="7.816230">
        <ele>370.946722</ele>
        <time>2021-11-20T19:41:53.796Z</time>
      </trkpt>
      <trkpt lat="47.645635" lon="7.816215">
        <ele>371.042792</ele>
        <time>2021-11-20T19:41:54.771Z</time>
      </trkpt>
      <trkpt lat="47.645589" lon="7.816192">
        <ele>371.120695</ele>
        <time>2021-11-20T19:41:55.529Z</time>
      </trkpt>
      <trkpt lat="47.645566" lon="7.816166">
        <ele>371.167095</ele>
        <time>2021-11-20T19:41:55.976Z</time>
      </trkpt>
      <trkpt lat="47.645539" lon="7.816150">
        <ele>371.213755</ele>
        <time>2021-11-20T19:41:56.429Z</time>
      </trkpt>
      <trkpt lat="47.645511" lon="7.816145">
        <ele>371.259017</ele>
        <time>2021-11-20T19:41:56.895Z</time>
      </trkpt>
      <trkpt lat="47.645482" lon="7.816151">
        <ele>371.306010</ele>
        <time>2021-11-20T19:41:57.370Z</time>
      </trkpt>
      <trkpt lat="47.645432" lon="7.816197">
        <ele>371.400422</ele>
        <time>2021-11-20T19:41:58.301Z</time>
      </trkpt>
      <trkpt lat="47.645415" lon="7.816232">
        <ele>371.447076</ele>
        <time>2021-11-20T19:41:58.770Z</time>
      </trkpt>
      <trkpt lat="47.645404" lon="7.816264">
        <ele>371.485921</ele>
        <time>2021-11-20T19:41:59.175Z</time>
      </trkpt>
      <trkpt lat="47.645327" lon="7.816290">
        <ele>371.612658</ele>
        <time>2021-11-20T19:42:00.491Z</time>
      </trkpt>
      <trkpt lat="47.645172" lon="7.816339">
        <ele>371.867004</ele>
        <time>2021-11-20T19:42:03.138Z</time>
      </trkpt>
      <trkpt lat="47.645154" lon="7.816347">
        <ele>371.897160</ele>
        <time>2021-11-20T19:42:03.450Z</time>
      </trkpt>
      <trkpt lat="47.644927" lon="7.816376">
        <ele>372.262828</ele>
        <time>2021-11-20T19:42:07.560Z</time>
      </trkpt>
      <trkpt lat="47.644797" lon="7.816399">
        <ele>372.472948</ele>
        <time>2021-11-20T19:42:10.028Z</time>
      </trkpt>
      <trkpt lat="47.644357" lon="7.816478">
        <ele>373.184269</ele>
        <time>2021-11-20T19:42:19.169Z</time>
      </trkpt>
      <trkpt lat="47.644272" lon="7.816496">
        <ele>373.322070</ele>
        <time>2021-11-20T19:42:21.398Z</time>
      </trkpt>
      <trkpt lat="47.644153" lon="7.816522">
        <ele>373.515116</ele>
        <time>2021-11-20T19:42:24.568Z</time>
      </trkpt>
      <trkpt lat="47.643909" lon="7.816574">
        <ele>374.335331</ele>
        <time>2021-11-20T19:42:31.748Z</time>
      </trkpt>
      <trkpt lat="47.643638" lon="7.816626">
        <ele>376.169618</ele>
        <time>2021-11-20T19:42:40.768Z</time>
      </trkpt>
      <trkpt lat="47.642952" lon="7.816765">
        <ele>380.817261</ele>
        <time>2021-11-20T19:43:10.255Z</time>
      </trkpt>
      <trkpt lat="47.642758" lon="7.816795">
        <ele>382.126579</ele>
        <time>2021-11-20T19:43:19.499Z</time>
      </trkpt>
      <trkpt lat="47.642138" lon="7.816906">
        <ele>386.342886</ele>
        <time>2021-11-20T19:43:49.885Z</time>
      </trkpt>
      <trkpt lat="47.641916" lon="7.816921">
        <ele>387.912027</ele>
        <time>2021-11-20T19:44:00.982Z</time>
      </trkpt>
      <trkpt lat="47.641819" lon="7.816919">
        <ele>388.597000</ele>
        <time>2021-11-20T19:44:05.781Z</time>
      </trkpt>
      <trkpt lat="47.641687" lon="7.816751">
        <ele>389.824794</ele>
        <time>2021-11-20T19:44:14.605Z</time>
      </trkpt>
      <trkpt lat="47.641514" lon="7.816229">
        <ele>392.592322</ele>
        <time>2021-11-20T19:44:33.085Z</time>
      </trkpt>
      <trkpt lat="47.641404" lon="7.815775">
        <ele>394.887591</ele>
        <time>2021-11-20T19:44:47.452Z</time>
      </trkpt>
      <trkpt lat="47.641246" lon="7.815390">
        <ele>397.032209</ele>
        <time>2021-11-20T19:44:59.230Z</time>
      </trkpt>
      <trkpt lat="47.640965" lon="7.814694">
        <ele>399.522656</ele>
        <time>2021-11-20T19:45:16.526Z</time>
      </trkpt>
      <trkpt lat="47.640406" lon="7.811979">
        <ele>405.732783</ele>
        <time>2021-11-20T19:46:02.671Z</time>
      </trkpt>
      <trkpt lat="47.640311" lon="7.811772">
        <ele>406.456497</ele>
        <time>2021-11-20T19:46:06.749Z</time>
      </trkpt>
      <trkpt lat="47.640114" lon="7.811584">
        <ele>407.460931</ele>
        <time>2021-11-20T19:46:13.989Z</time>
      </trkpt>
      <trkpt lat="47.639913" lon="7.811500">
        <ele>408.356460</ele>
        <time>2021-11-20T19:46:20.196Z</time>
      </trkpt>
      <trkpt lat="47.639913" lon="7.811500">
        <ele>408.356460</ele>
        <time>2021-11-20T19:46:20.291Z</time>
      </trkpt>
      <trkpt lat="47.639796" lon="7.811469">
        <ele>408.866159</ele>
        <time>2021-11-20T19:46:24.466Z</time>
      </trkpt>
      <trkpt lat="47.639195" lon="7.811442">
        <ele>411.444784</ele>
        <time>2021-11-20T19:46:46.926Z</time>
      </trkpt>
      <trkpt lat="47.638925" lon="7.811482">
        <ele>413.427604</ele>
        <time>2021-11-20T19:46:58.276Z</time>
      </trkpt>
      <trkpt lat="47.638511" lon="7.811552">
        <ele>416.577979</ele>
        <time>2021-11-20T19:47:16.956Z</time>
      </trkpt>
      <trkpt lat="47.637893" lon="7.811811">
        <ele>421.433216</ele>
        <time>2021-11-20T19:47:46.259Z</time>
      </trkpt>
      <trkpt lat="47.637370" lon="7.812117">
        <ele>425.679229</ele>
        <time>2021-11-20T19:48:14.981Z</time>
      </trkpt>
      <trkpt lat="47.637056" lon="7.812257">
        <ele>428.138131</ele>
        <time>2021-11-20T19:48:30.113Z</time>
      </trkpt>
      <trkpt lat="47.636514" lon="7.812384">
        <ele>432.253352</ele>
        <time>2021-11-20T19:48:54.055Z</time>
      </trkpt>
      <trkpt lat="47.636362" lon="7.812419">
        <ele>433.406954</ele>
        <time>2021-11-20T19:49:01.219Z</time>
      </trkpt>
      <trkpt lat="47.636234" lon="7.812469">
        <ele>434.399620</ele>
        <time>2021-11-20T19:49:06.522Z</time>
      </trkpt>
      <trkpt lat="47.635984" lon="7.812598">
        <ele>436.384661</ele>
        <time>2021-11-20T19:49:17.494Z</time>
      </trkpt>
      <trkpt lat="47.635678" lon="7.812872">
        <ele>439.082812</ele>
        <time>2021-11-20T19:49:33.011Z</time>
      </trkpt>
      <trkpt lat="47.635617" lon="7.812948">
        <ele>439.704270</ele>
        <time>2021-11-20T19:49:36.276Z</time>
      </trkpt>
      <trkpt lat="47.635537" lon="7.813043">
        <ele>440.503724</ele>
        <time>2021-11-20T19:49:41.397Z</time>
      </trkpt>
      <trkpt lat="47.635461" lon="7.813093">
        <ele>441.152385</ele>
        <time>2021-11-20T19:49:45.163Z</time>
      </trkpt>
      <trkpt lat="47.635241" lon="7.813237">
        <ele>443.028520</ele>
        <time>2021-11-20T19:49:55.837Z</time>
      </trkpt>
      <trkpt lat="47.634810" lon="7.813677">
        <ele>447.110352</ele>
        <time>2021-11-20T19:50:21.047Z</time>
      </trkpt>
      <trkpt lat="47.634638" lon="7.813802">
        <ele>448.604695</ele>
        <time>2021-11-20T19:50:29.282Z</time>
      </trkpt>
      <trkpt lat="47.634603" lon="7.813838">
        <ele>448.936971</ele>
        <time>2021-11-20T19:50:32.416Z</time>
      </trkpt>
      <trkpt lat="47.634267" lon="7.814103">
        <ele>451.905916</ele>
        <time>2021-11-20T19:50:49.766Z</time>
      </trkpt>
      <trkpt lat="47.634025" lon="7.814248">
        <ele>453.944602</ele>
        <time>2021-11-20T19:51:00.535Z</time>
      </trkpt>
      <trkpt lat="47.633899" lon="7.814255">
        <ele>454.930218</ele>
        <time>2021-11-20T19:51:07.081Z</time>
      </trkpt>
      <trkpt lat="47.633759" lon="7.814194">
        <ele>456.070777</ele>
        <time>2021-11-20T19:51:12.869Z</time>
      </trkpt>
      <trkpt lat="47.633391" lon="7.813533">
        <ele>460.587209</ele>
        <time>2021-11-20T19:51:43.250Z</time>
      </trkpt>
      <trkpt lat="47.633151" lon="7.812590">
        <ele>465.897003</ele>
        <time>2021-11-20T19:52:13.038Z</time>
      </trkpt>
      <trkpt lat="47.632938" lon="7.812283">
        <ele>468.075518</ele>
        <time>2021-11-20T19:52:24.566Z</time>
      </trkpt>
      <trkpt lat="47.632845" lon="7.812246">
        <ele>468.756674</ele>
        <time>2021-11-20T19:52:30.235Z</time>
      </trkpt>
      <trkpt lat="47.632790" lon="7.812277">
        <ele>469.172888</ele>
        <time>2021-11-20T19:52:32.633Z</time>
      </trkpt>
      <trkpt lat="47.632601" lon="7.813004">
        <ele>472.887693</ele>
        <time>2021-11-20T19:52:53.079Z</time>
      </trkpt>
      <trkpt lat="47.632573" lon="7.813067">
        <ele>473.247473</ele>
        <time>2021-11-20T19:52:55.974Z</time>
      </trkpt>
      <trkpt lat="47.632515" lon="7.813155">
        <ele>473.834296</ele>
        <time>2021-11-20T19:53:00.645Z</time>
      </trkpt>
      <trkpt lat="47.632179" lon="7.813790">
        <ele>477.683254</ele>
        <time>2021-11-20T19:53:21.696Z</time>
      </trkpt>
      <trkpt lat="47.632099" lon="7.813963">
        <ele>478.683516</ele>
        <time>2021-11-20T19:53:29.280Z</time>
      </trkpt>
      <trkpt lat="47.631707" lon="7.814641">
        <ele>483.502664</ele>
        <time>2021-11-20T19:53:56.162Z</time>
      </trkpt>
      <trkpt lat="47.631677" lon="7.814692">
        <ele>483.877048</ele>
        <time>2021-11-20T19:53:59.241Z</time>
      </trkpt>
      <trkpt lat="47.631227" lon="7.815205">
        <ele>488.533962</ele>
        <time>2021-11-20T19:54:26.483Z</time>
      </trkpt>
      <trkpt lat="47.631083" lon="7.815420">
        <ele>490.210363</ele>
        <time>2021-11-20T19:54:36.692Z</time>
      </trkpt>
      <trkpt lat="47.631021" lon="7.815514">
        <ele>490.937780</ele>
        <time>2021-11-20T19:54:40.953Z</time>
      </trkpt>
      <trkpt lat="47.630743" lon="7.815987">
        <ele>494.381959</ele>
        <time>2021-11-20T19:55:01.286Z</time>
      </trkpt>
      <trkpt lat="47.629850" lon="7.816905">
        <ele>502.140518</ele>
        <time>2021-11-20T19:55:54.816Z</time>
      </trkpt>
      <trkpt lat="47.629046" lon="7.818276">
        <ele>507.966240</ele>
        <time>2021-11-20T19:56:37.728Z</time>
      </trkpt>
      <trkpt lat="47.628903" lon="7.818442">
        <ele>508.276418</ele>
        <time>2021-11-20T19:56:42.785Z</time>
      </trkpt>
      <trkpt lat="47.628765" lon="7.818454">
        <ele>508.512580</ele>
        <time>2021-11-20T19:56:45.393Z</time>
      </trkpt>
      <trkpt lat="47.628583" lon="7.818470">
        <ele>508.824053</ele>
        <time>2021-11-20T19:56:49.330Z</time>
      </trkpt>
      <trkpt lat="47.627555" lon="7.818559">
        <ele>509.375806</ele>
        <time>2021-11-20T19:57:02.577Z</time>
      </trkpt>
      <trkpt lat="47.626983" lon="7.818622">
        <ele>507.799173</ele>
        <time>2021-11-20T19:57:08.462Z</time>
      </trkpt>
      <trkpt lat="47.626700" lon="7.818602">
        <ele>507.020384</ele>
        <time>2021-11-20T19:57:11.323Z</time>
      </trkpt>
      <trkpt lat="47.626443" lon="7.818467">
        <ele>506.270981</ele>
        <time>2021-11-20T19:57:14.054Z</time>
      </trkpt>
      <trkpt lat="47.625987" lon="7.818025">
        <ele>504.637917</ele>
        <time>2021-11-20T19:57:19.413Z</time>
      </trkpt>
      <trkpt lat="47.624281" lon="7.816985">
        <ele>497.446483</ele>
        <time>2021-11-20T19:57:37.795Z</time>
      </trkpt>
      <trkpt lat="47.623648" lon="7.816926">
        <ele>493.759102</ele>
        <time>2021-11-20T19:57:43.767Z</time>
      </trkpt>
      <trkpt lat="47.623368" lon="7.816962">
        <ele>492.125141</ele>
        <time>2021-11-20T19:57:46.343Z</time>
      </trkpt>
      <trkpt lat="47.623176" lon="7.817016">
        <ele>490.989015</ele>
        <time>2021-11-20T19:57:48.078Z</time>
      </trkpt>
      <trkpt lat="47.622635" lon="7.817204">
        <ele>487.700038</ele>
        <time>2021-11-20T19:57:53.121Z</time>
      </trkpt>
      <trkpt lat="47.622464" lon="7.817228">
        <ele>486.533464</ele>
        <time>2021-11-20T19:57:54.624Z</time>
      </trkpt>
      <trkpt lat="47.622034" lon="7.817274">
        <ele>483.605430</ele>
        <time>2021-11-20T19:57:58.428Z</time>
      </trkpt>
      <trkpt lat="47.621408" lon="7.817443">
        <ele>479.283980</ele>
        <time>2021-11-20T19:58:04.226Z</time>
      </trkpt>
      <trkpt lat="47.621327" lon="7.817470">
        <ele>478.720135</ele>
        <time>2021-11-20T19:58:04.936Z</time>
      </trkpt>
      <trkpt lat="47.621261" lon="7.817493">
        <ele>478.259680</ele>
        <time>2021-11-20T19:58:05.607Z</time>
      </trkpt>
      <trkpt lat="47.621173" lon="7.817554">
        <ele>477.599988</ele>
        <time>2021-11-20T19:58:06.511Z</time>
      </trkpt>
      <trkpt lat="47.621099" lon="7.817634">
        <ele>476.978121</ele>
        <time>2021-11-20T19:58:07.323Z</time>
      </trkpt>
      <trkpt lat="47.621041" lon="7.817725">
        <ele>476.404783</ele>
        <time>2021-11-20T19:58:08.062Z</time>
      </trkpt>
      <trkpt lat="47.620588" lon="7.818608">
        <ele>472.268478</ele>
        <time>2021-11-20T19:58:15.043Z</time>
      </trkpt>
      <trkpt lat="47.620135" lon="7.818917">
        <ele>469.581992</ele>
        <time>2021-11-20T19:58:19.705Z</time>
      </trkpt>
      <trkpt lat="47.620091" lon="7.818898">
        <ele>469.335073</ele>
        <time>2021-11-20T19:58:20.111Z</time>
      </trkpt>
      <trkpt lat="47.620052" lon="7.818861">
        <ele>469.085640</ele>
        <time>2021-11-20T19:58:20.571Z</time>
      </trkpt>
      <trkpt lat="47.619983" lon="7.818525">
        <ele>467.809948</ele>
        <time>2021-11-20T19:58:22.854Z</time>
      </trkpt>
      <trkpt lat="47.619948" lon="7.818387">
        <ele>467.274441</ele>
        <time>2021-11-20T19:58:23.773Z</time>
      </trkpt>
      <trkpt lat="47.619880" lon="7.818346">
        <ele>466.878941</ele>
        <time>2021-11-20T19:58:24.452Z</time>
      </trkpt>
      <trkpt lat="47.619481" lon="7.818077">
        <ele>464.685619</ele>
        <time>2021-11-20T19:58:28.623Z</time>
      </trkpt>
      <trkpt lat="47.619455" lon="7.818047">
        <ele>464.525883</ele>
        <time>2021-11-20T19:58:28.905Z</time>
      </trkpt>
      <trkpt lat="47.619414" lon="7.817980">
        <ele>464.230075</ele>
        <time>2021-11-20T19:58:29.524Z</time>
      </trkpt>
      <trkpt lat="47.619369" lon="7.817884">
        <ele>463.847840</ele>
        <time>2021-11-20T19:58:30.251Z</time>
      </trkpt>
      <trkpt lat="47.619286" lon="7.817698">
        <ele>463.118664</ele>
        <time>2021-11-20T19:58:31.669Z</time>
      </trkpt>
      <trkpt lat="47.619222" lon="7.817606">
        <ele>462.686488</ele>
        <time>2021-11-20T19:58:32.483Z</time>
      </trkpt>
      <trkpt lat="47.619023" lon="7.817353">
        <ele>461.415529</ele>
        <time>2021-11-20T19:58:34.957Z</time>
      </trkpt>
      <trkpt lat="47.618799" lon="7.817081">
        <ele>460.011732</ele>
        <time>2021-11-20T19:58:37.740Z</time>
      </trkpt>
      <trkpt lat="47.618674" lon="7.816980">
        <ele>459.321454</ele>
        <time>2021-11-20T19:58:39.061Z</time>
      </trkpt>
      <trkpt lat="47.618026" lon="7.816656">
        <ele>456.068178</ele>
        <time>2021-11-20T19:58:45.671Z</time>
      </trkpt>
      <trkpt lat="47.617819" lon="7.816612">
        <ele>455.097434</ele>
        <time>2021-11-20T19:58:47.644Z</time>
      </trkpt>
      <trkpt lat="47.617645" lon="7.816658">
        <ele>454.276970</ele>
        <time>2021-11-20T19:58:49.363Z</time>
      </trkpt>
      <trkpt lat="47.617591" lon="7.816685">
        <ele>454.012438</ele>
        <time>2021-11-20T19:58:49.901Z</time>
      </trkpt>
      <trkpt lat="47.617466" lon="7.816748">
        <ele>453.399593</ele>
        <time>2021-11-20T19:58:51.183Z</time>
      </trkpt>
      <trkpt lat="47.617373" lon="7.816786">
        <ele>452.951794</ele>
        <time>2021-11-20T19:58:52.155Z</time>
      </trkpt>
      <trkpt lat="47.617243" lon="7.816840">
        <ele>452.325101</ele>
        <time>2021-11-20T19:58:53.416Z</time>
      </trkpt>
      <trkpt lat="47.617000" lon="7.816677">
        <ele>451.087096</ele>
        <time>2021-11-20T19:58:56.058Z</time>
      </trkpt>
      <trkpt lat="47.616707" lon="7.816445">
        <ele>449.545319</ele>
        <time>2021-11-20T19:58:59.179Z</time>
      </trkpt>
      <trkpt lat="47.616632" lon="7.816335">
        <ele>449.043492</ele>
        <time>2021-11-20T19:59:00.136Z</time>
      </trkpt>
      <trkpt lat="47.616582" lon="7.816196">
        <ele>448.466192</ele>
        <time>2021-11-20T19:59:01.093Z</time>
      </trkpt>
      <trkpt lat="47.616439" lon="7.815458">
        <ele>445.652527</ele>
        <time>2021-11-20T19:59:06.000Z</time>
      </trkpt>
      <trkpt lat="47.616368" lon="7.815112">
        <ele>444.327278</ele>
        <time>2021-11-20T19:59:08.205Z</time>
      </trkpt>
      <trkpt lat="47.616291" lon="7.814920">
        <ele>443.508662</ele>
        <time>2021-11-20T19:59:09.659Z</time>
      </trkpt>
      <trkpt lat="47.616224" lon="7.814793">
        <ele>442.917738</ele>
        <time>2021-11-20T19:59:10.610Z</time>
      </trkpt>
      <trkpt lat="47.615803" lon="7.813616">
        <ele>438.226406</ele>
        <time>2021-11-20T19:59:19.044Z</time>
      </trkpt>
      <trkpt lat="47.615645" lon="7.813447">
        <ele>437.321377</ele>
        <time>2021-11-20T19:59:20.833Z</time>
      </trkpt>
      <trkpt lat="47.615387" lon="7.813324">
        <ele>436.062271</ele>
        <time>2021-11-20T19:59:23.422Z</time>
      </trkpt>
      <trkpt lat="47.614932" lon="7.812637">
        <ele>433.045815</ele>
        <time>2021-11-20T19:59:29.656Z</time>
      </trkpt>
      <trkpt lat="47.614764" lon="7.812475">
        <ele>432.114831</ele>
        <time>2021-11-20T19:59:31.614Z</time>
      </trkpt>
      <trkpt lat="47.614051" lon="7.812407">
        <ele>429.401866</ele>
        <time>2021-11-20T19:59:38.535Z</time>
      </trkpt>
      <trkpt lat="47.613868" lon="7.812544">
        <ele>428.712295</ele>
        <time>2021-11-20T19:59:40.529Z</time>
      </trkpt>
      <trkpt lat="47.613621" lon="7.812859">
        <ele>427.616525</ele>
        <time>2021-11-20T19:59:43.751Z</time>
      </trkpt>
      <trkpt lat="47.613501" lon="7.812899">
        <ele>427.202776</ele>
        <time>2021-11-20T19:59:44.997Z</time>
      </trkpt>
      <trkpt lat="47.612810" lon="7.813060">
        <ele>424.907918</ele>
        <time>2021-11-20T19:59:52.256Z</time>
      </trkpt>
      <trkpt lat="47.612555" lon="7.813076">
        <ele>424.586312</ele>
        <time>2021-11-20T19:59:55.045Z</time>
      </trkpt>
      <trkpt lat="47.612313" lon="7.813004">
        <ele>424.275302</ele>
        <time>2021-11-20T19:59:57.865Z</time>
      </trkpt>
      <trkpt lat="47.611013" lon="7.812221">
        <ele>422.417858</ele>
        <time>2021-11-20T20:00:15.579Z</time>
      </trkpt>
      <trkpt lat="47.610772" lon="7.811907">
        <ele>421.799737</ele>
        <time>2021-11-20T20:00:19.800Z</time>
      </trkpt>
      <trkpt lat="47.610233" lon="7.810909">
        <ele>420.138481</ele>
        <time>2021-11-20T20:00:29.615Z</time>
      </trkpt>
      <trkpt lat="47.609797" lon="7.810201">
        <ele>418.277441</ele>
        <time>2021-11-20T20:00:36.215Z</time>
      </trkpt>
      <trkpt lat="47.609427" lon="7.809753">
        <ele>415.574161</ele>
        <time>2021-11-20T20:00:40.750Z</time>
      </trkpt>
      <trkpt lat="47.608602" lon="7.809088">
        <ele>410.259825</ele>
        <time>2021-11-20T20:00:49.293Z</time>
      </trkpt>
      <trkpt lat="47.607803" lon="7.808223">
        <ele>403.393286</ele>
        <time>2021-11-20T20:00:58.101Z</time>
      </trkpt>
      <trkpt lat="47.607595" lon="7.808039">
        <ele>401.624793</ele>
        <time>2021-11-20T20:01:00.237Z</time>
      </trkpt>
      <trkpt lat="47.607385" lon="7.807967">
        <ele>400.050883</ele>
        <time>2021-11-20T20:01:02.162Z</time>
      </trkpt>
      <trkpt lat="47.606698" lon="7.808066">
        <ele>395.169075</ele>
        <time>2021-11-20T20:01:08.335Z</time>
      </trkpt>
      <trkpt lat="47.605899" lon="7.808010">
        <ele>390.373331</ele>
        <time>2021-11-20T20:01:15.680Z</time>
      </trkpt>
      <trkpt lat="47.605468" lon="7.808045">
        <ele>387.785404</ele>
        <time>2021-11-20T20:01:19.718Z</time>
      </trkpt>
      <trkpt lat="47.604338" lon="7.808356">
        <ele>380.959025</ele>
        <time>2021-11-20T20:01:30.291Z</time>
      </trkpt>
      <trkpt lat="47.604147" lon="7.808404">
        <ele>379.815239</ele>
        <time>2021-11-20T20:01:32.081Z</time>
      </trkpt>
      <trkpt lat="47.603933" lon="7.808453">
        <ele>378.536761</ele>
        <time>2021-11-20T20:01:33.991Z</time>
      </trkpt>
      <trkpt lat="47.603664" lon="7.808428">
        <ele>376.945403</ele>
        <time>2021-11-20T20:01:36.489Z</time>
      </trkpt>
      <trkpt lat="47.603050" lon="7.808058">
        <ele>373.583534</ele>
        <time>2021-11-20T20:01:42.683Z</time>
      </trkpt>
      <trkpt lat="47.602603" lon="7.807841">
        <ele>371.854619</ele>
        <time>2021-11-20T20:01:47.113Z</time>
      </trkpt>
      <trkpt lat="47.602352" lon="7.807799">
        <ele>370.926113</ele>
        <time>2021-11-20T20:01:49.674Z</time>
      </trkpt>
      <trkpt lat="47.602242" lon="7.807771">
        <ele>370.515851</ele>
        <time>2021-11-20T20:01:50.778Z</time>
      </trkpt>
      <trkpt lat="47.601856" lon="7.807444">
        <ele>368.881784</ele>
        <time>2021-11-20T20:01:55.385Z</time>
      </trkpt>
      <trkpt lat="47.601434" lon="7.806809">
        <ele>367.381805</ele>
        <time>2021-11-20T20:02:01.894Z</time>
      </trkpt>
      <trkpt lat="47.600919" lon="7.805847">
        <ele>366.124666</ele>
        <time>2021-11-20T20:02:12.700Z</time>
      </trkpt>
      <trkpt lat="47.600707" lon="7.805537">
        <ele>365.672775</ele>
        <time>2021-11-20T20:02:16.136Z</time>
      </trkpt>
      <trkpt lat="47.600367" lon="7.805144">
        <ele>364.865038</ele>
        <time>2021-11-20T20:02:20.875Z</time>
      </trkpt>
      <trkpt lat="47.599983" lon="7.804755">
        <ele>363.342224</ele>
        <time>2021-11-20T20:02:25.774Z</time>
      </trkpt>
      <trkpt lat="47.598398" lon="7.802889">
        <ele>356.812329</ele>
        <time>2021-11-20T20:02:45.722Z</time>
      </trkpt>
      <trkpt lat="47.598146" lon="7.802509">
        <ele>355.680299</ele>
        <time>2021-11-20T20:02:49.379Z</time>
      </trkpt>
      <trkpt lat="47.597927" lon="7.802250">
        <ele>354.797990</ele>
        <time>2021-11-20T20:02:52.326Z</time>
      </trkpt>
      <trkpt lat="47.597625" lon="7.801971">
        <ele>353.677255</ele>
        <time>2021-11-20T20:02:56.129Z</time>
      </trkpt>
      <trkpt lat="47.596866" lon="7.801508">
        <ele>352.238888</ele>
        <time>2021-11-20T20:03:04.864Z</time>
      </trkpt>
      <trkpt lat="47.596631" lon="7.801307">
        <ele>351.775767</ele>
        <time>2021-11-20T20:03:08.121Z</time>
      </trkpt>
      <trkpt lat="47.596154" lon="7.800842">
        <ele>350.801275</ele>
        <time>2021-11-20T20:03:15.078Z</time>
      </trkpt>
      <trkpt lat="47.596083" lon="7.800764">
        <ele>350.650432</ele>
        <time>2021-11-20T20:03:16.096Z</time>
      </trkpt>
      <trkpt lat="47.595950" lon="7.800596">
        <ele>350.450939</ele>
        <time>2021-11-20T20:03:18.167Z</time>
      </trkpt>
      <trkpt lat="47.595757" lon="7.800208">
        <ele>350.212579</ele>
        <time>2021-11-20T20:03:22.038Z</time>
      </trkpt>
      <trkpt lat="47.595466" lon="7.799497">
        <ele>349.801396</ele>
        <time>2021-11-20T20:03:28.514Z</time>
      </trkpt>
      <trkpt lat="47.595383" lon="7.799322">
        <ele>349.695622</ele>
        <time>2021-11-20T20:03:30.258Z</time>
      </trkpt>
      <trkpt lat="47.594957" lon="7.798605">
        <ele>349.223190</ele>
        <time>2021-11-20T20:03:38.348Z</time>
      </trkpt>
      <trkpt lat="47.594663" lon="7.797229">
        <ele>351.823293</ele>
        <time>2021-11-20T20:04:01.057Z</time>
      </trkpt>
      <trkpt lat="47.594601" lon="7.796746">
        <ele>352.735754</ele>
        <time>2021-11-20T20:04:10.556Z</time>
      </trkpt>
      <trkpt lat="47.594060" lon="7.796856">
        <ele>354.300585</ele>
        <time>2021-11-20T20:04:28.251Z</time>
      </trkpt>
      <trkpt lat="47.593608" lon="7.796793">
        <ele>356.495277</ele>
        <time>2021-11-20T20:04:43.733Z</time>
      </trkpt>
      <trkpt lat="47.592802" lon="7.796368">
        <ele>360.630667</ele>
        <time>2021-11-20T20:05:16.324Z</time>
      </trkpt>
      <trkpt lat="47.592429" lon="7.796406">
        <ele>362.438076</ele>
        <time>2021-11-20T20:05:28.473Z</time>
      </trkpt>
      <trkpt lat="47.592114" lon="7.796545">
        <ele>363.211303</ele>
        <time>2021-11-20T20:05:37.605Z</time>
      </trkpt>
      <trkpt lat="47.591728" lon="7.796915">
        <ele>363.891598</ele>
        <time>2021-11-20T20:05:49.268Z</time>
      </trkpt>
      <trkpt lat="47.591349" lon="7.797193">
        <ele>364.517436</ele>
        <time>2021-11-20T20:05:58.178Z</time>
      </trkpt>
      <trkpt lat="47.590924" lon="7.797504">
        <ele>365.218906</ele>
        <time>2021-11-20T20:06:05.343Z</time>
      </trkpt>
      <trkpt lat="47.589963" lon="7.798050">
        <ele>364.194260</ele>
        <time>2021-11-20T20:06:17.746Z</time>
      </trkpt>
      <trkpt lat="47.589924" lon="7.798072">
        <ele>364.127937</ele>
        <time>2021-11-20T20:06:18.167Z</time>
      </trkpt>
      <trkpt lat="47.589692" lon="7.798248">
        <ele>363.713725</ele>
        <time>2021-11-20T20:06:21.023Z</time>
      </trkpt>
      <trkpt lat="47.589486" lon="7.798387">
        <ele>363.353989</ele>
        <time>2021-11-20T20:06:23.508Z</time>
      </trkpt>
      <trkpt lat="47.589272" lon="7.798569">
        <ele>362.961867</ele>
        <time>2021-11-20T20:06:26.185Z</time>
      </trkpt>
      <trkpt lat="47.589153" lon="7.798651">
        <ele>362.753296</ele>
        <time>2021-11-20T20:06:27.697Z</time>
      </trkpt>
      <trkpt lat="47.589010" lon="7.798691">
        <ele>362.421610</ele>
        <time>2021-11-20T20:06:29.247Z</time>
      </trkpt>
      <trkpt lat="47.588797" lon="7.798670">
        <ele>361.825709</ele>
        <time>2021-11-20T20:06:31.546Z</time>
      </trkpt>
      <trkpt lat="47.588390" lon="7.798556">
        <ele>360.669478</ele>
        <time>2021-11-20T20:06:35.817Z</time>
      </trkpt>
      <trkpt lat="47.588177" lon="7.798477">
        <ele>360.056570</ele>
        <time>2021-11-20T20:06:38.145Z</time>
      </trkpt>
      <trkpt lat="47.587698" lon="7.798426">
        <ele>358.716004</ele>
        <time>2021-11-20T20:06:43.148Z</time>
      </trkpt>
      <trkpt lat="47.587388" lon="7.798430">
        <ele>357.850609</ele>
        <time>2021-11-20T20:06:46.264Z</time>
      </trkpt>
      <trkpt lat="47.587282" lon="7.798453">
        <ele>357.524718</ele>
        <time>2021-11-20T20:06:47.301Z</time>
      </trkpt>
      <trkpt lat="47.586543" lon="7.798436">
        <ele>354.788525</ele>
        <time>2021-11-20T20:06:54.635Z</time>
      </trkpt>
      <trkpt lat="47.586281" lon="7.798381">
        <ele>353.808896</ele>
        <time>2021-11-20T20:06:57.329Z</time>
      </trkpt>
      <trkpt lat="47.585911" lon="7.798303">
        <ele>352.425336</ele>
        <time>2021-11-20T20:07:00.953Z</time>
      </trkpt>
      <trkpt lat="47.585534" lon="7.798199">
        <ele>351.005684</ele>
        <time>2021-11-20T20:07:04.711Z</time>
      </trkpt>
      <trkpt lat="47.585233" lon="7.798047">
        <ele>349.822455</ele>
        <time>2021-11-20T20:07:07.819Z</time>
      </trkpt>
      <trkpt lat="47.584729" lon="7.797820">
        <ele>347.862138</ele>
        <time>2021-11-20T20:07:13.011Z</time>
      </trkpt>
      <trkpt lat="47.584517" lon="7.797802">
        <ele>347.071870</ele>
        <time>2021-11-20T20:07:15.041Z</time>
      </trkpt>
      <trkpt lat="47.583508" lon="7.797910">
        <ele>343.158517</ele>
        <time>2021-11-20T20:07:25.276Z</time>
      </trkpt>
      <trkpt lat="47.582752" lon="7.797833">
        <ele>339.908486</ele>
        <time>2021-11-20T20:07:32.709Z</time>
      </trkpt>
      <trkpt lat="47.582160" lon="7.797772">
        <ele>337.363348</ele>
        <time>2021-11-20T20:07:38.392Z</time>
      </trkpt>
      <trkpt lat="47.581869" lon="7.797750">
        <ele>335.752990</ele>
        <time>2021-11-20T20:07:41.123Z</time>
      </trkpt>
      <trkpt lat="47.581379" lon="7.797757">
        <ele>331.979695</ele>
        <time>2021-11-20T20:07:45.574Z</time>
      </trkpt>
      <trkpt lat="47.580966" lon="7.797737">
        <ele>328.797798</ele>
        <time>2021-11-20T20:07:49.256Z</time>
      </trkpt>
      <trkpt lat="47.580444" lon="7.797575">
        <ele>324.691138</ele>
        <time>2021-11-20T20:07:53.919Z</time>
      </trkpt>
      <trkpt lat="47.580222" lon="7.797578">
        <ele>322.981613</ele>
        <time>2021-11-20T20:07:55.829Z</time>
      </trkpt>
      <trkpt lat="47.579900" lon="7.797779">
        <ele>319.789744</ele>
        <time>2021-11-20T20:07:58.847Z</time>
      </trkpt>
      <trkpt lat="47.579284" lon="7.798330">
        <ele>313.104432</ele>
        <time>2021-11-20T20:08:05.047Z</time>
      </trkpt>
      <trkpt lat="47.579085" lon="7.798411">
        <ele>311.186831</ele>
        <time>2021-11-20T20:08:06.822Z</time>
      </trkpt>
      <trkpt lat="47.578882" lon="7.798252">
        <ele>309.053388</ele>
        <time>2021-11-20T20:08:08.815Z</time>
      </trkpt>
      <trkpt lat="47.578679" lon="7.797723">
        <ele>305.522767</ele>
        <time>2021-11-20T20:08:12.427Z</time>
      </trkpt>
      <trkpt lat="47.578554" lon="7.797534">
        <ele>304.480116</ele>
        <time>2021-11-20T20:08:14.017Z</time>
      </trkpt>
      <trkpt lat="47.577944" lon="7.797172">
        <ele>300.643156</ele>
        <time>2021-11-20T20:08:19.949Z</time>
      </trkpt>
      <trkpt lat="47.577686" lon="7.796814">
        <ele>298.579491</ele>
        <time>2021-11-20T20:08:23.244Z</time>
      </trkpt>
      <trkpt lat="47.577609" lon="7.796684">
        <ele>297.897995</ele>
        <time>2021-11-20T20:08:24.384Z</time>
      </trkpt>
      <trkpt lat="47.577554" lon="7.796595">
        <ele>297.422523</ele>
        <time>2021-11-20T20:08:25.184Z</time>
      </trkpt>
      <trkpt lat="47.577537" lon="7.796525">
        <ele>297.129446</ele>
        <time>2021-11-20T20:08:25.662Z</time>
      </trkpt>
      <trkpt lat="47.577514" lon="7.796460">
        <ele>296.840303</ele>
        <time>2021-11-20T20:08:26.134Z</time>
      </trkpt>
      <trkpt lat="47.577487" lon="7.796404">
        <ele>296.569150</ele>
        <time>2021-11-20T20:08:26.564Z</time>
      </trkpt>
      <trkpt lat="47.577336" lon="7.796248">
        <ele>295.498257</ele>
        <time>2021-11-20T20:08:28.431Z</time>
      </trkpt>
      <trkpt lat="47.577291" lon="7.796229">
        <ele>295.402277</ele>
        <time>2021-11-20T20:08:28.894Z</time>
      </trkpt>
      <trkpt lat="47.577222" lon="7.796219">
        <ele>295.260063</ele>
        <time>2021-11-20T20:08:29.568Z</time>
      </trkpt>
      <trkpt lat="47.577124" lon="7.796239">
        <ele>295.057140</ele>
        <time>2021-11-20T20:08:30.533Z</time>
      </trkpt>
      <trkpt lat="47.576960" lon="7.796396">
        <ele>294.656674</ele>
        <time>2021-11-20T20:08:32.683Z</time>
      </trkpt>
      <trkpt lat="47.576906" lon="7.796519">
        <ele>294.453596</ele>
        <time>2021-11-20T20:08:33.673Z</time>
      </trkpt>
      <trkpt lat="47.576884" lon="7.796617">
        <ele>294.310672</ele>
        <time>2021-11-20T20:08:34.420Z</time>
      </trkpt>
      <trkpt lat="47.576845" lon="7.796669">
        <ele>294.203071</ele>
        <time>2021-11-20T20:08:35.023Z</time>
      </trkpt>
      <trkpt lat="47.576565" lon="7.796902">
        <ele>293.544397</ele>
        <time>2021-11-20T20:08:38.732Z</time>
      </trkpt>
      <trkpt lat="47.576087" lon="7.797118">
        <ele>292.519331</ele>
        <time>2021-11-20T20:08:44.592Z</time>
      </trkpt>
      <trkpt lat="47.575978" lon="7.797131">
        <ele>292.295018</ele>
        <time>2021-11-20T20:08:45.768Z</time>
      </trkpt>
      <trkpt lat="47.575955" lon="7.797114">
        <ele>292.242298</ele>
        <time>2021-11-20T20:08:46.046Z</time>
      </trkpt>
      <trkpt lat="47.575928" lon="7.797105">
        <ele>292.185530</ele>
        <time>2021-11-20T20:08:46.359Z</time>
      </trkpt>
      <trkpt lat="47.575913" lon="7.797101">
        <ele>292.154267</ele>
        <time>2021-11-20T20:08:46.546Z</time>
      </trkpt>
      <trkpt lat="47.575798" lon="7.797141">
        <ele>291.911961</ele>
        <time>2021-11-20T20:08:47.921Z</time>
      </trkpt>
      <trkpt lat="47.575766" lon="7.797180">
        <ele>291.826982</ele>
        <time>2021-11-20T20:08:48.488Z</time>
      </trkpt>
      <trkpt lat="47.575752" lon="7.797206">
        <ele>291.800622</ele>
        <time>2021-11-20T20:08:48.780Z</time>
      </trkpt>
      <trkpt lat="47.575736" lon="7.797256">
        <ele>291.774472</ele>
        <time>2021-11-20T20:08:49.241Z</time>
      </trkpt>
      <trkpt lat="47.575731" lon="7.797285">
        <ele>291.760328</ele>
        <time>2021-11-20T20:08:49.463Z</time>
      </trkpt>
      <trkpt lat="47.575703" lon="7.797314">
        <ele>291.736403</ele>
        <time>2021-11-20T20:08:49.842Z</time>
      </trkpt>
      <trkpt lat="47.575578" lon="7.797427">
        <ele>291.633851</ele>
        <time>2021-11-20T20:08:51.573Z</time>
      </trkpt>
      <trkpt lat="47.575499" lon="7.797497">
        <ele>291.569384</ele>
        <time>2021-11-20T20:08:52.726Z</time>
      </trkpt>
      <trkpt lat="47.575391" lon="7.797551">
        <ele>291.489550</ele>
        <time>2021-11-20T20:08:54.127Z</time>
      </trkpt>
      <trkpt lat="47.575240" lon="7.797626">
        <ele>291.378004</ele>
        <time>2021-11-20T20:08:56.190Z</time>
      </trkpt>
      <trkpt lat="47.574910" lon="7.797787">
        <ele>291.134662</ele>
        <time>2021-11-20T20:09:00.755Z</time>
      </trkpt>
      <trkpt lat="47.574296" lon="7.798050">
        <ele>290.686998</ele>
        <time>2021-11-20T20:09:09.549Z</time>
      </trkpt>
      <trkpt lat="47.573813" lon="7.798212">
        <ele>290.366387</ele>
        <time>2021-11-20T20:09:16.034Z</time>
      </trkpt>
      <trkpt lat="47.573410" lon="7.798344">
        <ele>290.113295</ele>
        <time>2021-11-20T20:09:21.413Z</time>
      </trkpt>
      <trkpt lat="47.573055" lon="7.798459">
        <ele>289.890462</ele>
        <time>2021-11-20T20:09:26.085Z</time>
      </trkpt>
      <trkpt lat="47.572628" lon="7.798599">
        <ele>289.622285</ele>
        <time>2021-11-20T20:09:31.741Z</time>
      </trkpt>
      <trkpt lat="47.572527" lon="7.798632">
        <ele>289.558863</ele>
        <time>2021-11-20T20:09:33.050Z</time>
      </trkpt>
      <trkpt lat="47.572308" lon="7.798703">
        <ele>289.409290</ele>
        <time>2021-11-20T20:09:35.998Z</time>
      </trkpt>
      <trkpt lat="47.571985" lon="7.798809">
        <ele>289.114209</ele>
        <time>2021-11-20T20:09:40.239Z</time>
      </trkpt>
      <trkpt lat="47.571921" lon="7.798830">
        <ele>289.055741</ele>
        <time>2021-11-20T20:09:41.017Z</time>
      </trkpt>
      <trkpt lat="47.571202" lon="7.799089">
        <ele>288.395751</ele>
        <time>2021-11-20T20:09:49.858Z</time>
      </trkpt>
      <trkpt lat="47.569912" lon="7.799564">
        <ele>287.394246</ele>
        <time>2021-11-20T20:10:06.761Z</time>
      </trkpt>
      <trkpt lat="47.569327" lon="7.799762">
        <ele>287.014549</ele>
        <time>2021-11-20T20:10:14.182Z</time>
      </trkpt>
      <trkpt lat="47.569185" lon="7.799810">
        <ele>286.922390</ele>
        <time>2021-11-20T20:10:16.258Z</time>
      </trkpt>
      <trkpt lat="47.568406" lon="7.800053">
        <ele>286.536711</ele>
        <time>2021-11-20T20:10:27.520Z</time>
      </trkpt>
      <trkpt lat="47.568384" lon="7.800059">
        <ele>286.528380</ele>
        <time>2021-11-20T20:10:27.764Z</time>
      </trkpt>
      <trkpt lat="47.568315" lon="7.800179">
        <ele>286.488763</ele>
        <time>2021-11-20T20:10:29.227Z</time>
      </trkpt>
      <trkpt lat="47.568185" lon="7.800003">
        <ele>286.423191</ele>
        <time>2021-11-20T20:10:32.162Z</time>
      </trkpt>
      <trkpt lat="47.567987" lon="7.799745">
        <ele>286.325006</ele>
        <time>2021-11-20T20:10:35.784Z</time>
      </trkpt>
      <trkpt lat="47.567788" lon="7.799488">
        <ele>286.226707</ele>
        <time>2021-11-20T20:10:39.281Z</time>
      </trkpt>
      <trkpt lat="47.567386" lon="7.798946">
        <ele>285.979977</ele>
        <time>2021-11-20T20:10:46.319Z</time>
      </trkpt>
      <trkpt lat="47.567213" lon="7.798707">
        <ele>285.549531</ele>
        <time>2021-11-20T20:10:49.308Z</time>
      </trkpt>
      <trkpt lat="47.567200" lon="7.798690">
        <ele>285.517977</ele>
        <time>2021-11-20T20:10:49.526Z</time>
      </trkpt>
      <trkpt lat="47.567008" lon="7.798425">
        <ele>285.040463</ele>
        <time>2021-11-20T20:10:53.268Z</time>
      </trkpt>
      <trkpt lat="47.566478" lon="7.797694">
        <ele>283.722749</ele>
        <time>2021-11-20T20:11:01.858Z</time>
      </trkpt>
      <trkpt lat="47.566454" lon="7.797771">
        <ele>283.618588</ele>
        <time>2021-11-20T20:11:02.483Z</time>
      </trkpt>
      <trkpt lat="47.566114" lon="7.798822">
        <ele>281.317485</ele>
        <time>2021-11-20T20:11:10.241Z</time>
      </trkpt>
      <trkpt lat="47.565704" lon="7.800090">
        <ele>276.978318</ele>
        <time>2021-11-20T20:11:19.156Z</time>
      </trkpt>
      <trkpt lat="47.565627" lon="7.800333">
        <ele>276.149838</ele>
        <time>2021-11-20T20:11:21.596Z</time>
      </trkpt>
      <trkpt lat="47.565490" lon="7.800752">
        <ele>274.712973</ele>
        <time>2021-11-20T20:11:25.904Z</time>
      </trkpt>
      <trkpt lat="47.565485" lon="7.800897">
        <ele>274.362168</ele>
        <time>2021-11-20T20:11:27.172Z</time>
      </trkpt>
      <trkpt lat="47.565517" lon="7.801041">
        <ele>274.062278</ele>
        <time>2021-11-20T20:11:28.162Z</time>
      </trkpt>
      <trkpt lat="47.566334" lon="7.802192">
        <ele>270.757754</ele>
        <time>2021-11-20T20:11:39.383Z</time>
      </trkpt>
      <trkpt lat="47.566532" lon="7.802465">
        <ele>269.964962</ele>
        <time>2021-11-20T20:11:42.455Z</time>
      </trkpt>
      <trkpt lat="47.567287" lon="7.803523">
        <ele>269.092436</ele>
        <time>2021-11-20T20:11:57.061Z</time>
      </trkpt>
      <trkpt lat="47.567503" lon="7.803912">
        <ele>269.019936</ele>
        <time>2021-11-20T20:12:02.028Z</time>
      </trkpt>
      <trkpt lat="47.567677" lon="7.804308">
        <ele>268.951930</ele>
        <time>2021-11-20T20:12:06.753Z</time>
      </trkpt>
      <trkpt lat="47.567792" lon="7.804628">
        <ele>268.899755</ele>
        <time>2021-11-20T20:12:10.397Z</time>
      </trkpt>
      <trkpt lat="47.568803" lon="7.807323">
        <ele>269.677294</ele>
        <time>2021-11-20T20:12:43.395Z</time>
      </trkpt>
      <trkpt lat="47.568962" lon="7.807589">
        <ele>269.995268</ele>
        <time>2021-11-20T20:12:47.379Z</time>
      </trkpt>
      <trkpt lat="47.570185" lon="7.808855">
        <ele>272.249377</ele>
        <time>2021-11-20T20:13:18.536Z</time>
      </trkpt>
      <trkpt lat="47.570299" lon="7.808969">
        <ele>272.750264</ele>
        <time>2021-11-20T20:13:21.997Z</time>
      </trkpt>
      <trkpt lat="47.570259" lon="7.809051">
        <ele>272.998922</ele>
        <time>2021-11-20T20:13:23.640Z</time>
      </trkpt>
      <trkpt lat="47.570230" lon="7.809116">
        <ele>273.190418</ele>
        <time>2021-11-20T20:13:25.118Z</time>
      </trkpt>
      <trkpt lat="47.569631" lon="7.810538">
        <ele>277.310003</ele>
        <time>2021-11-20T20:13:59.113Z</time>
      </trkpt>
      <trkpt lat="47.569571" lon="7.810680">
        <ele>277.721740</ele>
        <time>2021-11-20T20:14:02.808Z</time>
      </trkpt>
      <trkpt lat="47.568896" lon="7.812282">
        <ele>283.621134</ele>
        <time>2021-11-20T20:14:49.361Z</time>
      </trkpt>
      <trkpt lat="47.568525" lon="7.813167">
        <ele>286.984770</ele>
        <time>2021-11-20T20:15:11.569Z</time>
      </trkpt>
      <trkpt lat="47.568430" lon="7.813371">
        <ele>287.487597</ele>
        <time>2021-11-20T20:15:16.952Z</time>
      </trkpt>
      <trkpt lat="47.568248" lon="7.813814">
        <ele>288.539741</ele>
        <time>2021-11-20T20:15:27.360Z</time>
      </trkpt>
      <trkpt lat="47.568572" lon="7.814114">
        <ele>289.688343</ele>
        <time>2021-11-20T20:15:38.140Z</time>
      </trkpt>
      <trkpt lat="47.568480" lon="7.814364">
        <ele>290.266013</ele>
        <time>2021-11-20T20:15:42.662Z</time>
      </trkpt>
      <trkpt lat="47.568245" lon="7.815273">
        <ele>292.240709</ele>
        <time>2021-11-20T20:15:59.090Z</time>
      </trkpt>
      <trkpt lat="47.568209" lon="7.815459">
        <ele>292.471808</ele>
        <time>2021-11-20T20:16:02.629Z</time>
      </trkpt>
      <trkpt lat="47.567988" lon="7.816752">
        <ele>293.397764</ele>
        <time>2021-11-20T20:16:20.097Z</time>
      </trkpt>
      <trkpt lat="47.568049" lon="7.817619">
        <ele>294.002901</ele>
        <time>2021-11-20T20:16:31.152Z</time>
      </trkpt>
      <trkpt lat="47.568146" lon="7.818228">
        <ele>294.136695</ele>
        <time>2021-11-20T20:16:37.205Z</time>
      </trkpt>
      <trkpt lat="47.568272" lon="7.818798">
        <ele>293.923711</ele>
        <time>2021-11-20T20:17:08.282Z</time>
      </trkpt>
      <trkpt lat="47.568311" lon="7.819210">
        <ele>293.775984</ele>
        <time>2021-11-20T20:17:29.815Z</time>
      </trkpt>
      <trkpt lat="47.568417" lon="7.819772">
        <ele>293.568777</ele>
        <time>2021-11-20T20:17:59.954Z</time>
      </trkpt>
      <trkpt lat="47.568443" lon="7.820342">
        <ele>293.365918</ele>
        <time>2021-11-20T20:18:29.398Z</time>
      </trkpt>
      <trkpt lat="47.568400" lon="7.820924">
        <ele>293.288722</ele>
        <time>2021-11-20T20:18:59.639Z</time>
      </trkpt>
      <trkpt lat="47.568380" lon="7.822935">
        <ele>293.272094</ele>
        <time>2021-11-20T20:19:20.034Z</time>
      </trkpt>
      <trkpt lat="47.568448" lon="7.824552">
        <ele>293.526361</ele>
        <time>2021-11-20T20:19:38.645Z</time>
      </trkpt>
      <trkpt lat="47.568503" lon="7.825849">
        <ele>293.774735</ele>
        <time>2021-11-20T20:19:51.950Z</time>
      </trkpt>
      <trkpt lat="47.568555" lon="7.826544">
        <ele>293.826574</ele>
        <time>2021-11-20T20:19:58.987Z</time>
      </trkpt>
      <trkpt lat="47.568659" lon="7.828544">
        <ele>293.973413</ele>
        <time>2021-11-20T20:20:19.470Z</time>
      </trkpt>
      <trkpt lat="47.568703" lon="7.829421">
        <ele>294.398373</ele>
        <time>2021-11-20T20:20:29.208Z</time>
      </trkpt>
      <trkpt lat="47.568703" lon="7.829453">
        <ele>294.413836</ele>
        <time>2021-11-20T20:20:29.558Z</time>
      </trkpt>
      <trkpt lat="47.568745" lon="7.830356">
        <ele>294.851225</ele>
        <time>2021-11-20T20:20:40.414Z</time>
      </trkpt>
      <trkpt lat="47.568775" lon="7.830924">
        <ele>295.126538</ele>
        <time>2021-11-20T20:20:47.578Z</time>
      </trkpt>
      <trkpt lat="47.568760" lon="7.831139">
        <ele>295.230985</ele>
        <time>2021-11-20T20:20:50.362Z</time>
      </trkpt>
      <trkpt lat="47.568694" lon="7.831293">
        <ele>295.370418</ele>
        <time>2021-11-20T20:20:52.811Z</time>
      </trkpt>
      <trkpt lat="47.568550" lon="7.831407">
        <ele>295.579510</ele>
        <time>2021-11-20T20:20:56.152Z</time>
      </trkpt>
      <trkpt lat="47.567257" lon="7.831926">
        <ele>297.295204</ele>
        <time>2021-11-20T20:21:23.727Z</time>
      </trkpt>
      <trkpt lat="47.566920" lon="7.832056">
        <ele>297.654916</ele>
        <time>2021-11-20T20:21:30.454Z</time>
      </trkpt>
      <trkpt lat="47.566755" lon="7.832115">
        <ele>297.770056</ele>
        <time>2021-11-20T20:21:33.555Z</time>
      </trkpt>
      <trkpt lat="47.566477" lon="7.832241">
        <ele>297.967260</ele>
        <time>2021-11-20T20:21:38.867Z</time>
      </trkpt>
      <trkpt lat="47.566366" lon="7.832333">
        <ele>298.053532</ele>
        <time>2021-11-20T20:21:41.133Z</time>
      </trkpt>
      <trkpt lat="47.566744" lon="7.833235">
        <ele>298.539533</ele>
        <time>2021-11-20T20:21:53.256Z</time>
      </trkpt>
      <trkpt lat="47.567179" lon="7.834275">
        <ele>299.038060</ele>
        <time>2021-11-20T20:22:06.546Z</time>
      </trkpt>
      <trkpt lat="47.567558" lon="7.835042">
        <ele>299.389974</ele>
        <time>2021-11-20T20:22:17.615Z</time>
      </trkpt>
      <trkpt lat="47.567674" lon="7.835182">
        <ele>299.472045</ele>
        <time>2021-11-20T20:22:20.108Z</time>
      </trkpt>
      <trkpt lat="47.567566" lon="7.835567">
        <ele>299.626385</ele>
        <time>2021-11-20T20:22:24.964Z</time>
      </trkpt>
      <trkpt lat="47.567562" lon="7.835760">
        <ele>299.697860</ele>
        <time>2021-11-20T20:22:27.262Z</time>
      </trkpt>
      <trkpt lat="47.567583" lon="7.836155">
        <ele>299.867258</ele>
        <time>2021-11-20T20:22:31.920Z</time>
      </trkpt>
      <trkpt lat="47.567647" lon="7.836576">
        <ele>300.072452</ele>
        <time>2021-11-20T20:22:37.120Z</time>
      </trkpt>
      <trkpt lat="47.567670" lon="7.836721">
        <ele>300.143276</ele>
        <time>2021-11-20T20:22:38.923Z</time>
      </trkpt>
      <trkpt lat="47.567822" lon="7.837479">
        <ele>300.519269</ele>
        <time>2021-11-20T20:22:48.750Z</time>
      </trkpt>
      <trkpt lat="47.567944" lon="7.838073">
        <ele>300.814498</ele>
        <time>2021-11-20T20:22:56.399Z</time>
      </trkpt>
      <trkpt lat="47.567961" lon="7.838248">
        <ele>300.898564</ele>
        <time>2021-11-20T20:22:58.403Z</time>
      </trkpt>
      <trkpt lat="47.567936" lon="7.838380">
        <ele>300.963753</ele>
        <time>2021-11-20T20:23:00.074Z</time>
      </trkpt>
      <trkpt lat="47.567846" lon="7.838609">
        <ele>301.081019</ele>
        <time>2021-11-20T20:23:02.799Z</time>
      </trkpt>
      <trkpt lat="47.567823" lon="7.838648">
        <ele>301.101910</ele>
        <time>2021-11-20T20:23:03.391Z</time>
      </trkpt>
      <trkpt lat="47.567634" lon="7.839037">
        <ele>301.295245</ele>
        <time>2021-11-20T20:23:08.438Z</time>
      </trkpt>
      <trkpt lat="47.567626" lon="7.839064">
        <ele>301.307138</ele>
        <time>2021-11-20T20:23:08.816Z</time>
      </trkpt>
      <trkpt lat="47.567564" lon="7.839283">
        <ele>301.402925</ele>
        <time>2021-11-20T20:23:11.481Z</time>
      </trkpt>
      <trkpt lat="47.567530" lon="7.839459">
        <ele>301.476761</ele>
        <time>2021-11-20T20:23:13.517Z</time>
      </trkpt>
      <trkpt lat="47.567510" lon="7.839548">
        <ele>301.514595</ele>
        <time>2021-11-20T20:23:14.556Z</time>
      </trkpt>
      <trkpt lat="47.567481" lon="7.839664">
        <ele>301.564489</ele>
        <time>2021-11-20T20:23:15.764Z</time>
      </trkpt>
      <trkpt lat="47.567406" lon="7.839778">
        <ele>301.628706</ele>
        <time>2021-11-20T20:23:17.974Z</time>
      </trkpt>
      <trkpt lat="47.567260" lon="7.839887">
        <ele>301.726426</ele>
        <time>2021-11-20T20:23:20.758Z</time>
      </trkpt>
      <trkpt lat="47.567111" lon="7.839998">
        <ele>301.826111</ele>
        <time>2021-11-20T20:23:23.771Z</time>
      </trkpt>
      <trkpt lat="47.566826" lon="7.840179">
        <ele>302.011454</ele>
        <time>2021-11-20T20:23:29.116Z</time>
      </trkpt>
      <trkpt lat="47.566592" lon="7.840279">
        <ele>302.196945</ele>
        <time>2021-11-20T20:23:33.784Z</time>
      </trkpt>
      <trkpt lat="47.566515" lon="7.840312">
        <ele>302.283324</ele>
        <time>2021-11-20T20:23:34.986Z</time>
      </trkpt>
      <trkpt lat="47.566450" lon="7.840326">
        <ele>302.354107</ele>
        <time>2021-11-20T20:23:36.369Z</time>
      </trkpt>
      <trkpt lat="47.566350" lon="7.840350">
        <ele>302.463276</ele>
        <time>2021-11-20T20:23:38.342Z</time>
      </trkpt>
      <trkpt lat="47.566221" lon="7.840340">
        <ele>302.602483</ele>
        <time>2021-11-20T20:23:40.535Z</time>
      </trkpt>
      <trkpt lat="47.566142" lon="7.840322">
        <ele>302.688617</ele>
        <time>2021-11-20T20:23:41.707Z</time>
      </trkpt>
      <trkpt lat="47.566081" lon="7.840309">
        <ele>302.755030</ele>
        <time>2021-11-20T20:23:43.096Z</time>
      </trkpt>
      <trkpt lat="47.565906" lon="7.840272">
        <ele>302.945529</ele>
        <time>2021-11-20T20:23:46.477Z</time>
      </trkpt>
      <trkpt lat="47.565343" lon="7.840185">
        <ele>303.555535</ele>
        <time>2021-11-20T20:23:57.277Z</time>
      </trkpt>
      <trkpt lat="47.565233" lon="7.840176">
        <ele>303.674257</ele>
        <time>2021-11-20T20:23:59.615Z</time>
      </trkpt>
      <trkpt lat="47.565168" lon="7.840179">
        <ele>303.744338</ele>
        <time>2021-11-20T20:24:00.991Z</time>
      </trkpt>
      <trkpt lat="47.565057" lon="7.840213">
        <ele>303.866485</ele>
        <time>2021-11-20T20:24:03.234Z</time>
      </trkpt>
      <trkpt lat="47.564936" lon="7.840261">
        <ele>304.001472</ele>
        <time>2021-11-20T20:24:05.950Z</time>
      </trkpt>
      <trkpt lat="47.564558" lon="7.840516">
        <ele>304.443750</ele>
        <time>2021-11-20T20:24:14.232Z</time>
      </trkpt>
      <trkpt lat="47.564534" lon="7.840532">
        <ele>304.471738</ele>
        <time>2021-11-20T20:24:14.729Z</time>
      </trkpt>
      <trkpt lat="47.564463" lon="7.840580">
        <ele>304.554733</ele>
        <time>2021-11-20T20:24:16.343Z</time>
      </trkpt>
      <trkpt lat="47.564094" lon="7.840838">
        <ele>304.988654</ele>
        <time>2021-11-20T20:24:24.013Z</time>
      </trkpt>
      <trkpt lat="47.563986" lon="7.840916">
        <ele>305.116427</ele>
        <time>2021-11-20T20:24:26.296Z</time>
      </trkpt>
      <trkpt lat="47.563941" lon="7.840948">
        <ele>305.169510</ele>
        <time>2021-11-20T20:24:27.221Z</time>
      </trkpt>
      <trkpt lat="47.563805" lon="7.841046">
        <ele>305.330340</ele>
        <time>2021-11-20T20:24:30.034Z</time>
      </trkpt>
      <trkpt lat="47.563659" lon="7.841150">
        <ele>305.502619</ele>
        <time>2021-11-20T20:24:32.919Z</time>
      </trkpt>
      <trkpt lat="47.563483" lon="7.841269">
        <ele>305.708359</ele>
        <time>2021-11-20T20:24:36.654Z</time>
      </trkpt>
      <trkpt lat="47.563300" lon="7.841391">
        <ele>305.921768</ele>
        <time>2021-11-20T20:24:40.207Z</time>
      </trkpt>
      <trkpt lat="47.563016" lon="7.841568">
        <ele>306.291625</ele>
        <time>2021-11-20T20:24:46.065Z</time>
      </trkpt>
      <trkpt lat="47.562965" lon="7.841597">
        <ele>306.358146</ele>
        <time>2021-11-20T20:24:47.042Z</time>
      </trkpt>
      <trkpt lat="47.562904" lon="7.841632">
        <ele>306.437804</ele>
        <time>2021-11-20T20:24:48.282Z</time>
      </trkpt>
      <trkpt lat="47.562574" lon="7.841873">
        <ele>306.885814</ele>
        <time>2021-11-20T20:24:55.248Z</time>
      </trkpt>
      <trkpt lat="47.562440" lon="7.842083">
        <ele>307.123314</ele>
        <time>2021-11-20T20:24:58.860Z</time>
      </trkpt>
      <trkpt lat="47.562385" lon="7.842183">
        <ele>307.229325</ele>
        <time>2021-11-20T20:25:00.423Z</time>
      </trkpt>
      <trkpt lat="47.562300" lon="7.842326">
        <ele>307.385922</ele>
        <time>2021-11-20T20:25:03.332Z</time>
      </trkpt>
      <trkpt lat="47.562179" lon="7.842500">
        <ele>307.591241</ele>
        <time>2021-11-20T20:25:06.804Z</time>
      </trkpt>
      <trkpt lat="47.561498" lon="7.843130">
        <ele>308.497610</ele>
        <time>2021-11-20T20:25:23.512Z</time>
      </trkpt>
      <trkpt lat="47.561434" lon="7.843181">
        <ele>308.571089</ele>
        <time>2021-11-20T20:25:25.315Z</time>
      </trkpt>
      <trkpt lat="47.561038" lon="7.843502">
        <ele>309.027507</ele>
        <time>2021-11-20T20:25:34.015Z</time>
      </trkpt>
      <trkpt lat="47.560934" lon="7.843550">
        <ele>309.137652</ele>
        <time>2021-11-20T20:25:36.170Z</time>
      </trkpt>
      <trkpt lat="47.560812" lon="7.843560">
        <ele>309.261204</ele>
        <time>2021-11-20T20:25:38.414Z</time>
      </trkpt>
      <trkpt lat="47.560515" lon="7.843379">
        <ele>309.585929</ele>
        <time>2021-11-20T20:25:44.150Z</time>
      </trkpt>
      <trkpt lat="47.560430" lon="7.843341">
        <ele>309.675705</ele>
        <time>2021-11-20T20:25:45.952Z</time>
      </trkpt>
      <trkpt lat="47.560338" lon="7.843341">
        <ele>309.768733</ele>
        <time>2021-11-20T20:25:47.175Z</time>
      </trkpt>
      <trkpt lat="47.560209" lon="7.843393">
        <ele>309.903915</ele>
        <time>2021-11-20T20:25:49.651Z</time>
      </trkpt>
      <trkpt lat="47.560139" lon="7.843433">
        <ele>309.966850</ele>
        <time>2021-11-20T20:25:50.970Z</time>
      </trkpt>
      <trkpt lat="47.559847" lon="7.843604">
        <ele>309.947621</ele>
        <time>2021-11-20T20:25:56.141Z</time>
      </trkpt>
      <trkpt lat="47.559583" lon="7.843813">
        <ele>309.929290</ele>
        <time>2021-11-20T20:26:00.631Z</time>
      </trkpt>
      <trkpt lat="47.559158" lon="7.844233">
        <ele>309.898003</ele>
        <time>2021-11-20T20:26:07.841Z</time>
      </trkpt>
      <trkpt lat="47.559109" lon="7.844229">
        <ele>309.894998</ele>
        <time>2021-11-20T20:26:08.431Z</time>
      </trkpt>
      <trkpt lat="47.559060" lon="7.844197">
        <ele>309.891718</ele>
        <time>2021-11-20T20:26:09.062Z</time>
      </trkpt>
      <trkpt lat="47.558884" lon="7.843836">
        <ele>309.873312</ele>
        <time>2021-11-20T20:26:13.214Z</time>
      </trkpt>
      <trkpt lat="47.558672" lon="7.843550">
        <ele>309.859530</ele>
        <time>2021-11-20T20:26:17.230Z</time>
      </trkpt>
      <trkpt lat="47.558555" lon="7.843392">
        <ele>309.871662</ele>
        <time>2021-11-20T20:26:19.273Z</time>
      </trkpt>
      <trkpt lat="47.558471" lon="7.843365">
        <ele>309.878250</ele>
        <time>2021-11-20T20:26:20.531Z</time>
      </trkpt>
      <trkpt lat="47.558405" lon="7.843371">
        <ele>309.883318</ele>
        <time>2021-11-20T20:26:21.701Z</time>
      </trkpt>
      <trkpt lat="47.558136" lon="7.843582">
        <ele>309.906644</ele>
        <time>2021-11-20T20:26:25.907Z</time>
      </trkpt>
      <trkpt lat="47.557967" lon="7.843683">
        <ele>309.920611</ele>
        <time>2021-11-20T20:26:28.625Z</time>
      </trkpt>
      <trkpt lat="47.557846" lon="7.843756">
        <ele>309.930623</ele>
        <time>2021-11-20T20:26:30.469Z</time>
      </trkpt>
      <trkpt lat="47.557759" lon="7.843839">
        <ele>309.938554</ele>
        <time>2021-11-20T20:26:32.247Z</time>
      </trkpt>
      <trkpt lat="47.557715" lon="7.843940">
        <ele>309.944771</ele>
        <time>2021-11-20T20:26:33.475Z</time>
      </trkpt>
      <trkpt lat="47.557560" lon="7.844433">
        <ele>309.972902</ele>
        <time>2021-11-20T20:26:39.428Z</time>
      </trkpt>
      <trkpt lat="47.557282" lon="7.844832">
        <ele>310.062758</ele>
        <time>2021-11-20T20:26:45.816Z</time>
      </trkpt>
      <trkpt lat="47.557134" lon="7.845095">
        <ele>310.226877</ele>
        <time>2021-11-20T20:26:49.578Z</time>
      </trkpt>
      <trkpt lat="47.556636" lon="7.845928">
        <ele>310.760231</ele>
        <time>2021-11-20T20:27:02.432Z</time>
      </trkpt>
      <trkpt lat="47.556235" lon="7.846576">
        <ele>311.181601</ele>
        <time>2021-11-20T20:27:13.593Z</time>
      </trkpt>
      <trkpt lat="47.556060" lon="7.846859">
        <ele>311.438570</ele>
        <time>2021-11-20T20:27:18.563Z</time>
      </trkpt>
      <trkpt lat="47.555990" lon="7.846965">
        <ele>311.565491</ele>
        <time>2021-11-20T20:27:20.529Z</time>
      </trkpt>
      <trkpt lat="47.555966" lon="7.846932">
        <ele>311.607010</ele>
        <time>2021-11-20T20:27:21.121Z</time>
      </trkpt>
      <trkpt lat="47.555892" lon="7.846856">
        <ele>311.721186</ele>
        <time>2021-11-20T20:27:22.688Z</time>
      </trkpt>
      <trkpt lat="47.555855" lon="7.846815">
        <ele>311.779775</ele>
        <time>2021-11-20T20:27:23.599Z</time>
      </trkpt>
      <trkpt lat="47.555727" lon="7.846715">
        <ele>311.963271</ele>
        <time>2021-11-20T20:27:26.594Z</time>
      </trkpt>
      <trkpt lat="47.555199" lon="7.846687">
        <ele>312.633257</ele>
        <time>2021-11-20T20:27:36.567Z</time>
      </trkpt>
      <trkpt lat="47.555068" lon="7.846672">
        <ele>312.799874</ele>
        <time>2021-11-20T20:27:39.444Z</time>
      </trkpt>
      <trkpt lat="47.554995" lon="7.846915">
        <ele>313.027510</ele>
        <time>2021-11-20T20:27:43.173Z</time>
      </trkpt>
      <trkpt lat="47.554981" lon="7.846947">
        <ele>313.060148</ele>
        <time>2021-11-20T20:27:43.689Z</time>
      </trkpt>
      <trkpt lat="47.554892" lon="7.847148">
        <ele>313.265886</ele>
        <time>2021-11-20T20:27:47.181Z</time>
      </trkpt>
      <trkpt lat="47.554759" lon="7.847388">
        <ele>313.531656</ele>
        <time>2021-11-20T20:27:51.502Z</time>
      </trkpt>
      <trkpt lat="47.554618" lon="7.847626">
        <ele>313.826993</ele>
        <time>2021-11-20T20:27:56.061Z</time>
      </trkpt>
      <trkpt lat="47.554465" lon="7.847858">
        <ele>314.131678</ele>
        <time>2021-11-20T20:28:00.696Z</time>
      </trkpt>
      <trkpt lat="47.554351" lon="7.848049">
        <ele>314.371180</ele>
        <time>2021-11-20T20:28:03.990Z</time>
      </trkpt>
      <trkpt lat="47.554269" lon="7.848188">
        <ele>314.544592</ele>
        <time>2021-11-20T20:28:06.482Z</time>
      </trkpt>
      <trkpt lat="47.554209" lon="7.848300">
        <ele>314.678909</ele>
        <time>2021-11-20T20:28:08.622Z</time>
      </trkpt>
      <trkpt lat="47.554055" lon="7.848586">
        <ele>315.022577</ele>
        <time>2021-11-20T20:28:13.422Z</time>
      </trkpt>
      <trkpt lat="47.553725" lon="7.849291">
        <ele>315.828478</ele>
        <time>2021-11-20T20:28:24.795Z</time>
      </trkpt>
      <trkpt lat="47.553605" lon="7.849629">
        <ele>316.249218</ele>
        <time>2021-11-20T20:28:30.314Z</time>
      </trkpt>
      <trkpt lat="47.553537" lon="7.849904">
        <ele>316.655137</ele>
        <time>2021-11-20T20:28:34.380Z</time>
      </trkpt>
      <trkpt lat="47.553380" lon="7.850453">
        <ele>317.481528</ele>
        <time>2021-11-20T20:28:43.284Z</time>
      </trkpt>
      <trkpt lat="47.553344" lon="7.850525">
        <ele>317.605720</ele>
        <time>2021-11-20T20:28:44.587Z</time>
      </trkpt>
      <trkpt lat="47.553283" lon="7.850634">
        <ele>317.801973</ele>
        <time>2021-11-20T20:28:46.653Z</time>
      </trkpt>
      <trkpt lat="47.552876" lon="7.851300">
        <ele>319.047219</ele>
        <time>2021-11-20T20:29:00.463Z</time>
      </trkpt>
      <trkpt lat="47.552678" lon="7.851709">
        <ele>319.744842</ele>
        <time>2021-11-20T20:29:09.132Z</time>
      </trkpt>
      <trkpt lat="47.552449" lon="7.852231">
        <ele>321.110920</ele>
        <time>2021-11-20T20:29:20.637Z</time>
      </trkpt>
      <trkpt lat="47.552272" lon="7.852167">
        <ele>321.704696</ele>
        <time>2021-11-20T20:29:26.037Z</time>
      </trkpt>
      <trkpt lat="47.552097" lon="7.852063">
        <ele>322.319191</ele>
        <time>2021-11-20T20:29:31.284Z</time>
      </trkpt>
      <trkpt lat="47.552042" lon="7.852007">
        <ele>322.536680</ele>
        <time>2021-11-20T20:29:33.684Z</time>
      </trkpt>
      <trkpt lat="47.551925" lon="7.851845">
        <ele>323.058568</ele>
        <time>2021-11-20T20:29:37.950Z</time>
      </trkpt>
      <trkpt lat="47.551830" lon="7.851603">
        <ele>323.674360</ele>
        <time>2021-11-20T20:29:43.772Z</time>
      </trkpt>
      <trkpt lat="47.551660" lon="7.851725">
        <ele>324.289961</ele>
        <time>2021-11-20T20:29:49.005Z</time>
      </trkpt>
      <trkpt lat="47.551516" lon="7.851950">
        <ele>324.972001</ele>
        <time>2021-11-20T20:29:55.563Z</time>
      </trkpt>
      <trkpt lat="47.550221" lon="7.853833">
        <ele>329.747783</ele>
        <time>2021-11-20T20:30:42.855Z</time>
      </trkpt>
      <trkpt lat="47.549883" lon="7.854434">
        <ele>330.376969</ele>
        <time>2021-11-20T20:30:52.975Z</time>
      </trkpt>
      <trkpt lat="47.549566" lon="7.855225">
        <ele>330.676200</ele>
        <time>2021-11-20T20:31:06.835Z</time>
      </trkpt>
      <trkpt lat="47.549362" lon="7.855774">
        <ele>330.880052</ele>
        <time>2021-11-20T20:31:15.323Z</time>
      </trkpt>
      <trkpt lat="47.548887" lon="7.857308">
        <ele>331.185128</ele>
        <time>2021-11-20T20:31:37.431Z</time>
      </trkpt>
      <trkpt lat="47.548743" lon="7.857692">
        <ele>331.229187</ele>
        <time>2021-11-20T20:31:43.403Z</time>
      </trkpt>
      <trkpt lat="47.548701" lon="7.857893">
        <ele>331.250291</ele>
        <time>2021-11-20T20:31:46.374Z</time>
      </trkpt>
      <trkpt lat="47.548686" lon="7.857973">
        <ele>331.258619</ele>
        <time>2021-11-20T20:31:47.498Z</time>
      </trkpt>
      <trkpt lat="47.548611" lon="7.858381">
        <ele>331.301031</ele>
        <time>2021-11-20T20:31:53.712Z</time>
      </trkpt>
      <trkpt lat="47.548334" lon="7.859801">
        <ele>332.184178</ele>
        <time>2021-11-20T20:32:16.749Z</time>
      </trkpt>
      <trkpt lat="47.548049" lon="7.860929">
        <ele>333.145570</ele>
        <time>2021-11-20T20:32:37.767Z</time>
      </trkpt>
      <trkpt lat="47.547930" lon="7.861711">
        <ele>333.898813</ele>
        <time>2021-11-20T20:32:52.531Z</time>
      </trkpt>
      <trkpt lat="47.547568" lon="7.863151">
        <ele>335.567227</ele>
        <time>2021-11-20T20:33:21.659Z</time>
      </trkpt>
      <trkpt lat="47.547320" lon="7.863864">
        <ele>336.361669</ele>
        <time>2021-11-20T20:33:35.599Z</time>
      </trkpt>
      <trkpt lat="47.546974" lon="7.864423">
        <ele>336.335793</ele>
        <time>2021-11-20T20:33:46.422Z</time>
      </trkpt>
      <trkpt lat="47.546885" lon="7.864500">
        <ele>336.330583</ele>
        <time>2021-11-20T20:33:49.507Z</time>
      </trkpt>
      <trkpt lat="47.546894" lon="7.864837">
        <ele>336.319077</ele>
        <time>2021-11-20T20:33:53.391Z</time>
      </trkpt>
      <trkpt lat="47.546889" lon="7.865225">
        <ele>336.305837</ele>
        <time>2021-11-20T20:33:58.816Z</time>
      </trkpt>
      <trkpt lat="47.546819" lon="7.865489">
        <ele>336.296160</ele>
        <time>2021-11-20T20:34:02.761Z</time>
      </trkpt>
      <trkpt lat="47.546510" lon="7.865766">
        <ele>336.277905</ele>
        <time>2021-11-20T20:34:09.394Z</time>
      </trkpt>
      <trkpt lat="47.546327" lon="7.865959">
        <ele>336.185493</ele>
        <time>2021-11-20T20:34:12.910Z</time>
      </trkpt>
      <trkpt lat="47.546096" lon="7.866147">
        <ele>336.006923</ele>
        <time>2021-11-20T20:34:17.466Z</time>
      </trkpt>
      <trkpt lat="47.545240" lon="7.866887">
        <ele>335.335438</ele>
        <time>2021-11-20T20:34:34.139Z</time>
      </trkpt>
      <trkpt lat="47.545160" lon="7.866985">
        <ele>335.265106</ele>
        <time>2021-11-20T20:34:36.095Z</time>
      </trkpt>
      <trkpt lat="47.545003" lon="7.867278">
        <ele>335.094018</ele>
        <time>2021-11-20T20:34:41.763Z</time>
      </trkpt>
      <trkpt lat="47.544568" lon="7.867693">
        <ele>335.629303</ele>
        <time>2021-11-20T20:34:54.554Z</time>
      </trkpt>
      <trkpt lat="47.544469" lon="7.867776">
        <ele>335.771767</ele>
        <time>2021-11-20T20:34:57.416Z</time>
      </trkpt>
      <trkpt lat="47.544410" lon="7.867825">
        <ele>335.856478</ele>
        <time>2021-11-20T20:34:59.504Z</time>
      </trkpt>
      <trkpt lat="47.544246" lon="7.867967">
        <ele>336.094380</ele>
        <time>2021-11-20T20:35:04.188Z</time>
      </trkpt>
      <trkpt lat="47.544214" lon="7.867988">
        <ele>336.138212</ele>
        <time>2021-11-20T20:35:05.036Z</time>
      </trkpt>
      <trkpt lat="47.543801" lon="7.868269">
        <ele>336.707396</ele>
        <time>2021-11-20T20:35:16.639Z</time>
      </trkpt>
      <trkpt lat="47.543657" lon="7.868359">
        <ele>336.903134</ele>
        <time>2021-11-20T20:35:20.988Z</time>
      </trkpt>
      <trkpt lat="47.543201" lon="7.868657">
        <ele>337.489249</ele>
        <time>2021-11-20T20:35:31.189Z</time>
      </trkpt>
      <trkpt lat="47.543105" lon="7.868711">
        <ele>337.595622</ele>
        <time>2021-11-20T20:35:33.773Z</time>
      </trkpt>
      <trkpt lat="47.543049" lon="7.868759">
        <ele>337.662642</ele>
        <time>2021-11-20T20:35:35.150Z</time>
      </trkpt>
      <trkpt lat="47.542722" lon="7.869201">
        <ele>338.121194</ele>
        <time>2021-11-20T20:35:44.982Z</time>
      </trkpt>
      <trkpt lat="47.542696" lon="7.869257">
        <ele>338.168721</ele>
        <time>2021-11-20T20:35:45.812Z</time>
      </trkpt>
      <trkpt lat="47.542657" lon="7.869354">
        <ele>338.247670</ele>
        <time>2021-11-20T20:35:47.247Z</time>
      </trkpt>
      <trkpt lat="47.542372" lon="7.869746">
        <ele>338.650533</ele>
        <time>2021-11-20T20:35:54.456Z</time>
      </trkpt>
      <trkpt lat="47.542329" lon="7.869820">
        <ele>338.718810</ele>
        <time>2021-11-20T20:35:55.678Z</time>
      </trkpt>
      <trkpt lat="47.542348" lon="7.869983">
        <ele>338.834478</ele>
        <time>2021-11-20T20:35:57.237Z</time>
      </trkpt>
      <trkpt lat="47.542317" lon="7.870012">
        <ele>338.872458</ele>
        <time>2021-11-20T20:35:57.941Z</time>
      </trkpt>
      <trkpt lat="47.542181" lon="7.870131">
        <ele>339.036079</ele>
        <time>2021-11-20T20:36:00.564Z</time>
      </trkpt>
      <trkpt lat="47.542118" lon="7.870135">
        <ele>339.101400</ele>
        <time>2021-11-20T20:36:01.598Z</time>
      </trkpt>
      <trkpt lat="47.542014" lon="7.870126">
        <ele>339.170263</ele>
        <time>2021-11-20T20:36:02.970Z</time>
      </trkpt>
      <trkpt lat="47.541910" lon="7.870106">
        <ele>339.170263</ele>
        <time>2021-11-20T20:36:04.635Z</time>
      </trkpt>
      <trkpt lat="47.541606" lon="7.870424">
        <ele>339.170263</ele>
        <time>2021-11-20T20:36:10.007Z</time>
      </trkpt>
      <trkpt lat="47.541521" lon="7.870517">
        <ele>339.170263</ele>
        <time>2021-11-20T20:36:11.512Z</time>
      </trkpt>
      <trkpt lat="47.541550" lon="7.870601">
        <ele>339.170263</ele>
        <time>2021-11-20T20:36:12.378Z</time>
      </trkpt>
      <trkpt lat="47.541576" lon="7.870664">
        <ele>339.170263</ele>
        <time>2021-11-20T20:36:13.050Z</time>
      </trkpt>
      <trkpt lat="47.541410" lon="7.870791">
        <ele>339.170263</ele>
        <time>2021-11-20T20:36:16.247Z</time>
      </trkpt>
      <trkpt lat="47.541348" lon="7.870842">
        <ele>339.170263</ele>
        <time>2021-11-20T20:36:17.253Z</time>
      </trkpt>
    </trkseg>
  </trk>
</gpx>